Temperatur und Luftfeuchte

Temperatur und Luftfeuchte

Nummer Datum und Zeit Sensor ID Temperatur in Celsius gef├╝hlte Temperatur Luftfeuchte in %
67188 2022-08-16 11:42:31 Terrasse 27.10 25.89 1.00
67187 2022-08-16 11:31:40 Bahnzimmer 21.00 20.12 37.00
67186 2022-08-16 11:13:49 Terrasse 24.80 23.36 1.00
67185 2022-08-16 11:01:39 Bahnzimmer 21.00 20.15 38.00
67184 2022-08-16 10:45:18 Terrasse 22.80 23.74 99.90
67183 2022-08-16 10:31:38 Bahnzimmer 21.00 20.20 40.00
67182 2022-08-16 10:16:50 Terrasse 22.20 23.08 99.90
67181 2022-08-16 10:01:36 Bahnzimmer 21.00 20.23 41.00
67180 2022-08-16 09:48:24 Terrasse 21.30 22.09 99.90
67179 2022-08-16 09:31:35 Bahnzimmer 20.00 19.20 44.00
67178 2022-08-16 09:19:56 Terrasse 20.50 21.21 99.90
67177 2022-08-16 09:01:34 Bahnzimmer 20.00 19.23 45.00
67176 2022-08-16 08:51:30 Terrasse 19.80 17.86 1.00
67175 2022-08-16 08:31:33 Bahnzimmer 20.00 19.20 44.00
67174 2022-08-16 08:23:05 Terrasse 19.10 17.41 13.10
67173 2022-08-16 08:01:33 Bahnzimmer 20.00 19.15 42.00
67172 2022-08-16 07:54:41 Terrasse 18.60 19.12 99.90
67171 2022-08-16 07:31:32 Bahnzimmer 20.00 19.10 40.00
67170 2022-08-16 07:26:19 Terrasse 18.30 16.21 1.00
67169 2022-08-16 07:01:30 Bahnzimmer 20.00 19.05 38.00
67168 2022-08-16 06:57:58 Terrasse 18.20 16.10 1.00
67167 2022-08-16 06:31:27 Bahnzimmer 20.00 18.92 33.00
67166 2022-08-16 06:29:36 Terrasse 18.30 16.21 1.00
67165 2022-08-16 06:01:26 Bahnzimmer 21.00 19.68 20.00
67164 2022-08-16 06:01:15 Terrasse 18.40 16.32 1.00
67163 2022-08-16 05:32:54 Terrasse 18.60 19.12 99.90
67162 2022-08-16 05:31:26 Bahnzimmer 21.00 19.68 20.00
67161 2022-08-16 05:04:34 Terrasse 18.90 19.45 99.90
67160 2022-08-16 05:01:25 Bahnzimmer 21.00 19.68 20.00
67159 2022-08-16 04:36:14 Terrasse 19.20 17.20 1.00
67158 2022-08-16 04:31:24 Bahnzimmer 21.00 19.68 20.00
67157 2022-08-16 04:07:54 Terrasse 19.40 17.42 1.00
67156 2022-08-16 04:01:24 Bahnzimmer 21.00 19.68 20.00
67155 2022-08-16 03:39:32 Terrasse 19.60 17.64 1.00
67154 2022-08-16 03:31:23 Bahnzimmer 21.00 19.68 20.00
67153 2022-08-16 03:11:11 Terrasse 19.70 17.75 1.00
67152 2022-08-16 03:01:22 Bahnzimmer 21.00 19.68 20.00
67151 2022-08-16 02:42:52 Terrasse 20.10 18.19 1.00
67150 2022-08-16 02:31:21 Bahnzimmer 21.00 19.68 20.00
67149 2022-08-16 02:14:31 Terrasse 20.30 18.41 1.00
67148 2022-08-16 02:01:21 Bahnzimmer 22.00 20.78 20.00
67147 2022-08-16 01:46:10 Terrasse 20.50 18.63 1.00
67146 2022-08-16 01:31:20 Bahnzimmer 21.00 19.68 20.00
67145 2022-08-16 01:17:49 Terrasse 20.70 18.85 1.00
67144 2022-08-16 01:01:19 Bahnzimmer 22.00 20.78 20.00
67143 2022-08-16 00:49:29 Terrasse 20.90 21.65 99.90
67142 2022-08-16 00:31:19 Bahnzimmer 22.00 20.78 20.00
67141 2022-08-16 00:21:10 Terrasse 21.30 22.09 99.90
67140 2022-08-16 00:01:18 Bahnzimmer 22.00 20.78 20.00
67139 2022-08-15 23:52:51 Terrasse 21.60 19.84 1.00
67138 2022-08-15 23:31:17 Bahnzimmer 22.00 20.78 20.00
67137 2022-08-15 23:24:32 Terrasse 21.90 20.17 1.00
67136 2022-08-15 23:01:17 Bahnzimmer 21.00 19.68 20.00
67135 2022-08-15 22:56:12 Terrasse 22.30 23.02 93.20
67134 2022-08-15 22:31:16 Bahnzimmer 21.00 19.68 20.00
67133 2022-08-15 22:27:52 Terrasse 22.60 20.94 1.00
67132 2022-08-15 22:01:16 Bahnzimmer 22.00 20.78 20.00
67131 2022-08-15 21:59:32 Terrasse 23.00 21.38 1.00
67130 2022-08-15 21:31:15 Bahnzimmer 22.00 20.78 20.00
67129 2022-08-15 21:31:13 Terrasse 23.50 21.93 1.00
67128 2022-08-15 21:02:52 Terrasse 24.10 22.59 1.00
67127 2022-08-15 21:01:14 Bahnzimmer 22.00 20.78 20.00
67126 2022-08-15 20:34:34 Terrasse 24.50 23.03 1.00
67125 2022-08-15 20:31:14 Bahnzimmer 22.00 20.83 22.00
67124 2022-08-15 20:06:15 Terrasse 25.10 23.69 1.00
67123 2022-08-15 20:01:13 Bahnzimmer 22.00 20.83 22.00
67122 2022-08-15 19:37:55 Terrasse 25.50 24.13 1.00
67121 2022-08-15 19:31:12 Bahnzimmer 22.00 20.78 20.00
67120 2022-08-15 19:09:34 Terrasse 25.80 24.46 1.00
67119 2022-08-15 19:01:12 Bahnzimmer 22.00 20.86 23.00
67118 2022-08-15 18:41:14 Terrasse 26.10 24.79 1.00
67117 2022-08-15 18:31:11 Bahnzimmer 22.00 20.86 23.00
67116 2022-08-15 18:12:53 Terrasse 26.40 25.12 1.00
67115 2022-08-15 18:01:10 Bahnzimmer 22.00 20.88 24.00
67114 2022-08-15 17:44:32 Terrasse 26.30 25.01 1.00
67113 2022-08-15 17:31:10 Bahnzimmer 22.00 20.80 21.00
67112 2022-08-15 17:16:10 Terrasse 26.70 25.45 1.00
67111 2022-08-15 17:01:09 Bahnzimmer 22.00 20.83 22.00
67110 2022-08-15 16:47:48 Terrasse 26.50 25.23 1.00
67109 2022-08-15 16:31:08 Bahnzimmer 22.00 20.78 20.00
67108 2022-08-15 16:19:25 Terrasse 26.50 25.23 1.00
67107 2022-08-15 16:01:08 Bahnzimmer 22.00 20.86 23.00
67106 2022-08-15 15:51:05 Terrasse 26.70 25.45 1.00
67105 2022-08-15 15:31:07 Bahnzimmer 22.00 20.83 22.00
67104 2022-08-15 15:22:41 Terrasse 25.90 24.57 1.00
67103 2022-08-15 15:01:06 Bahnzimmer 22.00 20.83 22.00
67102 2022-08-15 14:54:20 Terrasse 25.90 24.57 1.00
67101 2022-08-15 14:31:06 Bahnzimmer 22.00 20.78 20.00
67100 2022-08-15 14:26:02 Terrasse 26.00 24.68 1.00
67099 2022-08-15 14:01:05 Bahnzimmer 22.00 20.78 20.00
67098 2022-08-15 13:57:42 Terrasse 26.70 25.45 1.00
67097 2022-08-15 13:31:04 Bahnzimmer 22.00 20.80 21.00
67096 2022-08-15 13:29:25 Terrasse 26.30 25.01 1.00
67095 2022-08-15 13:01:10 Terrasse 28.10 25.85 1.00
67094 2022-08-15 13:01:04 Bahnzimmer 22.00 20.78 20.00
67093 2022-08-15 12:32:42 Terrasse 25.30 23.91 1.00
67092 2022-08-15 12:31:03 Bahnzimmer 22.00 20.78 20.00
67091 2022-08-15 12:04:18 Terrasse 24.90 23.47 1.00
67090 2022-08-15 12:01:02 Bahnzimmer 22.00 20.78 20.00
67089 2022-08-15 11:36:02 Terrasse 25.70 24.35 1.00
67088 2022-08-15 11:31:02 Bahnzimmer 22.00 20.80 21.00
67087 2022-08-15 11:07:27 Terrasse 24.50 23.03 1.00
67086 2022-08-15 11:01:01 Bahnzimmer 22.00 20.78 20.00
67085 2022-08-15 10:39:00 Terrasse 23.60 22.04 1.00
67084 2022-08-15 10:30:59 Bahnzimmer 22.00 20.78 20.00
67083 2022-08-15 10:10:38 Terrasse 23.20 21.60 1.00
67082 2022-08-15 10:00:58 Bahnzimmer 22.00 20.78 20.00
67081 2022-08-15 09:42:15 Terrasse 23.10 21.49 1.00
67080 2022-08-15 09:30:58 Bahnzimmer 22.00 20.78 20.00
67079 2022-08-15 09:13:50 Terrasse 22.60 20.94 1.00
67078 2022-08-15 09:00:57 Bahnzimmer 21.00 19.68 20.00
67077 2022-08-15 08:45:30 Terrasse 22.30 20.61 1.00
67076 2022-08-15 08:30:56 Bahnzimmer 21.00 19.68 20.00
67075 2022-08-15 08:17:09 Terrasse 22.40 20.72 1.00
67074 2022-08-15 08:00:56 Bahnzimmer 21.00 19.68 20.00
67073 2022-08-15 07:48:48 Terrasse 22.40 20.72 1.00
67072 2022-08-15 07:30:55 Bahnzimmer 21.00 19.68 20.00
67071 2022-08-15 07:20:29 Terrasse 22.70 21.05 1.00
67070 2022-08-15 07:00:54 Bahnzimmer 21.00 19.68 20.00
67069 2022-08-15 06:52:09 Terrasse 22.80 23.74 99.90
67068 2022-08-15 06:30:54 Bahnzimmer 21.00 19.68 20.00
67067 2022-08-15 06:23:46 Terrasse 22.80 23.74 99.90
67066 2022-08-15 06:00:53 Bahnzimmer 21.00 19.68 20.00
67065 2022-08-15 05:55:26 Terrasse 23.10 24.07 99.90
67064 2022-08-15 05:30:52 Bahnzimmer 21.00 19.68 20.00
67063 2022-08-15 05:27:07 Terrasse 23.50 24.51 99.90
67062 2022-08-15 05:00:52 Bahnzimmer 21.00 19.68 20.00
67061 2022-08-15 04:58:46 Terrasse 23.70 24.73 99.90
67060 2022-08-15 04:30:51 Bahnzimmer 21.00 19.68 20.00
67059 2022-08-15 04:30:26 Terrasse 24.00 25.06 99.90
67058 2022-08-15 04:02:05 Terrasse 24.50 25.61 99.90
67057 2022-08-15 04:00:50 Bahnzimmer 21.00 19.68 20.00
67056 2022-08-15 03:33:44 Terrasse 24.40 25.50 99.90
67055 2022-08-15 03:30:50 Bahnzimmer 21.00 19.68 20.00
67054 2022-08-15 03:05:21 Terrasse 24.40 25.50 99.90
67053 2022-08-15 03:00:49 Bahnzimmer 21.00 19.68 20.00
67052 2022-08-15 02:36:59 Terrasse 24.20 25.28 99.90
67051 2022-08-15 02:30:48 Bahnzimmer 21.00 19.68 20.00
67050 2022-08-15 02:08:40 Terrasse 24.50 25.61 99.90
67049 2022-08-15 02:00:48 Bahnzimmer 21.00 19.68 20.00
67048 2022-08-15 01:40:20 Terrasse 24.60 25.72 99.90
67047 2022-08-15 01:30:47 Bahnzimmer 21.00 19.68 20.00
67046 2022-08-15 01:12:00 Terrasse 25.10 25.63 99.90
67045 2022-08-15 01:00:46 Bahnzimmer 21.00 19.68 20.00
67044 2022-08-15 00:43:41 Terrasse 25.40 26.53 99.90
67043 2022-08-15 00:30:46 Bahnzimmer 21.00 19.68 20.00
67042 2022-08-15 00:15:20 Terrasse 25.50 26.83 99.90
67041 2022-08-15 00:00:45 Bahnzimmer 21.00 19.68 20.00
67040 2022-08-14 23:47:00 Terrasse 25.80 27.77 99.90
67039 2022-08-14 23:30:44 Bahnzimmer 21.00 19.68 20.00
67038 2022-08-14 23:18:39 Terrasse 26.20 29.07 99.90
67037 2022-08-14 23:00:44 Bahnzimmer 21.00 19.68 20.00
67036 2022-08-14 22:50:19 Terrasse 26.50 30.08 99.90
67035 2022-08-14 22:30:43 Bahnzimmer 21.00 19.68 20.00
67034 2022-08-14 22:21:58 Terrasse 26.70 31.92 99.90
67033 2022-08-14 22:00:42 Bahnzimmer 21.00 19.68 20.00
67032 2022-08-14 21:53:38 Terrasse 27.10 33.22 99.90
67031 2022-08-14 21:30:42 Bahnzimmer 21.00 19.68 20.00
67030 2022-08-14 21:25:19 Terrasse 27.50 34.58 99.90
67029 2022-08-14 21:00:41 Bahnzimmer 21.00 19.68 20.00
67028 2022-08-14 20:57:00 Terrasse 28.10 36.72 99.90
67027 2022-08-14 20:30:40 Bahnzimmer 22.00 20.78 20.00
67026 2022-08-14 20:28:39 Terrasse 28.60 38.60 99.90
67025 2022-08-14 20:00:40 Bahnzimmer 22.00 20.78 20.00
67024 2022-08-14 20:00:20 Terrasse 29.20 40.97 99.90
67023 2022-08-14 19:32:01 Terrasse 29.90 43.89 99.90
67022 2022-08-14 19:30:39 Bahnzimmer 22.00 20.78 20.00
67021 2022-08-14 19:03:42 Terrasse 30.40 46.08 99.90
67020 2022-08-14 19:00:38 Bahnzimmer 21.00 19.68 20.00
67019 2022-08-14 18:35:23 Terrasse 30.70 47.48 99.90
67018 2022-08-14 18:30:38 Bahnzimmer 21.00 19.68 20.00
67017 2022-08-14 18:07:04 Terrasse 31.30 50.47 99.90
67016 2022-08-14 18:00:37 Bahnzimmer 21.00 19.68 20.00
67015 2022-08-14 17:38:44 Terrasse 31.60 52.00 99.90
67014 2022-08-14 17:30:36 Bahnzimmer 21.00 19.68 20.00
67013 2022-08-14 17:10:25 Terrasse 32.10 54.64 99.90
67012 2022-08-14 17:00:36 Bahnzimmer 21.00 19.68 20.00
67011 2022-08-14 16:42:04 Terrasse 32.10 54.64 99.90
67010 2022-08-14 16:30:35 Bahnzimmer 21.00 19.68 20.00
67009 2022-08-14 16:13:44 Terrasse 32.60 57.36 99.90
67008 2022-08-14 16:00:34 Bahnzimmer 21.00 19.73 22.00
67007 2022-08-14 15:45:23 Terrasse 32.80 58.47 99.90
67006 2022-08-14 15:30:34 Bahnzimmer 21.00 19.76 23.00
67005 2022-08-14 15:16:59 Terrasse 32.60 57.36 99.90
67004 2022-08-14 15:00:33 Bahnzimmer 21.00 19.78 24.00
67003 2022-08-14 14:48:40 Terrasse 32.80 58.47 99.90
67002 2022-08-14 14:30:32 Bahnzimmer 21.00 19.83 26.00
67001 2022-08-14 14:20:22 Terrasse 33.30 61.31 99.90
67000 2022-08-14 14:00:32 Bahnzimmer 22.00 21.06 31.00
66999 2022-08-14 13:52:12 Terrasse 34.50 68.48 99.90
66998 2022-08-14 13:30:31 Bahnzimmer 21.00 19.81 25.00
66997 2022-08-14 13:23:53 Terrasse 35.70 76.15 99.90
66996 2022-08-14 13:00:30 Bahnzimmer 21.00 19.83 26.00
66995 2022-08-14 12:55:13 Terrasse 33.80 29.98 1.00
66994 2022-08-14 12:30:30 Bahnzimmer 21.00 19.91 29.00
66993 2022-08-14 12:26:40 Terrasse 30.70 27.75 1.00
66992 2022-08-14 12:00:29 Bahnzimmer 21.00 19.96 31.00
66991 2022-08-14 11:58:21 Terrasse 31.10 28.08 1.00
66990 2022-08-14 11:30:28 Bahnzimmer 22.00 21.06 31.00
66989 2022-08-14 11:29:43 Terrasse 28.70 26.30 1.00
66988 2022-08-14 11:01:06 Terrasse 26.80 32.24 99.90
66987 2022-08-14 11:00:28 Bahnzimmer 22.00 21.09 32.00
66986 2022-08-14 10:32:38 Terrasse 25.40 26.53 99.90
66985 2022-08-14 10:30:27 Bahnzimmer 22.00 21.14 34.00
66984 2022-08-14 10:04:12 Terrasse 24.40 22.92 1.00
66983 2022-08-14 10:00:26 Bahnzimmer 21.00 20.04 34.00
66982 2022-08-14 09:35:46 Terrasse 23.80 24.84 99.90
66981 2022-08-14 09:30:26 Bahnzimmer 21.00 20.04 34.00
66980 2022-08-14 09:07:21 Terrasse 23.20 21.79 8.30
66979 2022-08-14 09:00:25 Bahnzimmer 21.00 20.04 34.00
66978 2022-08-14 08:38:55 Terrasse 22.60 23.52 99.90
66977 2022-08-14 08:30:24 Bahnzimmer 21.00 19.99 32.00
66976 2022-08-14 08:10:31 Terrasse 22.20 23.08 99.90
66975 2022-08-14 08:00:24 Bahnzimmer 21.00 19.68 20.00
66974 2022-08-14 07:42:08 Terrasse 22.00 22.86 99.90
66973 2022-08-14 07:30:23 Bahnzimmer 21.00 19.68 20.00
66972 2022-08-14 07:13:45 Terrasse 21.80 20.06 1.00
66971 2022-08-14 07:00:22 Bahnzimmer 21.00 19.68 20.00
66970 2022-08-14 06:45:24 Terrasse 21.80 20.06 1.00
66969 2022-08-14 06:30:21 Bahnzimmer 21.00 19.68 20.00
66968 2022-08-14 06:17:03 Terrasse 21.90 22.75 99.90
66967 2022-08-14 06:00:21 Bahnzimmer 21.00 19.68 20.00
66966 2022-08-14 05:48:44 Terrasse 22.00 20.28 1.00
66965 2022-08-14 05:30:20 Bahnzimmer 21.00 19.68 20.00
66964 2022-08-14 05:20:25 Terrasse 22.30 20.61 1.00
66963 2022-08-14 05:00:19 Bahnzimmer 21.00 19.68 20.00
66962 2022-08-14 04:52:04 Terrasse 22.60 20.94 1.00
66961 2022-08-14 04:30:19 Bahnzimmer 21.00 19.68 20.00
66960 2022-08-14 04:23:44 Terrasse 22.70 21.05 1.00
66959 2022-08-14 04:00:18 Bahnzimmer 21.00 19.68 20.00
66958 2022-08-14 03:55:23 Terrasse 23.00 23.96 99.90
66957 2022-08-14 03:30:17 Bahnzimmer 21.00 19.68 20.00
66956 2022-08-14 03:27:03 Terrasse 23.10 24.07 99.90
66955 2022-08-14 03:00:17 Bahnzimmer 21.00 19.68 20.00
66954 2022-08-14 02:58:43 Terrasse 23.20 24.18 99.90
66953 2022-08-14 02:30:22 Terrasse 23.50 24.51 99.90
66952 2022-08-14 02:30:16 Bahnzimmer 21.00 19.68 20.00
66951 2022-08-14 02:02:03 Terrasse 24.00 25.06 99.90
66950 2022-08-14 02:00:15 Bahnzimmer 21.00 19.68 20.00
66949 2022-08-14 01:33:42 Terrasse 24.20 25.28 99.90
66948 2022-08-14 01:30:15 Bahnzimmer 21.00 19.68 20.00
66947 2022-08-14 01:05:21 Terrasse 24.30 25.39 99.90
66946 2022-08-14 01:00:14 Bahnzimmer 21.00 19.68 20.00
66945 2022-08-14 00:37:03 Terrasse 24.70 25.83 99.90
66944 2022-08-14 00:30:13 Bahnzimmer 21.00 19.68 20.00
66943 2022-08-14 00:08:42 Terrasse 24.90 26.05 99.90
66942 2022-08-14 00:00:13 Bahnzimmer 21.00 19.68 20.00
66941 2022-08-13 23:40:22 Terrasse 25.10 25.63 99.90
66940 2022-08-13 23:30:12 Bahnzimmer 21.00 19.68 20.00
66939 2022-08-13 23:12:02 Terrasse 25.30 26.22 99.90
66938 2022-08-13 23:00:11 Bahnzimmer 21.00 19.68 20.00
66937 2022-08-13 22:43:42 Terrasse 25.60 27.14 99.90
66936 2022-08-13 22:30:11 Bahnzimmer 21.00 19.68 20.00
66935 2022-08-13 22:15:21 Terrasse 25.90 28.09 99.90
66934 2022-08-13 22:00:10 Bahnzimmer 21.00 19.68 20.00
66933 2022-08-13 21:47:01 Terrasse 26.10 28.74 99.90
66932 2022-08-13 21:30:09 Bahnzimmer 21.00 19.68 20.00
66931 2022-08-13 21:18:40 Terrasse 26.30 29.40 99.90
66930 2022-08-13 21:00:09 Bahnzimmer 21.00 19.68 20.00
66929 2022-08-13 20:50:21 Terrasse 26.90 32.56 99.90
66928 2022-08-13 20:30:08 Bahnzimmer 21.00 19.68 20.00
66927 2022-08-13 20:22:04 Terrasse 27.90 35.99 99.90
66926 2022-08-13 20:00:07 Bahnzimmer 21.00 19.68 20.00
66925 2022-08-13 19:53:46 Terrasse 28.60 38.60 99.90
66924 2022-08-13 19:30:06 Bahnzimmer 21.00 19.68 20.00
66923 2022-08-13 19:25:27 Terrasse 29.10 40.57 99.90
66922 2022-08-13 19:00:06 Bahnzimmer 21.00 19.68 20.00
66921 2022-08-13 18:57:06 Terrasse 29.50 42.20 99.90
66920 2022-08-13 18:30:05 Bahnzimmer 21.00 19.68 20.00
66919 2022-08-13 18:28:45 Terrasse 29.80 43.46 99.90
66918 2022-08-13 18:00:25 Terrasse 30.20 45.20 99.90
66917 2022-08-13 18:00:04 Bahnzimmer 21.00 19.68 20.00
66916 2022-08-13 17:32:04 Terrasse 30.50 46.53 99.90
66915 2022-08-13 17:30:04 Bahnzimmer 21.00 19.68 20.00
66914 2022-08-13 17:03:44 Terrasse 30.80 47.97 99.90
66913 2022-08-13 17:00:03 Bahnzimmer 21.00 19.68 20.00
66912 2022-08-13 16:35:27 Terrasse 31.20 49.96 99.90
66911 2022-08-13 16:30:02 Bahnzimmer 21.00 19.68 20.00
66910 2022-08-13 16:07:04 Terrasse 31.40 50.98 99.90
66909 2022-08-13 16:00:01 Bahnzimmer 21.00 19.68 20.00
66908 2022-08-13 15:38:42 Terrasse 31.80 53.05 99.90
66907 2022-08-13 15:30:01 Bahnzimmer 21.00 19.65 19.00
66906 2022-08-13 15:10:20 Terrasse 31.80 53.05 99.90
66905 2022-08-13 15:00:00 Bahnzimmer 21.00 19.65 19.00
66904 2022-08-13 14:42:02 Terrasse 32.50 56.81 99.90
66903 2022-08-13 14:29:59 Bahnzimmer 21.00 19.65 19.00
66902 2022-08-13 14:13:45 Terrasse 32.90 59.03 99.90
66901 2022-08-13 13:59:59 Bahnzimmer 21.00 19.65 19.00
66900 2022-08-13 13:45:10 Terrasse 31.80 53.05 99.90
66899 2022-08-13 13:29:58 Bahnzimmer 21.00 19.65 19.00
66898 2022-08-13 13:16:57 Terrasse 32.30 55.72 99.90
66897 2022-08-13 12:59:57 Bahnzimmer 21.00 19.65 19.00
66896 2022-08-13 12:48:16 Terrasse 32.60 57.36 99.90
66895 2022-08-13 12:29:56 Bahnzimmer 21.00 19.65 19.00
66894 2022-08-13 12:19:56 Terrasse 30.90 48.46 99.90
66893 2022-08-13 11:59:56 Bahnzimmer 21.00 19.65 19.00
66892 2022-08-13 11:51:35 Terrasse 30.60 47.00 99.90
66891 2022-08-13 11:29:55 Bahnzimmer 21.00 19.65 19.00
66890 2022-08-13 11:22:51 Terrasse 28.30 37.46 99.90
66889 2022-08-13 10:59:54 Bahnzimmer 21.00 19.65 19.00
66888 2022-08-13 10:54:16 Terrasse 26.50 30.08 99.90
66887 2022-08-13 10:29:54 Bahnzimmer 21.00 19.65 19.00
66886 2022-08-13 10:25:44 Terrasse 25.00 25.34 99.90
66885 2022-08-13 09:59:53 Bahnzimmer 21.00 19.63 18.00
66884 2022-08-13 09:57:18 Terrasse 24.00 25.06 99.90
66883 2022-08-13 09:29:52 Bahnzimmer 21.00 19.63 18.00
66882 2022-08-13 09:28:50 Terrasse 23.10 24.07 99.90
66881 2022-08-13 09:00:24 Terrasse 22.20 23.08 99.90
66880 2022-08-13 08:59:52 Bahnzimmer 21.00 19.65 19.00
66879 2022-08-13 08:31:57 Terrasse 21.30 22.09 99.90
66878 2022-08-13 08:29:51 Bahnzimmer 21.00 19.65 19.00
66877 2022-08-13 08:03:31 Terrasse 20.50 21.21 99.90
66876 2022-08-13 07:59:50 Bahnzimmer 21.00 19.65 19.00
66875 2022-08-13 07:35:08 Terrasse 19.80 20.44 99.90
66874 2022-08-13 07:29:50 Bahnzimmer 21.00 19.68 20.00
66873 2022-08-13 07:06:48 Terrasse 19.90 20.55 99.90
66872 2022-08-13 06:59:49 Bahnzimmer 21.00 19.68 20.00
66871 2022-08-13 06:38:28 Terrasse 19.90 20.55 99.90
66870 2022-08-13 06:29:48 Bahnzimmer 21.00 19.68 20.00
66869 2022-08-13 06:10:09 Terrasse 20.10 20.77 99.90
66868 2022-08-13 05:59:48 Bahnzimmer 21.00 19.68 20.00
66867 2022-08-13 05:41:51 Terrasse 20.30 20.99 99.90
66866 2022-08-13 05:29:47 Bahnzimmer 21.00 19.68 20.00
66865 2022-08-13 05:13:32 Terrasse 20.60 21.32 99.90
66864 2022-08-13 04:59:46 Bahnzimmer 21.00 19.68 20.00
66863 2022-08-13 04:45:13 Terrasse 21.00 21.76 99.90
66862 2022-08-13 04:29:46 Bahnzimmer 21.00 19.68 20.00
66861 2022-08-13 04:16:54 Terrasse 21.30 22.09 99.90
66860 2022-08-13 03:59:45 Bahnzimmer 21.00 19.68 20.00
66859 2022-08-13 03:48:34 Terrasse 21.60 22.42 99.90
66858 2022-08-13 03:29:44 Bahnzimmer 21.00 19.68 20.00
66857 2022-08-13 03:20:15 Terrasse 21.80 22.64 99.90
66856 2022-08-13 02:59:44 Bahnzimmer 21.00 19.68 20.00
66855 2022-08-13 02:51:57 Terrasse 22.10 22.97 99.90
66854 2022-08-13 02:29:43 Bahnzimmer 21.00 19.68 20.00
66853 2022-08-13 02:23:38 Terrasse 22.40 23.30 99.90
66852 2022-08-13 01:59:42 Bahnzimmer 21.00 19.68 20.00
66851 2022-08-13 01:55:19 Terrasse 22.60 23.52 99.90
66850 2022-08-13 01:29:42 Bahnzimmer 21.00 19.68 20.00
66849 2022-08-13 01:27:00 Terrasse 22.80 23.74 99.90
66848 2022-08-13 00:59:41 Bahnzimmer 21.00 19.68 20.00
66847 2022-08-13 00:58:41 Terrasse 23.30 24.29 99.90
66846 2022-08-13 00:30:22 Terrasse 23.60 24.62 99.90
66845 2022-08-13 00:29:40 Bahnzimmer 21.00 19.68 20.00
66844 2022-08-13 00:02:02 Terrasse 23.90 24.95 99.90
66843 2022-08-12 23:59:40 Bahnzimmer 21.00 19.68 20.00
66842 2022-08-12 23:33:42 Terrasse 23.80 24.84 99.90
66841 2022-08-12 23:29:39 Bahnzimmer 21.00 19.68 20.00
66840 2022-08-12 23:05:23 Terrasse 24.10 25.17 99.90
66839 2022-08-12 22:59:38 Bahnzimmer 21.00 19.68 20.00
66838 2022-08-12 22:37:04 Terrasse 24.50 25.61 99.90
66837 2022-08-12 22:29:38 Bahnzimmer 21.00 19.68 20.00
66836 2022-08-12 22:08:44 Terrasse 24.90 26.05 99.90
66835 2022-08-12 21:59:37 Bahnzimmer 21.00 19.68 20.00
66834 2022-08-12 21:40:28 Terrasse 25.50 26.83 99.90
66833 2022-08-12 21:29:36 Bahnzimmer 21.00 19.68 20.00
66832 2022-08-12 21:12:11 Terrasse 26.10 28.74 99.90
66831 2022-08-12 20:59:36 Bahnzimmer 21.00 19.65 19.00
66830 2022-08-12 20:43:55 Terrasse 27.00 32.89 99.90
66829 2022-08-12 20:29:35 Bahnzimmer 21.00 19.68 20.00
66828 2022-08-12 20:15:39 Terrasse 27.90 35.99 99.90
66827 2022-08-12 19:59:34 Bahnzimmer 21.00 19.68 20.00
66826 2022-08-12 19:47:20 Terrasse 28.40 37.84 99.90
66825 2022-08-12 19:29:33 Bahnzimmer 21.00 19.68 20.00
66824 2022-08-12 19:19:00 Terrasse 28.80 39.38 99.90
66823 2022-08-12 18:59:33 Bahnzimmer 21.00 19.68 20.00
66822 2022-08-12 18:50:42 Terrasse 29.40 41.79 99.90
66821 2022-08-12 18:29:32 Bahnzimmer 21.00 19.65 19.00
66820 2022-08-12 18:22:23 Terrasse 29.80 43.46 99.90
66819 2022-08-12 17:59:31 Bahnzimmer 21.00 19.65 19.00
66818 2022-08-12 17:54:03 Terrasse 30.10 44.76 99.90
66817 2022-08-12 17:29:31 Bahnzimmer 21.00 19.65 19.00
66816 2022-08-12 17:25:42 Terrasse 30.30 45.64 99.90
66815 2022-08-12 16:59:30 Bahnzimmer 22.00 20.75 19.00
66814 2022-08-12 16:57:24 Terrasse 30.30 45.64 99.90
66813 2022-08-12 16:29:29 Bahnzimmer 22.00 20.75 19.00
66812 2022-08-12 16:29:07 Terrasse 31.30 50.47 99.90
66811 2022-08-12 16:00:46 Terrasse 31.60 52.00 99.90
66810 2022-08-12 15:59:29 Bahnzimmer 22.00 20.75 19.00
66809 2022-08-12 15:32:28 Terrasse 32.20 55.18 99.90
66808 2022-08-12 15:29:28 Bahnzimmer 22.00 20.75 19.00
66807 2022-08-12 15:18:13 Bahnzimmer 22.00 20.75 19.00
66806 2022-08-12 15:04:07 Terrasse 32.40 56.26 99.90
66805 2022-08-12 14:48:12 Bahnzimmer 22.00 20.75 19.00
66804 2022-08-12 14:35:51 Terrasse 32.70 57.91 99.90
66803 2022-08-12 14:18:12 Bahnzimmer 22.00 20.75 19.00
66802 2022-08-12 14:07:41 Terrasse 34.10 66.04 99.90
66801 2022-08-12 13:48:11 Bahnzimmer 22.00 20.75 19.00
66800 2022-08-12 13:39:25 Terrasse 35.40 74.19 99.90
66799 2022-08-12 13:18:10 Bahnzimmer 21.00 19.65 19.00
66798 2022-08-12 13:11:03 Terrasse 35.50 74.84 99.90
66797 2022-08-12 12:48:10 Bahnzimmer 21.00 19.65 19.00
66796 2022-08-12 12:42:03 Terrasse 31.40 50.98 99.90
66795 2022-08-12 12:18:09 Bahnzimmer 21.00 19.65 19.00
66794 2022-08-12 12:13:51 Terrasse 31.00 48.96 99.90
66793 2022-08-12 11:48:08 Bahnzimmer 21.00 19.65 19.00
66792 2022-08-12 11:45:26 Terrasse 30.30 45.64 99.90
66791 2022-08-12 11:18:08 Bahnzimmer 21.00 19.63 18.00
66790 2022-08-12 11:16:42 Terrasse 28.00 36.35 99.90
66789 2022-08-12 10:48:07 Bahnzimmer 21.00 19.63 18.00
66788 2022-08-12 10:48:05 Terrasse 26.00 28.41 99.90
66787 2022-08-12 10:19:37 Terrasse 24.80 25.94 99.90
66786 2022-08-12 10:18:06 Bahnzimmer 21.00 19.63 18.00
66785 2022-08-12 09:51:13 Terrasse 24.00 25.06 99.90
66784 2022-08-12 09:48:06 Bahnzimmer 21.00 19.63 18.00
66783 2022-08-12 09:22:47 Terrasse 23.40 24.40 99.90
66782 2022-08-12 09:18:04 Bahnzimmer 21.00 19.63 18.00
66781 2022-08-12 08:54:22 Terrasse 22.80 23.74 99.90
66780 2022-08-12 08:48:03 Bahnzimmer 21.00 19.65 19.00
66779 2022-08-12 08:25:58 Terrasse 22.10 22.97 99.90
66778 2022-08-12 08:18:03 Bahnzimmer 21.00 19.63 18.00
66777 2022-08-12 07:57:36 Terrasse 21.60 22.42 99.90
66776 2022-08-12 07:48:02 Bahnzimmer 21.00 19.63 18.00
66775 2022-08-12 07:29:15 Terrasse 21.40 22.20 99.90
66774 2022-08-12 07:18:01 Bahnzimmer 21.00 19.63 18.00
66773 2022-08-12 07:00:54 Terrasse 21.40 22.20 99.90
66772 2022-08-12 06:48:01 Bahnzimmer 21.00 19.63 18.00
66771 2022-08-12 06:32:36 Terrasse 21.50 22.31 99.90
66770 2022-08-12 06:17:58 Bahnzimmer 21.00 19.68 20.00
66769 2022-08-12 06:04:15 Terrasse 21.60 22.42 99.90
66768 2022-08-12 05:47:57 Bahnzimmer 21.00 19.68 20.00
66767 2022-08-12 05:35:56 Terrasse 21.90 22.75 99.90
66766 2022-08-12 05:17:57 Bahnzimmer 21.00 19.68 20.00
66765 2022-08-12 05:07:38 Terrasse 22.10 22.97 99.90
66764 2022-08-12 04:47:56 Bahnzimmer 21.00 19.68 20.00
66763 2022-08-12 04:39:21 Terrasse 22.60 23.52 99.90
66762 2022-08-12 04:17:55 Bahnzimmer 21.00 19.68 20.00
66761 2022-08-12 04:11:02 Terrasse 22.80 23.74 99.90
66760 2022-08-12 03:47:55 Bahnzimmer 21.00 19.68 20.00
66759 2022-08-12 03:42:43 Terrasse 23.10 24.07 99.90
66758 2022-08-12 03:17:54 Bahnzimmer 21.00 19.68 20.00
66757 2022-08-12 03:14:23 Terrasse 23.20 24.18 99.90
66756 2022-08-12 02:47:53 Bahnzimmer 21.00 19.68 20.00
66755 2022-08-12 02:46:06 Terrasse 23.50 24.51 99.90
66754 2022-08-12 02:17:53 Bahnzimmer 21.00 19.68 20.00
66753 2022-08-12 02:17:47 Terrasse 23.80 24.84 99.90
66752 2022-08-12 01:49:26 Terrasse 24.00 25.06 99.90
66751 2022-08-12 01:47:52 Bahnzimmer 21.00 19.68 20.00
66750 2022-08-12 01:21:06 Terrasse 24.30 25.39 99.90
66749 2022-08-12 01:17:51 Bahnzimmer 21.00 19.68 20.00
66748 2022-08-12 00:52:47 Terrasse 24.60 25.72 99.90
66747 2022-08-12 00:47:51 Bahnzimmer 21.00 19.68 20.00
66746 2022-08-12 00:24:29 Terrasse 25.00 25.34 99.90
66745 2022-08-12 00:17:50 Bahnzimmer 21.00 19.68 20.00
66744 2022-08-11 23:56:10 Terrasse 25.30 26.22 99.90
66743 2022-08-11 23:47:49 Bahnzimmer 21.00 19.68 20.00
66742 2022-08-11 23:27:52 Terrasse 25.70 27.45 99.90
66741 2022-08-11 23:17:49 Bahnzimmer 21.00 19.68 20.00
66740 2022-08-11 22:59:32 Terrasse 26.00 28.41 99.90
66739 2022-08-11 22:47:48 Bahnzimmer 21.00 19.68 20.00
66738 2022-08-11 22:31:11 Terrasse 26.20 29.07 99.90
66737 2022-08-11 22:17:47 Bahnzimmer 21.00 19.68 20.00
66736 2022-08-11 22:02:51 Terrasse 26.60 30.42 99.90
66735 2022-08-11 21:47:47 Bahnzimmer 21.00 19.68 20.00
66734 2022-08-11 21:34:32 Terrasse 26.90 32.56 99.90
66733 2022-08-11 21:17:46 Bahnzimmer 21.00 19.68 20.00
66732 2022-08-11 21:06:14 Terrasse 27.40 34.23 99.90
66731 2022-08-11 20:47:45 Bahnzimmer 21.00 19.68 20.00
66730 2022-08-11 20:37:56 Terrasse 27.90 35.99 99.90
66729 2022-08-11 20:17:45 Bahnzimmer 22.00 20.78 20.00
66728 2022-08-11 20:09:39 Terrasse 28.50 38.22 99.90
66727 2022-08-11 19:47:44 Bahnzimmer 22.00 20.78 20.00
66726 2022-08-11 19:41:20 Terrasse 29.10 40.57 99.90
66725 2022-08-11 19:17:43 Bahnzimmer 22.00 20.78 20.00
66724 2022-08-11 19:13:02 Terrasse 29.60 42.62 99.90
66723 2022-08-11 18:47:43 Bahnzimmer 22.00 20.78 20.00
66722 2022-08-11 18:44:42 Terrasse 29.90 43.89 99.90
66721 2022-08-11 18:17:42 Bahnzimmer 22.00 20.78 20.00
66720 2022-08-11 18:16:25 Terrasse 30.40 46.08 99.90
66719 2022-08-11 17:48:05 Terrasse 30.60 47.00 99.90
66718 2022-08-11 17:47:41 Bahnzimmer 22.00 20.78 20.00
66717 2022-08-11 17:19:45 Terrasse 31.00 48.96 99.90
66716 2022-08-11 17:17:40 Bahnzimmer 22.00 20.78 20.00
66715 2022-08-11 16:51:26 Terrasse 31.20 49.96 99.90
66714 2022-08-11 16:47:40 Bahnzimmer 22.00 20.78 20.00
66713 2022-08-11 16:23:06 Terrasse 31.50 51.49 99.90
66712 2022-08-11 16:17:39 Bahnzimmer 22.00 20.78 20.00
66711 2022-08-11 15:54:47 Terrasse 31.60 52.00 99.90
66710 2022-08-11 15:47:38 Bahnzimmer 22.00 20.78 20.00
66709 2022-08-11 15:26:28 Terrasse 32.20 55.18 99.90
66708 2022-08-11 15:17:38 Bahnzimmer 22.00 20.78 20.00
66707 2022-08-11 14:58:08 Terrasse 32.50 56.81 99.90
66706 2022-08-11 14:47:37 Bahnzimmer 22.00 20.78 20.00
66705 2022-08-11 14:29:57 Terrasse 33.00 59.60 99.90
66704 2022-08-11 14:17:36 Bahnzimmer 22.00 20.75 19.00
66703 2022-08-11 14:01:44 Terrasse 34.00 65.44 99.90
66702 2022-08-11 13:47:36 Bahnzimmer 22.00 20.75 19.00
66701 2022-08-11 13:33:28 Terrasse 35.20 72.90 99.90
66700 2022-08-11 13:17:35 Bahnzimmer 22.00 20.75 19.00
66699 2022-08-11 13:05:02 Terrasse 35.10 72.26 99.90
66698 2022-08-11 12:47:34 Bahnzimmer 22.00 20.75 19.00
66697 2022-08-11 12:36:12 Terrasse 30.90 48.46 99.90
66696 2022-08-11 12:17:34 Bahnzimmer 22.00 20.73 18.00
66695 2022-08-11 12:07:59 Terrasse 30.90 48.46 99.90
66694 2022-08-11 11:47:33 Bahnzimmer 22.00 20.73 18.00
66693 2022-08-11 11:39:33 Terrasse 29.90 43.89 99.90
66692 2022-08-11 11:17:32 Bahnzimmer 21.00 19.63 18.00
66691 2022-08-11 11:10:53 Terrasse 27.70 35.28 99.90
66690 2022-08-11 10:47:32 Bahnzimmer 21.00 19.65 19.00
66689 2022-08-11 10:42:19 Terrasse 26.00 28.41 99.90
66688 2022-08-11 10:17:31 Bahnzimmer 21.00 19.65 19.00
66687 2022-08-11 10:13:50 Terrasse 24.80 25.94 99.90
66686 2022-08-11 09:47:30 Bahnzimmer 21.00 19.65 19.00
66685 2022-08-11 09:45:24 Terrasse 23.90 24.95 99.90
66684 2022-08-11 09:17:30 Bahnzimmer 21.00 19.63 18.00
66683 2022-08-11 09:17:00 Terrasse 23.20 24.18 99.90
66682 2022-08-11 08:48:34 Terrasse 22.50 23.41 99.90
66681 2022-08-11 08:47:29 Bahnzimmer 21.00 19.63 18.00
66680 2022-08-11 08:20:11 Terrasse 21.90 22.75 99.90
66679 2022-08-11 08:17:28 Bahnzimmer 21.00 19.63 18.00
66678 2022-08-11 07:51:48 Terrasse 21.40 22.20 99.90
66677 2022-08-11 07:47:28 Bahnzimmer 21.00 19.63 18.00
66676 2022-08-11 07:23:26 Terrasse 21.20 21.98 99.90
66675 2022-08-11 07:17:27 Bahnzimmer 21.00 19.63 18.00
66674 2022-08-11 06:55:04 Terrasse 21.00 21.76 99.90
66673 2022-08-11 06:47:26 Bahnzimmer 21.00 19.63 18.00
66672 2022-08-11 06:26:44 Terrasse 20.80 21.54 99.90
66671 2022-08-11 06:17:25 Bahnzimmer 21.00 19.68 20.00
66670 2022-08-11 05:58:25 Terrasse 21.20 21.98 99.90
66669 2022-08-11 05:47:25 Bahnzimmer 21.00 19.68 20.00
66668 2022-08-11 05:30:06 Terrasse 21.30 22.09 99.90
66667 2022-08-11 05:17:24 Bahnzimmer 21.00 19.68 20.00
66666 2022-08-11 05:01:44 Terrasse 21.50 22.31 99.90
66665 2022-08-11 04:47:23 Bahnzimmer 21.00 19.68 20.00
66664 2022-08-11 04:33:26 Terrasse 21.60 22.42 99.90
66663 2022-08-11 04:17:23 Bahnzimmer 21.00 19.68 20.00
66662 2022-08-11 04:05:07 Terrasse 21.90 22.75 99.90
66661 2022-08-11 03:47:22 Bahnzimmer 21.00 19.68 20.00
66660 2022-08-11 03:36:48 Terrasse 22.20 23.08 99.90
66659 2022-08-11 03:17:21 Bahnzimmer 21.00 19.68 20.00
66658 2022-08-11 03:08:28 Terrasse 22.50 23.41 99.90
66657 2022-08-11 02:47:21 Bahnzimmer 21.00 19.68 20.00
66656 2022-08-11 02:40:09 Terrasse 22.80 23.74 99.90
66655 2022-08-11 02:17:20 Bahnzimmer 21.00 19.68 20.00
66654 2022-08-11 02:11:51 Terrasse 23.30 24.29 99.90
66653 2022-08-11 01:47:19 Bahnzimmer 21.00 19.68 20.00
66652 2022-08-11 01:43:31 Terrasse 23.60 24.62 99.90
66651 2022-08-11 01:17:19 Bahnzimmer 21.00 19.68 20.00
66650 2022-08-11 01:15:12 Terrasse 23.70 24.73 99.90
66649 2022-08-11 00:47:18 Bahnzimmer 21.00 19.68 20.00
66648 2022-08-11 00:46:53 Terrasse 24.10 25.17 99.90
66647 2022-08-11 00:18:33 Terrasse 24.30 25.39 99.90
66646 2022-08-11 00:17:17 Bahnzimmer 21.00 19.68 20.00
66645 2022-08-10 23:50:13 Terrasse 24.60 25.72 99.90
66644 2022-08-10 23:47:17 Bahnzimmer 21.00 19.68 20.00
66643 2022-08-10 23:21:54 Terrasse 24.80 25.94 99.90
66642 2022-08-10 23:17:16 Bahnzimmer 21.00 19.68 20.00
66641 2022-08-10 22:53:36 Terrasse 25.10 25.63 99.90
66640 2022-08-10 22:47:15 Bahnzimmer 21.00 19.68 20.00
66639 2022-08-10 22:25:19 Terrasse 25.40 26.53 99.90
66638 2022-08-10 22:17:15 Bahnzimmer 21.00 19.68 20.00
66637 2022-08-10 21:57:01 Terrasse 25.80 27.77 99.90
66636 2022-08-10 21:47:14 Bahnzimmer 21.00 19.68 20.00
66635 2022-08-10 21:28:42 Terrasse 26.10 28.74 99.90
66634 2022-08-10 21:17:13 Bahnzimmer 21.00 19.68 20.00
66633 2022-08-10 21:00:25 Terrasse 26.80 32.24 99.90
66632 2022-08-10 20:47:12 Bahnzimmer 22.00 20.78 20.00
66631 2022-08-10 20:32:08 Terrasse 27.40 34.23 99.90
66630 2022-08-10 20:17:12 Bahnzimmer 21.00 19.68 20.00
66629 2022-08-10 20:03:52 Terrasse 28.00 36.35 99.90
66628 2022-08-10 19:47:11 Bahnzimmer 21.00 19.68 20.00
66627 2022-08-10 19:35:34 Terrasse 28.60 38.60 99.90
66626 2022-08-10 19:17:10 Bahnzimmer 21.00 19.68 20.00
66625 2022-08-10 19:07:17 Terrasse 29.20 40.97 99.90
66624 2022-08-10 18:47:10 Bahnzimmer 21.00 19.68 20.00
66623 2022-08-10 18:39:00 Terrasse 29.60 42.62 99.90
66622 2022-08-10 18:17:09 Bahnzimmer 21.00 19.68 20.00
66621 2022-08-10 18:10:43 Terrasse 30.20 45.20 99.90
66620 2022-08-10 17:47:08 Bahnzimmer 21.00 19.68 20.00
66619 2022-08-10 17:42:24 Terrasse 30.60 47.00 99.90
66618 2022-08-10 17:17:08 Bahnzimmer 21.00 19.68 20.00
66617 2022-08-10 17:14:04 Terrasse 30.90 48.46 99.90
66616 2022-08-10 16:47:07 Bahnzimmer 21.00 19.68 20.00
66615 2022-08-10 16:45:44 Terrasse 31.10 49.46 99.90
66614 2022-08-10 16:17:23 Terrasse 31.20 49.96 99.90
66613 2022-08-10 16:17:06 Bahnzimmer 21.00 19.68 20.00
66612 2022-08-10 15:49:01 Terrasse 31.30 50.47 99.90
66611 2022-08-10 15:47:06 Bahnzimmer 21.00 19.68 20.00
66610 2022-08-10 15:20:42 Terrasse 31.80 53.05 99.90
66609 2022-08-10 15:17:05 Bahnzimmer 21.00 19.65 19.00
66608 2022-08-10 14:52:23 Terrasse 32.10 54.64 99.90
66607 2022-08-10 14:47:04 Bahnzimmer 21.00 19.68 20.00
66606 2022-08-10 14:24:07 Terrasse 32.70 57.91 99.90
66605 2022-08-10 14:17:04 Bahnzimmer 21.00 19.65 19.00
66604 2022-08-10 13:56:00 Terrasse 34.10 66.04 99.90
66603 2022-08-10 13:47:03 Bahnzimmer 21.00 19.65 19.00
66602 2022-08-10 13:27:45 Terrasse 35.60 75.50 99.90
66601 2022-08-10 13:17:02 Bahnzimmer 21.00 19.65 19.00
66600 2022-08-10 12:59:08 Terrasse 34.60 69.10 99.90
66599 2022-08-10 12:47:02 Bahnzimmer 21.00 19.65 19.00
66598 2022-08-10 12:30:31 Terrasse 31.10 49.46 99.90
66597 2022-08-10 12:17:01 Bahnzimmer 21.00 19.65 19.00
66596 2022-08-10 12:02:14 Terrasse 31.30 50.47 99.90
66595 2022-08-10 11:47:00 Bahnzimmer 21.00 19.65 19.00
66594 2022-08-10 11:33:43 Terrasse 29.70 43.04 99.90
66593 2022-08-10 11:16:59 Bahnzimmer 21.00 19.65 19.00
66592 2022-08-10 11:05:09 Terrasse 27.60 34.93 99.90
66591 2022-08-10 10:46:59 Bahnzimmer 21.00 19.65 19.00
66590 2022-08-10 10:36:35 Terrasse 25.70 27.45 99.90
66589 2022-08-10 10:16:58 Bahnzimmer 21.00 19.65 19.00
66588 2022-08-10 10:08:07 Terrasse 24.50 25.61 99.90
66587 2022-08-10 09:46:57 Bahnzimmer 21.00 19.63 18.00
66586 2022-08-10 09:39:43 Terrasse 23.90 24.95 99.90
66585 2022-08-10 09:16:57 Bahnzimmer 21.00 19.63 18.00
66584 2022-08-10 09:11:17 Terrasse 23.30 24.29 99.90
66583 2022-08-10 08:46:56 Bahnzimmer 21.00 19.63 18.00
66582 2022-08-10 08:42:51 Terrasse 22.50 23.41 99.90
66581 2022-08-10 08:16:55 Bahnzimmer 21.00 19.63 18.00
66580 2022-08-10 08:14:29 Terrasse 22.00 22.86 99.90
66579 2022-08-10 07:46:55 Bahnzimmer 21.00 19.63 18.00
66578 2022-08-10 07:46:08 Terrasse 21.70 22.53 99.90
66577 2022-08-10 07:17:48 Terrasse 21.50 22.31 99.90
66576 2022-08-10 07:16:54 Bahnzimmer 21.00 19.63 18.00
66575 2022-08-10 06:49:28 Terrasse 21.40 22.20 99.90
66574 2022-08-10 06:46:53 Bahnzimmer 21.00 19.68 20.00
66573 2022-08-10 06:21:09 Terrasse 21.60 22.42 99.90
66572 2022-08-10 06:16:53 Bahnzimmer 21.00 19.68 20.00
66571 2022-08-10 05:52:51 Terrasse 21.80 22.64 99.90
66570 2022-08-10 05:46:52 Bahnzimmer 21.00 19.68 20.00
66569 2022-08-10 05:24:34 Terrasse 21.90 22.75 99.90
66568 2022-08-10 05:16:51 Bahnzimmer 21.00 19.68 20.00
66567 2022-08-10 04:56:15 Terrasse 22.10 22.97 99.90
66566 2022-08-10 04:46:50 Bahnzimmer 21.00 19.68 20.00
66565 2022-08-10 04:27:56 Terrasse 22.30 23.19 99.90
66564 2022-08-10 04:16:50 Bahnzimmer 21.00 19.68 20.00
66563 2022-08-10 03:59:36 Terrasse 22.50 23.41 99.90
66562 2022-08-10 03:46:49 Bahnzimmer 21.00 19.68 20.00
66561 2022-08-10 03:31:17 Terrasse 22.70 23.63 99.90
66560 2022-08-10 03:16:48 Bahnzimmer 21.00 19.68 20.00
66559 2022-08-10 03:02:58 Terrasse 22.90 23.85 99.90
66558 2022-08-10 02:46:48 Bahnzimmer 21.00 19.68 20.00
66557 2022-08-10 02:34:38 Terrasse 23.00 23.96 99.90
66556 2022-08-10 02:16:47 Bahnzimmer 21.00 19.68 20.00
66555 2022-08-10 02:06:19 Terrasse 23.20 24.18 99.90
66554 2022-08-10 01:46:46 Bahnzimmer 21.00 19.68 20.00
66553 2022-08-10 01:38:10 Terrasse 23.50 24.51 99.90
66552 2022-08-10 01:16:46 Bahnzimmer 21.00 19.68 20.00
66551 2022-08-10 01:09:49 Terrasse 23.70 24.73 99.90
66550 2022-08-10 00:46:45 Bahnzimmer 21.00 19.68 20.00
66549 2022-08-10 00:41:29 Terrasse 23.90 24.95 99.90
66548 2022-08-10 00:16:44 Bahnzimmer 21.00 19.68 20.00
66547 2022-08-10 00:13:10 Terrasse 24.30 25.39 99.90
66546 2022-08-09 23:46:43 Bahnzimmer 21.00 19.68 20.00
66545 2022-08-09 23:44:50 Terrasse 24.50 25.61 99.90
66544 2022-08-09 23:16:43 Bahnzimmer 21.00 19.68 20.00
66543 2022-08-09 23:16:30 Terrasse 24.70 25.83 99.90
66542 2022-08-09 22:48:11 Terrasse 25.00 25.34 99.90
66541 2022-08-09 22:46:42 Bahnzimmer 21.00 19.68 20.00
66540 2022-08-09 22:19:52 Terrasse 25.30 26.22 99.90
66539 2022-08-09 22:16:41 Bahnzimmer 21.00 19.68 20.00
66538 2022-08-09 21:51:33 Terrasse 25.70 27.45 99.90
66537 2022-08-09 21:46:41 Bahnzimmer 21.00 19.68 20.00
66536 2022-08-09 21:23:14 Terrasse 26.00 28.41 99.90
66535 2022-08-09 21:16:40 Bahnzimmer 21.00 19.68 20.00
66534 2022-08-09 20:54:58 Terrasse 26.40 29.74 99.90
66533 2022-08-09 20:46:39 Bahnzimmer 21.00 19.68 20.00
66532 2022-08-09 20:26:40 Terrasse 27.20 33.55 99.90
66531 2022-08-09 20:16:39 Bahnzimmer 21.00 19.68 20.00
66530 2022-08-09 19:58:22 Terrasse 27.80 35.63 99.90
66529 2022-08-09 19:46:38 Bahnzimmer 21.00 19.68 20.00
66528 2022-08-09 19:30:06 Terrasse 28.50 38.22 99.90
66527 2022-08-09 19:16:37 Bahnzimmer 21.00 19.68 20.00
66526 2022-08-09 19:01:51 Terrasse 29.00 40.17 99.90
66525 2022-08-09 18:46:37 Bahnzimmer 21.00 19.68 20.00
66524 2022-08-09 18:33:31 Terrasse 29.40 41.79 99.90
66523 2022-08-09 18:16:36 Bahnzimmer 21.00 19.68 20.00
66522 2022-08-09 18:05:13 Terrasse 29.70 43.04 99.90
66521 2022-08-09 17:46:35 Bahnzimmer 21.00 19.68 20.00
66520 2022-08-09 17:36:54 Terrasse 30.20 45.20 99.90
66519 2022-08-09 17:16:35 Bahnzimmer 21.00 19.68 20.00
66518 2022-08-09 17:08:36 Terrasse 30.50 46.53 99.90
66517 2022-08-09 16:46:34 Bahnzimmer 21.00 19.68 20.00
66516 2022-08-09 16:40:12 Terrasse 30.40 46.08 99.90
66515 2022-08-09 16:16:33 Bahnzimmer 21.00 19.68 20.00
66514 2022-08-09 16:11:56 Terrasse 31.40 50.98 99.90
66513 2022-08-09 15:46:33 Bahnzimmer 21.00 19.65 19.00
66512 2022-08-09 15:43:35 Terrasse 31.40 50.98 99.90
66511 2022-08-09 15:16:30 Bahnzimmer 21.00 19.65 19.00
66510 2022-08-09 15:15:19 Terrasse 31.90 53.57 99.90
66509 2022-08-09 14:47:00 Terrasse 32.00 54.10 99.90
66508 2022-08-09 14:46:29 Bahnzimmer 21.00 19.65 19.00
66507 2022-08-09 14:18:51 Terrasse 33.20 60.74 99.90
66506 2022-08-09 14:16:29 Bahnzimmer 21.00 19.65 19.00
66505 2022-08-09 13:50:45 Terrasse 34.60 69.10 99.90
66504 2022-08-09 13:46:28 Bahnzimmer 21.00 19.63 18.00
66503 2022-08-09 13:22:23 Terrasse 36.20 79.50 99.90
66502 2022-08-09 13:16:26 Bahnzimmer 21.00 19.63 18.00
66501 2022-08-09 12:53:35 Terrasse 33.10 60.17 99.90
66500 2022-08-09 12:46:25 Bahnzimmer 21.00 19.63 18.00
66499 2022-08-09 12:25:12 Terrasse 30.70 47.48 99.90
66498 2022-08-09 12:16:25 Bahnzimmer 21.00 19.63 18.00
66497 2022-08-09 11:56:53 Terrasse 30.50 46.53 99.90
66496 2022-08-09 11:46:24 Bahnzimmer 21.00 19.63 18.00
66495 2022-08-09 11:28:22 Terrasse 28.90 39.77 99.90
66494 2022-08-09 11:16:23 Bahnzimmer 21.00 19.63 18.00
66493 2022-08-09 10:59:43 Terrasse 26.80 32.24 99.90
66492 2022-08-09 10:46:19 Bahnzimmer 21.00 19.63 18.00
66491 2022-08-09 10:31:12 Terrasse 25.20 25.93 99.90
66490 2022-08-09 10:16:19 Bahnzimmer 21.00 19.63 18.00
66489 2022-08-09 10:02:46 Terrasse 24.30 25.39 99.90
66488 2022-08-09 09:46:18 Bahnzimmer 21.00 19.63 18.00
66487 2022-08-09 09:34:22 Terrasse 23.50 24.51 99.90
66486 2022-08-09 09:16:17 Bahnzimmer 21.00 19.63 18.00
66485 2022-08-09 09:05:59 Terrasse 22.60 23.52 99.90
66484 2022-08-09 08:46:17 Bahnzimmer 21.00 19.63 18.00
66483 2022-08-09 08:37:45 Terrasse 22.10 22.97 99.90
66482 2022-08-09 08:16:16 Bahnzimmer 21.00 19.63 18.00
66481 2022-08-09 08:09:35 Terrasse 21.70 22.53 99.90
66480 2022-08-09 07:46:15 Bahnzimmer 21.00 19.63 18.00
66479 2022-08-09 07:41:21 Terrasse 21.40 22.20 99.90
66478 2022-08-09 07:16:15 Bahnzimmer 21.00 19.63 18.00
66477 2022-08-09 07:12:39 Terrasse 21.30 22.09 99.90
66476 2022-08-09 06:44:16 Terrasse 21.30 22.09 99.90
66475 2022-08-09 06:16:09 Bahnzimmer 21.00 19.68 20.00
66474 2022-08-09 06:15:55 Terrasse 21.40 22.20 99.90
66473 2022-08-09 05:47:36 Terrasse 21.50 22.31 99.90
66472 2022-08-09 05:46:08 Bahnzimmer 21.00 19.68 20.00
66471 2022-08-09 05:19:16 Terrasse 21.60 22.42 99.90
66470 2022-08-09 05:16:07 Bahnzimmer 21.00 19.68 20.00
66469 2022-08-09 04:50:57 Terrasse 21.80 22.64 99.90
66468 2022-08-09 04:46:07 Bahnzimmer 21.00 19.68 20.00
66467 2022-08-09 04:22:37 Terrasse 21.90 22.75 99.90
66466 2022-08-09 04:16:06 Bahnzimmer 21.00 19.68 20.00
66465 2022-08-09 03:54:16 Terrasse 21.90 22.75 99.90
66464 2022-08-09 03:46:05 Bahnzimmer 21.00 19.68 20.00
66463 2022-08-09 03:25:56 Terrasse 22.00 22.86 99.90
66462 2022-08-09 03:16:05 Bahnzimmer 21.00 19.68 20.00
66461 2022-08-09 02:57:37 Terrasse 22.30 23.19 99.90
66460 2022-08-09 02:46:04 Bahnzimmer 21.00 19.68 20.00
66459 2022-08-09 02:29:18 Terrasse 22.40 23.30 99.90
66458 2022-08-09 02:16:03 Bahnzimmer 21.00 19.68 20.00
66457 2022-08-09 02:01:00 Terrasse 22.60 23.52 99.90
66456 2022-08-09 01:46:02 Bahnzimmer 21.00 19.68 20.00
66455 2022-08-09 01:32:41 Terrasse 22.80 23.74 99.90
66454 2022-08-09 01:16:02 Bahnzimmer 21.00 19.68 20.00
66453 2022-08-09 01:04:21 Terrasse 23.00 23.96 99.90
66452 2022-08-09 00:46:01 Bahnzimmer 21.00 19.68 20.00
66451 2022-08-09 00:36:01 Terrasse 23.30 24.29 99.90
66450 2022-08-09 00:16:00 Bahnzimmer 21.00 19.68 20.00
66449 2022-08-09 00:07:42 Terrasse 23.50 24.51 99.90
66448 2022-08-08 23:46:00 Bahnzimmer 21.00 19.68 20.00
66447 2022-08-08 23:39:23 Terrasse 23.80 24.84 99.90
66446 2022-08-08 23:15:59 Bahnzimmer 21.00 19.68 20.00
66445 2022-08-08 23:11:05 Terrasse 24.00 25.06 99.90
66444 2022-08-08 22:45:58 Bahnzimmer 21.00 19.68 20.00
66443 2022-08-08 22:42:50 Terrasse 24.40 25.50 99.90
66442 2022-08-08 22:15:58 Bahnzimmer 21.00 19.68 20.00
66441 2022-08-08 22:14:30 Terrasse 24.80 25.94 99.90
66440 2022-08-08 21:46:11 Terrasse 25.10 25.63 99.90
66439 2022-08-08 21:45:57 Bahnzimmer 21.00 19.65 19.00
66438 2022-08-08 21:17:53 Terrasse 25.50 26.83 99.90
66437 2022-08-08 21:15:56 Bahnzimmer 21.00 19.65 19.00
66436 2022-08-08 20:49:36 Terrasse 26.10 28.74 99.90
66435 2022-08-08 20:45:56 Bahnzimmer 21.00 19.65 19.00
66434 2022-08-08 20:21:20 Terrasse 26.80 32.24 99.90
66433 2022-08-08 20:15:55 Bahnzimmer 21.00 19.68 20.00
66432 2022-08-08 19:53:02 Terrasse 27.40 34.23 99.90
66431 2022-08-08 19:45:54 Bahnzimmer 21.00 19.68 20.00
66430 2022-08-08 19:24:45 Terrasse 27.90 35.99 99.90
66429 2022-08-08 19:15:54 Bahnzimmer 21.00 19.68 20.00
66428 2022-08-08 18:56:28 Terrasse 28.50 38.22 99.90
66427 2022-08-08 18:45:53 Bahnzimmer 21.00 19.68 20.00
66426 2022-08-08 18:28:10 Terrasse 29.00 40.17 99.90
66425 2022-08-08 18:15:52 Bahnzimmer 21.00 19.68 20.00
66424 2022-08-08 17:59:51 Terrasse 29.50 42.20 99.90
66423 2022-08-08 17:45:52 Bahnzimmer 21.00 19.65 19.00
66422 2022-08-08 17:31:32 Terrasse 29.80 43.46 99.90
66421 2022-08-08 17:15:51 Bahnzimmer 21.00 19.65 19.00
66420 2022-08-08 17:03:13 Terrasse 30.10 44.76 99.90
66419 2022-08-08 16:45:50 Bahnzimmer 21.00 19.65 19.00
66418 2022-08-08 16:34:56 Terrasse 30.80 47.97 99.90
66417 2022-08-08 16:15:50 Bahnzimmer 21.00 19.65 19.00
66416 2022-08-08 16:06:36 Terrasse 30.80 47.97 99.90
66415 2022-08-08 15:45:49 Bahnzimmer 21.00 19.65 19.00
66414 2022-08-08 15:38:17 Terrasse 31.40 50.98 99.90
66413 2022-08-08 15:15:48 Bahnzimmer 21.00 19.65 19.00
66412 2022-08-08 15:09:56 Terrasse 31.30 50.47 99.90
66411 2022-08-08 14:45:47 Bahnzimmer 21.00 19.65 19.00
66410 2022-08-08 14:41:40 Terrasse 31.70 52.52 99.90
66409 2022-08-08 14:15:47 Bahnzimmer 21.00 19.63 18.00
66408 2022-08-08 14:13:29 Terrasse 32.70 57.91 99.90
66407 2022-08-08 13:45:46 Bahnzimmer 21.00 19.63 18.00
66406 2022-08-08 13:45:20 Terrasse 34.30 67.25 99.90
66405 2022-08-08 13:17:02 Terrasse 35.10 72.26 99.90
66404 2022-08-08 13:15:45 Bahnzimmer 21.00 19.65 19.00
66403 2022-08-08 12:48:17 Terrasse 31.50 51.49 99.90
66402 2022-08-08 12:45:45 Bahnzimmer 21.00 19.65 19.00
66401 2022-08-08 12:19:56 Terrasse 30.00 44.32 99.90
66400 2022-08-08 12:15:44 Bahnzimmer 21.00 19.65 19.00
66399 2022-08-08 11:51:36 Terrasse 29.90 43.89 99.90
66398 2022-08-08 11:45:43 Bahnzimmer 21.00 19.63 18.00
66397 2022-08-08 11:22:57 Terrasse 27.80 35.63 99.90
66396 2022-08-08 11:15:42 Bahnzimmer 21.00 19.63 18.00
66395 2022-08-08 10:54:16 Terrasse 25.70 27.45 99.90
66394 2022-08-08 10:45:42 Bahnzimmer 21.00 19.63 18.00
66393 2022-08-08 10:25:48 Terrasse 24.10 25.17 99.90
66392 2022-08-08 10:15:41 Bahnzimmer 21.00 19.63 18.00
66391 2022-08-08 09:57:21 Terrasse 23.00 23.96 99.90
66390 2022-08-08 09:45:40 Bahnzimmer 20.00 18.55 19.00
66389 2022-08-08 09:28:55 Terrasse 22.10 22.97 99.90
66388 2022-08-08 09:15:40 Bahnzimmer 20.00 18.55 19.00
66387 2022-08-08 09:00:29 Terrasse 21.10 21.87 99.90
66386 2022-08-08 08:45:39 Bahnzimmer 20.00 18.55 19.00
66385 2022-08-08 08:32:03 Terrasse 20.00 20.66 99.90
66384 2022-08-08 08:15:38 Bahnzimmer 19.00 17.45 19.00
66383 2022-08-08 08:03:40 Terrasse 19.40 20.00 99.90
66382 2022-08-08 07:45:38 Bahnzimmer 19.00 17.45 19.00
66381 2022-08-08 07:35:18 Terrasse 19.00 19.56 99.90
66380 2022-08-08 07:15:37 Bahnzimmer 19.00 17.45 19.00
66379 2022-08-08 07:06:58 Terrasse 18.50 19.01 99.90
66378 2022-08-08 06:45:36 Bahnzimmer 20.00 18.55 19.00
66377 2022-08-08 06:38:40 Terrasse 18.70 19.23 99.90
66376 2022-08-08 06:15:36 Bahnzimmer 21.00 19.68 20.00
66375 2022-08-08 06:10:24 Terrasse 19.30 19.89 99.90
66374 2022-08-08 05:45:35 Bahnzimmer 21.00 19.68 20.00
66373 2022-08-08 05:42:05 Terrasse 19.60 20.22 99.90
66372 2022-08-08 05:15:34 Bahnzimmer 21.00 19.68 20.00
66371 2022-08-08 05:13:44 Terrasse 19.50 20.11 99.90
66370 2022-08-08 04:45:34 Bahnzimmer 21.00 19.68 20.00
66369 2022-08-08 04:45:25 Terrasse 19.70 20.33 99.90
66368 2022-08-08 04:17:06 Terrasse 20.00 20.66 99.90
66367 2022-08-08 04:15:33 Bahnzimmer 21.00 19.68 20.00
66366 2022-08-08 03:48:46 Terrasse 20.20 20.88 99.90
66365 2022-08-08 03:45:32 Bahnzimmer 21.00 19.68 20.00
66364 2022-08-08 03:20:25 Terrasse 20.30 20.99 99.90
66363 2022-08-08 03:15:32 Bahnzimmer 21.00 19.68 20.00
66362 2022-08-08 02:52:08 Terrasse 20.70 21.43 99.90
66361 2022-08-08 02:45:31 Bahnzimmer 21.00 19.68 20.00
66360 2022-08-08 02:23:49 Terrasse 21.00 21.76 99.90
66359 2022-08-08 02:15:30 Bahnzimmer 21.00 19.68 20.00
66358 2022-08-08 01:55:29 Terrasse 21.30 22.09 99.90
66357 2022-08-08 01:45:30 Bahnzimmer 21.00 19.68 20.00
66356 2022-08-08 01:27:08 Terrasse 21.40 22.20 99.90
66355 2022-08-08 01:15:29 Bahnzimmer 21.00 19.68 20.00
66354 2022-08-08 00:58:49 Terrasse 21.50 22.31 99.90
66353 2022-08-08 00:45:28 Bahnzimmer 21.00 19.68 20.00
66352 2022-08-08 00:30:29 Terrasse 21.70 22.53 99.90
66351 2022-08-08 00:15:28 Bahnzimmer 21.00 19.68 20.00
66350 2022-08-08 00:02:15 Terrasse 21.90 22.75 99.90
66349 2022-08-07 23:45:26 Bahnzimmer 21.00 19.68 20.00
66348 2022-08-07 23:34:04 Terrasse 22.10 22.97 99.90
66347 2022-08-07 23:15:23 Bahnzimmer 21.00 19.68 20.00
66346 2022-08-07 23:05:45 Terrasse 22.30 23.19 99.90
66345 2022-08-07 22:45:23 Bahnzimmer 21.00 19.68 20.00
66344 2022-08-07 22:37:25 Terrasse 22.60 23.52 99.90
66343 2022-08-07 22:15:22 Bahnzimmer 21.00 19.68 20.00
66342 2022-08-07 22:09:06 Terrasse 22.80 23.74 99.90
66341 2022-08-07 21:45:21 Bahnzimmer 21.00 19.68 20.00
66340 2022-08-07 21:40:45 Terrasse 22.60 23.52 99.90
66339 2022-08-07 21:15:21 Bahnzimmer 21.00 19.68 20.00
66338 2022-08-07 21:12:30 Terrasse 23.30 24.29 99.90
66337 2022-08-07 20:45:20 Bahnzimmer 21.00 19.68 20.00
66336 2022-08-07 20:44:15 Terrasse 24.10 25.17 99.90
66335 2022-08-07 20:15:58 Terrasse 24.90 26.05 99.90
66334 2022-08-07 20:15:19 Bahnzimmer 21.00 19.68 20.00
66333 2022-08-07 19:47:39 Terrasse 25.50 26.83 99.90
66332 2022-08-07 19:45:19 Bahnzimmer 21.00 19.68 20.00
66331 2022-08-07 19:19:22 Terrasse 26.00 28.41 99.90
66330 2022-08-07 19:15:18 Bahnzimmer 21.00 19.68 20.00
66329 2022-08-07 18:51:04 Terrasse 26.60 30.42 99.90
66328 2022-08-07 18:45:17 Bahnzimmer 21.00 19.68 20.00
66327 2022-08-07 18:22:47 Terrasse 27.20 33.55 99.90
66326 2022-08-07 18:15:17 Bahnzimmer 21.00 19.68 20.00
66325 2022-08-07 17:54:28 Terrasse 27.60 34.93 99.90
66324 2022-08-07 17:45:16 Bahnzimmer 21.00 19.65 19.00
66323 2022-08-07 17:26:11 Terrasse 28.30 37.46 99.90
66322 2022-08-07 17:15:15 Bahnzimmer 21.00 19.65 19.00
66321 2022-08-07 16:57:51 Terrasse 28.60 38.60 99.90
66320 2022-08-07 16:45:15 Bahnzimmer 21.00 19.65 19.00
66319 2022-08-07 16:29:31 Terrasse 29.00 40.17 99.90
66318 2022-08-07 16:15:14 Bahnzimmer 21.00 19.65 19.00
66317 2022-08-07 16:01:10 Terrasse 29.10 40.57 99.90
66316 2022-08-07 15:45:13 Bahnzimmer 21.00 19.65 19.00
66315 2022-08-07 15:32:51 Terrasse 29.50 42.20 99.90
66314 2022-08-07 15:15:13 Bahnzimmer 20.00 18.58 20.00
66313 2022-08-07 15:04:32 Terrasse 29.60 42.62 99.90
66312 2022-08-07 14:45:12 Bahnzimmer 20.00 18.58 20.00
66311 2022-08-07 14:36:15 Terrasse 30.10 44.76 99.90
66310 2022-08-07 14:15:11 Bahnzimmer 20.00 18.58 20.00
66309 2022-08-07 14:08:04 Terrasse 31.10 49.46 99.90
66308 2022-08-07 13:45:11 Bahnzimmer 20.00 18.58 20.00
66307 2022-08-07 13:39:49 Terrasse 32.70 57.91 99.90
66306 2022-08-07 13:15:10 Bahnzimmer 20.00 18.58 20.00
66305 2022-08-07 13:11:29 Terrasse 32.80 58.47 99.90
66304 2022-08-07 12:45:09 Bahnzimmer 20.00 18.55 19.00
66303 2022-08-07 12:42:31 Terrasse 28.50 38.22 99.90
66302 2022-08-07 12:15:09 Bahnzimmer 20.00 18.55 19.00
66301 2022-08-07 12:14:16 Terrasse 28.00 36.35 99.90
66300 2022-08-07 11:45:53 Terrasse 27.20 33.55 99.90
66299 2022-08-07 11:45:08 Bahnzimmer 20.00 18.55 19.00
66298 2022-08-07 11:17:16 Terrasse 25.30 26.22 99.90
66297 2022-08-07 11:15:07 Bahnzimmer 20.00 18.55 19.00
66296 2022-08-07 10:48:34 Terrasse 23.10 24.07 99.90
66295 2022-08-07 10:45:07 Bahnzimmer 20.00 18.55 19.00
66294 2022-08-07 10:20:05 Terrasse 21.60 22.42 99.90
66293 2022-08-07 10:15:06 Bahnzimmer 20.00 18.55 19.00
66292 2022-08-07 09:51:43 Terrasse 20.60 21.32 99.90
66291 2022-08-07 09:45:05 Bahnzimmer 20.00 18.55 19.00
66290 2022-08-07 09:23:18 Terrasse 19.90 20.55 99.90
66289 2022-08-07 09:15:04 Bahnzimmer 19.00 17.45 19.00
66288 2022-08-07 08:54:54 Terrasse 19.00 19.56 99.90
66287 2022-08-07 08:45:04 Bahnzimmer 20.00 18.55 19.00
66286 2022-08-07 08:26:30 Terrasse 18.40 18.90 99.90
66285 2022-08-07 08:15:03 Bahnzimmer 21.00 19.68 20.00
66284 2022-08-07 07:58:09 Terrasse 17.90 18.35 99.90
66283 2022-08-07 07:45:02 Bahnzimmer 21.00 19.68 20.00
66282 2022-08-07 07:29:47 Terrasse 17.60 18.02 99.90
66281 2022-08-07 07:15:02 Bahnzimmer 21.00 19.68 20.00
66280 2022-08-07 07:01:28 Terrasse 17.50 17.91 99.90
66279 2022-08-07 06:45:01 Bahnzimmer 21.00 19.68 20.00
66278 2022-08-07 06:33:08 Terrasse 17.50 17.91 99.90
66277 2022-08-07 06:15:00 Bahnzimmer 21.00 19.68 20.00
66276 2022-08-07 06:04:49 Terrasse 17.60 18.02 99.90
66275 2022-08-07 05:45:00 Bahnzimmer 21.00 19.68 20.00
66274 2022-08-07 05:36:28 Terrasse 17.60 18.02 99.90
66273 2022-08-07 05:14:59 Bahnzimmer 21.00 19.68 20.00
66272 2022-08-07 05:08:06 Terrasse 17.60 18.02 99.90
66271 2022-08-07 04:44:58 Bahnzimmer 21.00 19.68 20.00
66270 2022-08-07 04:39:47 Terrasse 17.90 18.35 99.90
66269 2022-08-07 04:14:58 Bahnzimmer 21.00 19.68 20.00
66268 2022-08-07 04:11:29 Terrasse 18.10 18.57 99.90
66267 2022-08-07 03:44:57 Bahnzimmer 21.00 19.68 20.00
66266 2022-08-07 03:43:09 Terrasse 18.20 18.68 99.90
66265 2022-08-07 03:14:56 Bahnzimmer 21.00 19.68 20.00
66264 2022-08-07 03:14:49 Terrasse 18.40 18.90 99.90
66263 2022-08-07 02:46:29 Terrasse 18.50 19.01 99.90
66262 2022-08-07 02:44:56 Bahnzimmer 21.00 19.68 20.00
66261 2022-08-07 02:18:09 Terrasse 18.70 19.23 99.90
66260 2022-08-07 02:14:55 Bahnzimmer 21.00 19.68 20.00
66259 2022-08-07 01:49:49 Terrasse 18.70 19.23 99.90
66258 2022-08-07 01:44:54 Bahnzimmer 21.00 19.68 20.00
66257 2022-08-07 01:21:30 Terrasse 19.00 19.56 99.90
66256 2022-08-07 01:14:54 Bahnzimmer 21.00 19.68 20.00
66255 2022-08-07 00:53:10 Terrasse 19.00 19.56 99.90
66254 2022-08-07 00:44:53 Bahnzimmer 21.00 19.68 20.00
66253 2022-08-07 00:24:51 Terrasse 19.30 19.89 99.90
66252 2022-08-07 00:14:52 Bahnzimmer 21.00 19.68 20.00
66251 2022-08-06 23:44:52 Bahnzimmer 21.00 19.68 20.00
66250 2022-08-06 23:14:51 Bahnzimmer 21.00 19.68 20.00
66249 2022-08-06 22:54:46 Terrasse 20.00 20.66 99.90
66248 2022-08-06 22:44:50 Bahnzimmer 21.00 19.68 20.00
66247 2022-08-06 22:26:25 Terrasse 20.30 20.99 99.90
66246 2022-08-06 22:14:50 Bahnzimmer 21.00 19.68 20.00
66245 2022-08-06 21:58:07 Terrasse 20.80 21.54 99.90
66244 2022-08-06 21:44:49 Bahnzimmer 21.00 19.68 20.00
66243 2022-08-06 21:29:49 Terrasse 21.00 21.76 99.90
66242 2022-08-06 21:14:48 Bahnzimmer 21.00 19.68 20.00
66241 2022-08-06 21:01:34 Terrasse 21.60 22.42 99.90
66240 2022-08-06 20:44:48 Bahnzimmer 21.00 19.68 20.00
66239 2022-08-06 20:33:16 Terrasse 22.30 23.19 99.90
66238 2022-08-06 20:14:47 Bahnzimmer 21.00 19.68 20.00
66237 2022-08-06 20:05:09 Terrasse 22.80 23.74 99.90
66236 2022-08-06 19:44:46 Bahnzimmer 21.00 19.68 20.00
66235 2022-08-06 19:36:59 Terrasse 23.40 24.40 99.90
66234 2022-08-06 19:14:46 Bahnzimmer 21.00 19.68 20.00
66233 2022-08-06 19:08:37 Terrasse 23.70 24.73 99.90
66232 2022-08-06 18:44:45 Bahnzimmer 21.00 19.68 20.00
66231 2022-08-06 18:40:22 Terrasse 24.30 25.39 99.90
66230 2022-08-06 18:14:44 Bahnzimmer 21.00 19.68 20.00
66229 2022-08-06 18:12:05 Terrasse 24.90 26.05 99.90
66228 2022-08-06 17:44:44 Bahnzimmer 21.00 19.68 20.00
66227 2022-08-06 17:43:47 Terrasse 25.30 26.22 99.90
66226 2022-08-06 17:15:30 Terrasse 25.80 27.77 99.90
66225 2022-08-06 17:14:43 Bahnzimmer 21.00 19.68 20.00
66224 2022-08-06 16:47:11 Terrasse 26.20 29.07 99.90
66223 2022-08-06 16:44:42 Bahnzimmer 21.00 19.68 20.00
66222 2022-08-06 16:18:53 Terrasse 26.70 31.92 99.90
66221 2022-08-06 16:14:42 Bahnzimmer 21.00 19.68 20.00
66220 2022-08-06 15:50:33 Terrasse 27.10 33.22 99.90
66219 2022-08-06 15:44:41 Bahnzimmer 21.00 19.68 20.00
66218 2022-08-06 15:22:17 Terrasse 27.70 35.28 99.90
66217 2022-08-06 15:14:40 Bahnzimmer 21.00 19.68 20.00
66216 2022-08-06 14:54:06 Terrasse 27.70 35.28 99.90
66215 2022-08-06 14:44:40 Bahnzimmer 21.00 19.68 20.00
66214 2022-08-06 14:25:49 Terrasse 28.30 37.46 99.90
66213 2022-08-06 14:14:39 Bahnzimmer 21.00 19.68 20.00
66212 2022-08-06 13:57:36 Terrasse 29.00 40.17 99.90
66211 2022-08-06 13:44:38 Bahnzimmer 21.00 19.68 20.00
66210 2022-08-06 13:29:20 Terrasse 30.70 47.48 99.90
66209 2022-08-06 13:14:38 Bahnzimmer 21.00 19.68 20.00
66208 2022-08-06 13:00:42 Terrasse 29.70 27.03 1.00
66207 2022-08-06 12:44:37 Bahnzimmer 20.00 18.60 21.00
66206 2022-08-06 12:32:05 Terrasse 25.90 24.57 1.00
66205 2022-08-06 12:14:36 Bahnzimmer 21.00 19.68 20.00
66204 2022-08-06 12:03:49 Terrasse 26.50 25.23 1.00
66203 2022-08-06 11:44:36 Bahnzimmer 20.00 18.58 20.00
66202 2022-08-06 11:35:20 Terrasse 25.20 23.80 1.00
66201 2022-08-06 11:14:35 Bahnzimmer 20.00 18.58 20.00
66200 2022-08-06 11:06:53 Terrasse 22.50 20.83 1.00
66199 2022-08-06 10:44:34 Bahnzimmer 19.00 17.48 20.00
66198 2022-08-06 10:38:20 Terrasse 20.50 19.68 41.10
66197 2022-08-06 10:14:34 Bahnzimmer 20.00 18.58 20.00
66196 2022-08-06 10:09:55 Terrasse 19.50 20.03 96.80
66195 2022-08-06 09:44:33 Bahnzimmer 19.00 17.48 20.00
66194 2022-08-06 09:41:37 Terrasse 19.40 20.00 99.90
66193 2022-08-06 09:14:32 Bahnzimmer 19.00 17.48 20.00
66192 2022-08-06 09:13:14 Terrasse 18.70 19.23 99.90
66191 2022-08-06 08:44:48 Terrasse 17.80 18.24 99.90
66190 2022-08-06 08:44:32 Bahnzimmer 19.00 17.48 20.00
66189 2022-08-06 08:16:23 Terrasse 17.10 14.89 1.00
66188 2022-08-06 08:14:31 Bahnzimmer 19.00 17.48 20.00
66187 2022-08-06 07:48:00 Terrasse 16.50 14.23 1.00
66186 2022-08-06 07:44:30 Bahnzimmer 20.00 18.58 20.00
66185 2022-08-06 07:19:37 Terrasse 16.00 16.26 99.90
66184 2022-08-06 07:14:30 Bahnzimmer 21.00 20.02 33.00
66183 2022-08-06 06:52:15 Terrasse 15.80 16.04 99.90
66182 2022-08-06 06:44:27 Bahnzimmer 21.00 19.99 32.00
66181 2022-08-06 06:23:57 Terrasse 16.10 16.37 99.90
66180 2022-08-06 06:14:26 Bahnzimmer 21.00 19.99 32.00
66179 2022-08-06 05:55:15 Terrasse 16.30 16.59 99.90
66178 2022-08-06 05:44:25 Bahnzimmer 21.00 20.02 33.00
66177 2022-08-06 05:26:58 Terrasse 16.80 15.65 42.70
66176 2022-08-06 05:14:25 Bahnzimmer 21.00 20.02 33.00
66175 2022-08-06 04:58:42 Terrasse 17.20 15.00 1.00
66174 2022-08-06 04:44:24 Bahnzimmer 21.00 19.99 32.00
66173 2022-08-06 04:30:24 Terrasse 17.60 15.44 1.00
66172 2022-08-06 04:14:23 Bahnzimmer 21.00 19.99 32.00
66171 2022-08-06 04:02:06 Terrasse 17.90 15.77 1.00
66170 2022-08-06 03:44:23 Bahnzimmer 21.00 19.99 32.00
66169 2022-08-06 03:33:47 Terrasse 18.10 15.99 1.00
66168 2022-08-06 03:14:22 Bahnzimmer 21.00 19.96 31.00
66167 2022-08-06 03:05:29 Terrasse 18.40 16.32 1.00
66166 2022-08-06 02:44:21 Bahnzimmer 21.00 19.96 31.00
66165 2022-08-06 02:37:09 Terrasse 18.60 16.75 8.80
66164 2022-08-06 02:14:21 Bahnzimmer 21.00 19.96 31.00
66163 2022-08-06 02:08:51 Terrasse 19.10 17.09 1.00
66162 2022-08-06 01:44:20 Bahnzimmer 21.00 19.96 31.00
66161 2022-08-06 01:40:32 Terrasse 19.40 19.79 91.70
66160 2022-08-06 01:14:19 Bahnzimmer 21.00 19.78 24.00
66159 2022-08-06 01:12:14 Terrasse 19.50 20.11 99.90
66158 2022-08-06 00:44:19 Bahnzimmer 21.00 19.68 20.00
66157 2022-08-06 00:43:56 Terrasse 19.80 20.44 99.90
66156 2022-08-06 00:15:36 Terrasse 20.00 20.66 99.90
66155 2022-08-06 00:14:18 Bahnzimmer 21.00 19.68 20.00
66154 2022-08-05 23:47:17 Terrasse 20.30 20.99 99.90
66153 2022-08-05 23:44:17 Bahnzimmer 21.00 20.25 42.00
66152 2022-08-05 23:18:58 Terrasse 20.10 20.77 99.90
66151 2022-08-05 23:14:17 Bahnzimmer 21.00 20.28 43.00
66150 2022-08-05 22:50:40 Terrasse 20.40 21.10 99.90
66149 2022-08-05 22:44:16 Bahnzimmer 21.00 20.28 43.00
66148 2022-08-05 22:22:22 Terrasse 20.70 21.43 99.90
66147 2022-08-05 22:14:15 Bahnzimmer 22.00 21.38 43.00
66146 2022-08-05 21:54:05 Terrasse 21.20 21.98 99.90
66145 2022-08-05 21:44:15 Bahnzimmer 22.00 21.38 43.00
66144 2022-08-05 21:25:50 Terrasse 21.60 22.42 99.90
66143 2022-08-05 21:14:14 Bahnzimmer 22.00 21.38 43.00
66142 2022-08-05 20:57:33 Terrasse 22.30 23.19 99.90
66141 2022-08-05 20:44:13 Bahnzimmer 22.00 21.38 43.00
66140 2022-08-05 20:29:16 Terrasse 22.80 23.74 99.90
66139 2022-08-05 20:14:12 Bahnzimmer 22.00 21.38 43.00
66138 2022-08-05 20:00:57 Terrasse 23.20 24.18 99.90
66137 2022-08-05 19:44:12 Bahnzimmer 22.00 21.40 44.00
66136 2022-08-05 19:32:40 Terrasse 23.40 24.40 99.90
66135 2022-08-05 19:14:11 Bahnzimmer 22.00 21.40 44.00
66134 2022-08-05 19:04:19 Terrasse 23.30 24.29 99.90
66133 2022-08-05 18:44:10 Bahnzimmer 22.00 21.40 44.00
66132 2022-08-05 18:36:03 Terrasse 23.80 22.26 1.00
66131 2022-08-05 18:14:10 Bahnzimmer 22.00 21.40 44.00
66130 2022-08-05 18:07:46 Terrasse 24.60 23.14 1.00
66129 2022-08-05 17:44:09 Bahnzimmer 22.00 21.38 43.00
66128 2022-08-05 17:39:30 Terrasse 25.30 23.91 1.00
66127 2022-08-05 17:14:08 Bahnzimmer 23.00 22.45 42.00
66126 2022-08-05 17:11:06 Terrasse 24.90 26.05 99.90
66125 2022-08-05 16:44:08 Bahnzimmer 23.00 22.45 42.00
66124 2022-08-05 16:42:52 Terrasse 26.20 24.90 1.00
66123 2022-08-05 16:14:37 Terrasse 26.60 25.34 1.00
66122 2022-08-05 16:14:07 Bahnzimmer 23.00 22.45 42.00
66121 2022-08-05 15:46:19 Terrasse 26.40 25.12 1.00
66120 2022-08-05 15:44:06 Bahnzimmer 22.00 21.40 44.00
66119 2022-08-05 15:17:58 Terrasse 26.90 25.67 1.00
66118 2022-08-05 15:14:06 Bahnzimmer 22.00 21.40 44.00
66117 2022-08-05 14:49:40 Terrasse 28.10 25.85 1.00
66116 2022-08-05 14:44:05 Bahnzimmer 22.00 21.43 45.00
66115 2022-08-05 14:21:19 Terrasse 28.20 37.09 99.90
66114 2022-08-05 14:14:04 Bahnzimmer 22.00 21.40 44.00
66113 2022-08-05 13:52:39 Terrasse 26.50 25.23 1.00
66112 2022-08-05 13:44:04 Bahnzimmer 22.00 21.43 45.00
66111 2022-08-05 13:24:14 Terrasse 24.90 24.99 59.00
66110 2022-08-05 13:14:03 Bahnzimmer 22.00 21.43 45.00
66109 2022-08-05 12:55:55 Terrasse 25.00 26.05 95.70
66108 2022-08-05 12:44:02 Bahnzimmer 22.00 21.40 44.00
66107 2022-08-05 12:27:33 Terrasse 24.90 26.05 99.90
66106 2022-08-05 12:14:02 Bahnzimmer 23.00 22.48 43.00
66105 2022-08-05 11:59:15 Terrasse 25.10 26.09 92.80
66104 2022-08-05 11:44:01 Bahnzimmer 22.00 21.43 45.00
66103 2022-08-05 11:30:56 Terrasse 25.20 23.80 1.00
66102 2022-08-05 11:14:00 Bahnzimmer 22.00 21.43 45.00
66101 2022-08-05 11:02:34 Terrasse 24.80 23.36 1.00
66100 2022-08-05 10:43:59 Bahnzimmer 22.00 21.46 46.00
66099 2022-08-05 10:34:15 Terrasse 23.90 22.37 1.00
66098 2022-08-05 10:13:59 Bahnzimmer 22.00 21.46 46.00
66097 2022-08-05 10:05:51 Terrasse 23.60 24.62 99.90
66096 2022-08-05 09:43:58 Bahnzimmer 22.00 21.53 49.00
66095 2022-08-05 09:37:27 Terrasse 23.00 23.96 99.90
66094 2022-08-05 09:13:57 Bahnzimmer 21.00 20.64 57.00
66093 2022-08-05 09:09:07 Terrasse 23.00 23.96 99.90
66092 2022-08-05 08:43:57 Bahnzimmer 21.00 20.49 51.00
66091 2022-08-05 08:40:47 Terrasse 22.40 23.30 99.90
66090 2022-08-05 08:13:56 Bahnzimmer 21.00 20.49 51.00
66089 2022-08-05 08:12:28 Terrasse 22.60 20.94 1.00
66088 2022-08-05 07:44:09 Terrasse 22.70 21.05 1.00
66087 2022-08-05 07:43:55 Bahnzimmer 21.00 20.62 56.00
66086 2022-08-05 07:15:52 Terrasse 22.80 21.16 1.00
66085 2022-08-05 07:13:55 Bahnzimmer 21.00 20.59 55.00
66084 2022-08-05 06:47:30 Terrasse 22.60 20.94 1.00
66083 2022-08-05 06:43:54 Bahnzimmer 21.00 20.43 49.00
66082 2022-08-05 06:19:09 Terrasse 22.20 21.20 27.90
66081 2022-08-05 06:13:53 Bahnzimmer 21.00 19.99 32.00
66080 2022-08-05 05:50:50 Terrasse 22.20 20.50 1.00
66079 2022-08-05 05:43:53 Bahnzimmer 21.00 19.99 32.00
66078 2022-08-05 05:22:33 Terrasse 22.70 21.05 1.00
66077 2022-08-05 05:13:52 Bahnzimmer 21.00 19.99 32.00
66076 2022-08-05 04:54:17 Terrasse 23.20 24.18 99.90
66075 2022-08-05 04:43:51 Bahnzimmer 21.00 19.99 32.00
66074 2022-08-05 04:25:57 Terrasse 23.30 24.29 99.90
66073 2022-08-05 04:13:51 Bahnzimmer 21.00 19.99 32.00
66072 2022-08-05 03:57:37 Terrasse 23.50 23.73 70.00
66071 2022-08-05 03:43:50 Bahnzimmer 21.00 19.99 32.00
66070 2022-08-05 03:29:20 Terrasse 23.90 22.37 1.00
66069 2022-08-05 03:13:49 Bahnzimmer 21.00 19.99 32.00
66068 2022-08-05 03:01:09 Terrasse 25.40 26.53 99.90
66067 2022-08-05 02:43:49 Bahnzimmer 21.00 19.99 32.00
66066 2022-08-05 02:32:52 Terrasse 26.10 24.79 1.00
66065 2022-08-05 02:13:48 Bahnzimmer 21.00 19.99 32.00
66064 2022-08-05 02:04:33 Terrasse 26.40 29.74 99.90
66063 2022-08-05 01:43:47 Bahnzimmer 21.00 19.99 32.00
66062 2022-08-05 01:36:17 Terrasse 26.90 32.56 99.90
66061 2022-08-05 01:13:47 Bahnzimmer 21.00 19.99 32.00
66060 2022-08-05 01:07:59 Terrasse 27.50 34.58 99.90
66059 2022-08-05 00:43:46 Bahnzimmer 21.00 19.96 31.00
66058 2022-08-05 00:39:43 Terrasse 28.00 36.35 99.90
66057 2022-08-05 00:13:45 Bahnzimmer 21.00 19.99 32.00
66056 2022-08-05 00:11:27 Terrasse 28.60 38.60 99.90
66055 2022-08-04 23:43:45 Bahnzimmer 21.00 19.96 31.00
66054 2022-08-04 23:43:09 Terrasse 29.10 40.57 99.90
66053 2022-08-04 23:14:49 Terrasse 29.60 42.62 99.90
66052 2022-08-04 23:13:44 Bahnzimmer 21.00 19.99 32.00
66051 2022-08-04 22:46:31 Terrasse 29.80 43.46 99.90
66050 2022-08-04 22:43:43 Bahnzimmer 21.00 19.99 32.00
66049 2022-08-04 22:18:12 Terrasse 29.90 43.89 99.90
66048 2022-08-04 22:13:43 Bahnzimmer 21.00 19.99 32.00
66047 2022-08-04 21:49:53 Terrasse 30.30 45.64 99.90
66046 2022-08-04 21:43:42 Bahnzimmer 21.00 19.99 32.00
66045 2022-08-04 21:21:35 Terrasse 30.70 47.48 99.90
66044 2022-08-04 21:13:41 Bahnzimmer 21.00 19.99 32.00
66043 2022-08-04 20:53:18 Terrasse 31.20 49.96 99.90
66042 2022-08-04 20:43:40 Bahnzimmer 21.00 19.99 32.00
66041 2022-08-04 20:25:02 Terrasse 31.90 53.57 99.90
66040 2022-08-04 20:13:40 Bahnzimmer 21.00 19.99 32.00
66039 2022-08-04 19:56:46 Terrasse 32.60 57.36 99.90
66038 2022-08-04 19:43:39 Bahnzimmer 21.00 19.99 32.00
66037 2022-08-04 19:28:27 Terrasse 33.10 60.17 99.90
66036 2022-08-04 19:13:38 Bahnzimmer 21.00 19.99 32.00
66035 2022-08-04 19:00:08 Terrasse 33.20 60.74 99.90
66034 2022-08-04 18:43:38 Bahnzimmer 21.00 19.99 32.00
66033 2022-08-04 18:31:50 Terrasse 33.80 64.24 99.90
66032 2022-08-04 18:13:37 Bahnzimmer 21.00 19.99 32.00
66031 2022-08-04 18:03:30 Terrasse 34.00 65.44 99.90
66030 2022-08-04 17:43:36 Bahnzimmer 21.00 19.99 32.00
66029 2022-08-04 17:35:11 Terrasse 34.50 68.48 99.90
66028 2022-08-04 17:13:36 Bahnzimmer 21.00 19.99 32.00
66027 2022-08-04 17:06:55 Terrasse 35.10 72.26 99.90
66026 2022-08-04 16:43:35 Bahnzimmer 21.00 19.99 32.00
66025 2022-08-04 16:38:38 Terrasse 36.00 78.15 99.90
66024 2022-08-04 16:13:34 Bahnzimmer 21.00 19.96 31.00
66023 2022-08-04 16:10:18 Terrasse 36.40 80.86 99.90
66022 2022-08-04 15:43:34 Bahnzimmer 21.00 19.99 32.00
66021 2022-08-04 15:41:54 Terrasse 36.10 78.82 99.90
66020 2022-08-04 15:13:39 Terrasse 36.70 82.93 99.90
66019 2022-08-04 15:13:33 Bahnzimmer 21.00 19.99 32.00
66018 2022-08-04 14:45:22 Terrasse 37.20 86.44 99.90
66017 2022-08-04 14:43:32 Bahnzimmer 21.00 19.99 32.00
66016 2022-08-04 14:17:11 Terrasse 38.20 93.73 99.90
66015 2022-08-04 14:13:32 Bahnzimmer 21.00 19.99 32.00
66014 2022-08-04 13:49:00 Terrasse 39.70 105.32 99.90
66013 2022-08-04 13:43:31 Bahnzimmer 21.00 19.99 32.00
66012 2022-08-04 13:20:35 Terrasse 40.20 109.35 99.90
66011 2022-08-04 13:13:30 Bahnzimmer 21.00 19.99 32.00
66010 2022-08-04 12:51:42 Terrasse 36.80 83.62 99.90
66009 2022-08-04 12:43:30 Bahnzimmer 21.00 19.96 31.00
66008 2022-08-04 12:23:20 Terrasse 34.60 30.50 1.00
66007 2022-08-04 12:13:29 Bahnzimmer 21.00 19.99 32.00
66006 2022-08-04 11:55:01 Terrasse 34.10 30.17 1.00
66005 2022-08-04 11:43:28 Bahnzimmer 21.00 19.99 32.00
66004 2022-08-04 11:26:24 Terrasse 32.00 28.71 1.00
66003 2022-08-04 11:13:28 Bahnzimmer 21.00 19.99 32.00
66002 2022-08-04 10:57:43 Terrasse 29.80 27.11 1.00
66001 2022-08-04 10:43:27 Bahnzimmer 21.00 19.96 31.00
66000 2022-08-04 10:29:13 Terrasse 28.30 26.03 1.00
65999 2022-08-04 10:13:26 Bahnzimmer 21.00 19.99 32.00
65998 2022-08-04 10:00:46 Terrasse 27.30 25.22 1.00
65997 2022-08-04 09:43:25 Bahnzimmer 21.00 19.96 31.00
65996 2022-08-04 09:32:18 Terrasse 26.00 28.41 99.90
65995 2022-08-04 09:13:25 Bahnzimmer 21.00 19.99 32.00
65994 2022-08-04 09:03:51 Terrasse 24.90 26.05 99.90
65993 2022-08-04 08:43:24 Bahnzimmer 21.00 19.99 32.00
65992 2022-08-04 08:35:27 Terrasse 24.20 25.28 99.90
65991 2022-08-04 08:13:23 Bahnzimmer 21.00 19.99 32.00
65990 2022-08-04 08:07:05 Terrasse 23.70 24.73 99.90
65989 2022-08-04 07:43:23 Bahnzimmer 21.00 20.02 33.00
65988 2022-08-04 07:38:44 Terrasse 23.40 21.82 1.00
65987 2022-08-04 07:13:22 Bahnzimmer 21.00 19.99 32.00
65986 2022-08-04 07:10:23 Terrasse 23.20 21.60 1.00
65985 2022-08-04 06:43:22 Bahnzimmer 21.00 19.99 32.00
65984 2022-08-04 06:42:06 Terrasse 23.20 21.60 1.00
65983 2022-08-04 06:13:48 Terrasse 23.30 21.71 1.00
65982 2022-08-04 06:13:21 Bahnzimmer 21.00 19.96 31.00
65981 2022-08-04 05:45:30 Terrasse 23.60 22.04 1.00
65980 2022-08-04 05:43:20 Bahnzimmer 21.00 19.99 32.00
65979 2022-08-04 05:17:12 Terrasse 23.80 24.84 99.90
65978 2022-08-04 05:13:19 Bahnzimmer 21.00 19.96 31.00
65977 2022-08-04 04:48:53 Terrasse 23.90 24.95 99.90
65976 2022-08-04 04:43:19 Bahnzimmer 21.00 19.99 32.00
65975 2022-08-04 04:20:33 Terrasse 24.00 25.06 99.90
65974 2022-08-04 04:13:18 Bahnzimmer 21.00 19.96 31.00
65973 2022-08-04 03:52:15 Terrasse 24.30 25.39 99.90
65972 2022-08-04 03:43:17 Bahnzimmer 21.00 19.96 31.00
65971 2022-08-04 03:23:57 Terrasse 24.50 25.61 99.90
65970 2022-08-04 03:13:17 Bahnzimmer 21.00 19.96 31.00
65969 2022-08-04 02:55:38 Terrasse 25.00 25.34 99.90
65968 2022-08-04 02:43:16 Bahnzimmer 21.00 19.96 31.00
65967 2022-08-04 02:27:19 Terrasse 25.20 25.93 99.90
65966 2022-08-04 02:13:15 Bahnzimmer 21.00 19.96 31.00
65965 2022-08-04 01:59:00 Terrasse 25.20 25.93 99.90
65964 2022-08-04 01:43:15 Bahnzimmer 21.00 19.96 31.00
65963 2022-08-04 01:30:41 Terrasse 25.30 26.22 99.90
65962 2022-08-04 01:13:14 Bahnzimmer 21.00 19.96 31.00
65961 2022-08-04 01:02:22 Terrasse 25.50 26.83 99.90
65960 2022-08-04 00:43:13 Bahnzimmer 21.00 19.99 32.00
65959 2022-08-04 00:34:02 Terrasse 25.70 27.45 99.90
65958 2022-08-04 00:13:13 Bahnzimmer 21.00 19.96 31.00
65957 2022-08-04 00:05:45 Terrasse 25.90 28.09 99.90
65956 2022-08-03 23:43:12 Bahnzimmer 21.00 19.99 32.00
65955 2022-08-03 23:37:25 Terrasse 26.20 29.07 99.90
65954 2022-08-03 23:13:12 Bahnzimmer 21.00 19.99 32.00
65953 2022-08-03 23:09:07 Terrasse 26.50 30.08 99.90
65952 2022-08-03 22:43:11 Bahnzimmer 21.00 19.99 32.00
65951 2022-08-03 22:40:49 Terrasse 27.00 32.89 99.90
65950 2022-08-03 22:13:10 Bahnzimmer 21.00 19.96 31.00
65949 2022-08-03 22:12:30 Terrasse 27.50 34.58 99.90
65948 2022-08-03 21:44:11 Terrasse 27.80 35.63 99.90
65947 2022-08-03 21:43:09 Bahnzimmer 21.00 19.99 32.00
65946 2022-08-03 21:15:54 Terrasse 28.60 38.60 99.90
65945 2022-08-03 21:13:09 Bahnzimmer 21.00 19.99 32.00
65944 2022-08-03 20:47:38 Terrasse 29.40 41.79 99.90
65943 2022-08-03 20:43:08 Bahnzimmer 21.00 19.96 31.00
65942 2022-08-03 20:19:22 Terrasse 30.30 45.64 99.90
65941 2022-08-03 20:13:07 Bahnzimmer 21.00 19.96 31.00
65940 2022-08-03 19:51:09 Terrasse 30.80 47.97 99.90
65939 2022-08-03 19:43:07 Bahnzimmer 21.00 19.96 31.00
65938 2022-08-03 19:22:49 Terrasse 31.20 49.96 99.90
65937 2022-08-03 19:13:06 Bahnzimmer 21.00 19.83 26.00
65936 2022-08-03 18:54:33 Terrasse 31.70 52.52 99.90
65935 2022-08-03 18:43:05 Bahnzimmer 21.00 19.91 29.00
65934 2022-08-03 18:26:14 Terrasse 32.10 54.64 99.90
65933 2022-08-03 18:13:04 Bahnzimmer 21.00 19.96 31.00
65932 2022-08-03 17:57:55 Terrasse 32.40 56.26 99.90
65931 2022-08-03 17:43:03 Bahnzimmer 22.00 20.86 23.00
65930 2022-08-03 17:29:36 Terrasse 32.50 56.81 99.90
65929 2022-08-03 17:13:02 Bahnzimmer 22.00 20.78 20.00
65928 2022-08-03 17:01:16 Terrasse 32.70 57.91 99.90
65927 2022-08-03 16:43:02 Bahnzimmer 22.00 20.78 20.00
65926 2022-08-03 16:32:58 Terrasse 33.10 60.17 99.90
65925 2022-08-03 16:13:01 Bahnzimmer 22.00 20.78 20.00
65924 2022-08-03 16:04:37 Terrasse 33.30 61.31 99.90
65923 2022-08-03 15:43:00 Bahnzimmer 22.00 20.78 20.00
65922 2022-08-03 15:36:20 Terrasse 33.70 63.65 99.90
65921 2022-08-03 15:13:00 Bahnzimmer 22.00 20.78 20.00
65920 2022-08-03 15:08:00 Terrasse 33.80 64.24 99.90
65919 2022-08-03 14:42:59 Bahnzimmer 22.00 20.78 20.00
65918 2022-08-03 14:39:47 Terrasse 34.70 69.73 99.90
65917 2022-08-03 14:12:58 Bahnzimmer 21.00 19.68 20.00
65916 2022-08-03 14:11:41 Terrasse 36.00 78.15 99.90
65915 2022-08-03 13:43:32 Terrasse 38.10 92.99 99.90
65914 2022-08-03 13:42:58 Bahnzimmer 21.00 19.68 20.00
65913 2022-08-03 13:15:03 Terrasse 37.60 89.32 99.90
65912 2022-08-03 13:12:57 Bahnzimmer 21.00 19.68 20.00
65911 2022-08-03 12:46:08 Terrasse 33.70 63.65 99.90
65910 2022-08-03 12:42:56 Bahnzimmer 21.00 19.68 20.00
65909 2022-08-03 12:17:54 Terrasse 32.70 29.22 1.00
65908 2022-08-03 12:12:56 Bahnzimmer 21.00 19.68 20.00
65907 2022-08-03 11:49:32 Terrasse 32.10 28.79 1.00
65906 2022-08-03 11:42:55 Bahnzimmer 21.00 19.68 20.00
65905 2022-08-03 11:20:57 Terrasse 30.10 27.30 1.00
65904 2022-08-03 11:12:54 Bahnzimmer 21.00 19.68 20.00
65903 2022-08-03 10:52:13 Terrasse 27.90 25.67 1.00
65902 2022-08-03 10:42:53 Bahnzimmer 21.00 19.68 20.00
65901 2022-08-03 10:23:44 Terrasse 26.20 24.90 1.00
65900 2022-08-03 10:12:53 Bahnzimmer 21.00 19.68 20.00
65899 2022-08-03 09:55:14 Terrasse 24.90 23.47 1.00
65898 2022-08-03 09:42:52 Bahnzimmer 21.00 19.68 20.00
65897 2022-08-03 09:26:46 Terrasse 23.60 22.04 1.00
65896 2022-08-03 09:12:51 Bahnzimmer 21.00 19.68 20.00
65895 2022-08-03 08:58:18 Terrasse 22.40 22.10 53.90
65894 2022-08-03 08:42:51 Bahnzimmer 20.00 18.63 22.00
65893 2022-08-03 08:29:52 Terrasse 21.40 22.20 99.90
65892 2022-08-03 08:12:50 Bahnzimmer 20.00 18.68 24.00
65891 2022-08-03 08:01:32 Terrasse 20.90 19.07 1.00
65890 2022-08-03 07:42:49 Bahnzimmer 20.00 18.60 21.00
65889 2022-08-03 07:33:10 Terrasse 20.60 19.69 37.20
65888 2022-08-03 07:12:49 Bahnzimmer 20.00 18.60 21.00
65887 2022-08-03 07:04:49 Terrasse 20.50 18.63 1.00
65886 2022-08-03 06:42:48 Bahnzimmer 20.00 18.60 21.00
65885 2022-08-03 06:36:31 Terrasse 20.50 18.63 1.00
65884 2022-08-03 06:12:47 Bahnzimmer 20.00 18.60 21.00
65883 2022-08-03 06:08:12 Terrasse 20.60 18.74 1.00
65882 2022-08-03 05:42:46 Bahnzimmer 21.00 19.83 26.00
65881 2022-08-03 05:39:53 Terrasse 20.80 18.96 1.00
65880 2022-08-03 05:12:46 Bahnzimmer 21.00 19.96 31.00
65879 2022-08-03 05:11:35 Terrasse 21.10 19.29 1.00
65878 2022-08-03 04:43:16 Terrasse 21.30 19.51 1.00
65877 2022-08-03 04:42:45 Bahnzimmer 21.00 19.96 31.00
65876 2022-08-03 04:14:58 Terrasse 21.50 19.73 1.00
65875 2022-08-03 04:12:44 Bahnzimmer 21.00 19.96 31.00
65874 2022-08-03 03:46:38 Terrasse 21.50 19.73 1.00
65873 2022-08-03 03:42:44 Bahnzimmer 21.00 19.96 31.00
65872 2022-08-03 03:18:20 Terrasse 21.80 20.06 1.00
65871 2022-08-03 03:12:43 Bahnzimmer 21.00 19.96 31.00
65870 2022-08-03 02:50:01 Terrasse 22.10 20.39 1.00
65869 2022-08-03 02:42:42 Bahnzimmer 21.00 19.96 31.00
65868 2022-08-03 02:21:42 Terrasse 22.30 20.61 1.00
65867 2022-08-03 02:12:42 Bahnzimmer 21.00 19.96 31.00
65866 2022-08-03 01:53:24 Terrasse 22.50 20.83 1.00
65865 2022-08-03 01:42:41 Bahnzimmer 21.00 19.96 31.00
65864 2022-08-03 01:25:04 Terrasse 22.70 21.05 1.00
65863 2022-08-03 01:12:40 Bahnzimmer 21.00 19.96 31.00
65862 2022-08-03 00:56:45 Terrasse 22.80 21.16 1.00
65861 2022-08-03 00:42:40 Bahnzimmer 21.00 19.96 31.00
65860 2022-08-03 00:28:26 Terrasse 23.10 21.49 1.00
65859 2022-08-03 00:12:39 Bahnzimmer 21.00 19.96 31.00
65858 2022-08-03 00:00:06 Terrasse 23.20 21.60 1.00
65857 2022-08-02 23:42:38 Bahnzimmer 21.00 19.96 31.00
65856 2022-08-02 23:31:49 Terrasse 23.50 21.93 1.00
65855 2022-08-02 23:12:38 Bahnzimmer 21.00 19.96 31.00
65854 2022-08-02 23:03:32 Terrasse 23.90 22.37 1.00
65853 2022-08-02 22:42:37 Bahnzimmer 21.00 19.96 31.00
65852 2022-08-02 22:35:15 Terrasse 24.20 22.70 1.00
65851 2022-08-02 22:12:36 Bahnzimmer 21.00 19.96 31.00
65850 2022-08-02 22:06:58 Terrasse 24.80 23.36 1.00
65849 2022-08-02 21:42:36 Bahnzimmer 21.00 19.96 31.00
65848 2022-08-02 21:38:41 Terrasse 25.20 25.93 99.90
65847 2022-08-02 21:12:35 Bahnzimmer 21.00 19.96 31.00
65846 2022-08-02 21:10:26 Terrasse 25.80 27.77 99.90
65845 2022-08-02 20:42:34 Bahnzimmer 21.00 19.96 31.00
65844 2022-08-02 20:42:13 Terrasse 26.80 32.24 99.90
65843 2022-08-02 20:13:56 Terrasse 27.50 34.58 99.90
65842 2022-08-02 20:12:34 Bahnzimmer 21.00 19.96 31.00
65841 2022-08-02 19:45:41 Terrasse 28.00 36.35 99.90
65840 2022-08-02 19:42:33 Bahnzimmer 21.00 19.94 30.00
65839 2022-08-02 19:17:23 Terrasse 28.40 37.84 99.90
65838 2022-08-02 19:12:32 Bahnzimmer 21.00 19.96 31.00
65837 2022-08-02 18:49:06 Terrasse 28.90 39.77 99.90
65836 2022-08-02 18:42:32 Bahnzimmer 21.00 19.86 27.00
65835 2022-08-02 18:20:45 Terrasse 29.00 40.17 99.90
65834 2022-08-02 18:12:31 Bahnzimmer 21.00 19.78 24.00
65833 2022-08-02 17:52:27 Terrasse 29.20 40.97 99.90
65832 2022-08-02 17:42:30 Bahnzimmer 22.00 20.78 20.00
65831 2022-08-02 17:24:10 Terrasse 29.70 43.04 99.90
65830 2022-08-02 17:12:29 Bahnzimmer 22.00 20.91 25.00
65829 2022-08-02 16:55:50 Terrasse 30.00 44.32 99.90
65828 2022-08-02 16:42:29 Bahnzimmer 22.00 20.83 22.00
65827 2022-08-02 16:27:32 Terrasse 30.30 45.64 99.90
65826 2022-08-02 16:12:28 Bahnzimmer 22.00 20.83 22.00
65825 2022-08-02 15:59:11 Terrasse 30.30 45.64 99.90
65824 2022-08-02 15:42:27 Bahnzimmer 22.00 20.78 20.00
65823 2022-08-02 15:30:52 Terrasse 30.50 46.53 99.90
65822 2022-08-02 15:12:27 Bahnzimmer 22.00 20.78 20.00
65821 2022-08-02 15:02:36 Terrasse 31.20 49.96 99.90
65820 2022-08-02 14:42:26 Bahnzimmer 21.00 19.68 20.00
65819 2022-08-02 14:34:19 Terrasse 31.60 52.00 99.90
65818 2022-08-02 14:12:25 Bahnzimmer 22.00 20.78 20.00
65817 2022-08-02 14:06:06 Terrasse 32.70 57.91 99.90
65816 2022-08-02 13:42:25 Bahnzimmer 21.00 19.68 20.00
65815 2022-08-02 13:37:59 Terrasse 34.90 70.99 99.90
65814 2022-08-02 13:12:24 Bahnzimmer 21.00 19.68 20.00
65813 2022-08-02 13:09:27 Terrasse 34.10 30.17 1.00
65812 2022-08-02 12:42:23 Bahnzimmer 22.00 20.78 20.00
65811 2022-08-02 12:40:31 Terrasse 28.80 26.39 1.00
65810 2022-08-02 12:12:23 Bahnzimmer 21.00 19.68 20.00
65809 2022-08-02 12:12:18 Terrasse 29.70 27.03 1.00
65808 2022-08-02 11:44:00 Terrasse 28.80 26.39 1.00
65807 2022-08-02 11:42:22 Bahnzimmer 21.00 19.68 20.00
65806 2022-08-02 11:15:27 Terrasse 26.90 32.56 99.90
65805 2022-08-02 11:12:21 Bahnzimmer 21.00 19.68 20.00
65804 2022-08-02 10:46:48 Terrasse 24.80 23.36 1.00
65803 2022-08-02 10:42:21 Bahnzimmer 21.00 19.78 24.00
65802 2022-08-02 10:18:20 Terrasse 23.50 24.51 99.90
65801 2022-08-02 10:12:20 Bahnzimmer 21.00 19.68 20.00
65800 2022-08-02 09:49:53 Terrasse 22.40 20.72 1.00
65799 2022-08-02 09:42:19 Bahnzimmer 21.00 19.68 20.00
65798 2022-08-02 09:21:28 Terrasse 21.40 19.62 1.00
65797 2022-08-02 09:12:18 Bahnzimmer 21.00 19.68 20.00
65796 2022-08-02 08:53:04 Terrasse 20.70 19.42 22.60
65795 2022-08-02 08:42:18 Bahnzimmer 20.00 18.71 25.00
65794 2022-08-02 08:24:41 Terrasse 20.10 18.19 1.00
65793 2022-08-02 08:12:17 Bahnzimmer 19.00 17.50 21.00
65792 2022-08-02 07:56:16 Terrasse 19.30 17.31 1.00
65791 2022-08-02 07:42:16 Bahnzimmer 19.00 17.50 21.00
65790 2022-08-02 07:27:56 Terrasse 18.80 19.34 99.90
65789 2022-08-02 07:12:16 Bahnzimmer 19.00 17.82 33.00
65788 2022-08-02 06:59:35 Terrasse 18.60 16.54 1.00
65787 2022-08-02 06:42:15 Bahnzimmer 19.00 17.90 36.00
65786 2022-08-02 06:31:17 Terrasse 18.50 16.43 1.00
65785 2022-08-02 06:12:14 Bahnzimmer 20.00 19.02 37.00
65784 2022-08-02 06:02:59 Terrasse 18.60 16.54 1.00
65783 2022-08-02 05:42:13 Bahnzimmer 21.00 20.04 34.00
65782 2022-08-02 05:34:40 Terrasse 18.80 16.76 1.00
65781 2022-08-02 05:12:13 Bahnzimmer 21.00 20.07 35.00
65780 2022-08-02 05:06:22 Terrasse 19.00 16.98 1.00
65779 2022-08-02 04:42:12 Bahnzimmer 21.00 20.07 35.00
65778 2022-08-02 04:38:03 Terrasse 19.10 17.09 1.00
65777 2022-08-02 04:12:11 Bahnzimmer 21.00 20.07 35.00
65776 2022-08-02 04:09:45 Terrasse 19.20 17.20 1.00
65775 2022-08-02 03:42:11 Bahnzimmer 21.00 20.07 35.00
65774 2022-08-02 03:41:29 Terrasse 19.60 20.22 99.90
65773 2022-08-02 03:13:11 Terrasse 19.80 17.86 1.00
65772 2022-08-02 03:12:10 Bahnzimmer 21.00 20.07 35.00
65771 2022-08-02 02:44:53 Terrasse 20.10 18.19 1.00
65770 2022-08-02 02:42:09 Bahnzimmer 21.00 20.10 36.00
65769 2022-08-02 02:16:37 Terrasse 20.60 18.74 1.00
65768 2022-08-02 02:12:09 Bahnzimmer 21.00 20.10 36.00
65767 2022-08-02 01:48:19 Terrasse 21.00 19.18 1.00
65766 2022-08-02 01:42:08 Bahnzimmer 21.00 20.10 36.00
65765 2022-08-02 01:20:01 Terrasse 21.40 19.62 1.00
65764 2022-08-02 01:12:07 Bahnzimmer 21.00 20.10 36.00
65763 2022-08-02 00:51:44 Terrasse 21.70 22.53 99.90
65762 2022-08-02 00:42:06 Bahnzimmer 21.00 20.10 36.00
65761 2022-08-02 00:23:27 Terrasse 21.90 20.17 1.00
65760 2022-08-02 00:12:06 Bahnzimmer 21.00 20.10 36.00
65759 2022-08-01 23:55:09 Terrasse 22.30 23.19 99.90
65758 2022-08-01 23:42:05 Bahnzimmer 21.00 20.10 36.00
65757 2022-08-01 23:26:50 Terrasse 22.80 21.16 1.00
65756 2022-08-01 23:12:04 Bahnzimmer 21.00 20.10 36.00
65755 2022-08-01 22:58:30 Terrasse 23.00 21.38 1.00
65754 2022-08-01 22:42:04 Bahnzimmer 21.00 20.12 37.00
65753 2022-08-01 22:30:10 Terrasse 23.10 21.49 1.00
65752 2022-08-01 22:12:03 Bahnzimmer 21.00 20.12 37.00
65751 2022-08-01 22:01:51 Terrasse 23.20 21.60 1.00
65750 2022-08-01 21:42:02 Bahnzimmer 21.00 20.10 36.00
65749 2022-08-01 21:33:34 Terrasse 23.60 22.04 1.00
65748 2022-08-01 21:12:02 Bahnzimmer 21.00 20.07 35.00
65747 2022-08-01 21:05:18 Terrasse 24.00 22.48 1.00
65746 2022-08-01 20:42:01 Bahnzimmer 21.00 20.10 36.00
65745 2022-08-01 20:37:01 Terrasse 24.60 23.14 1.00
65744 2022-08-01 20:12:00 Bahnzimmer 21.00 20.12 37.00
65743 2022-08-01 20:08:43 Terrasse 25.10 23.69 1.00
65742 2022-08-01 19:42:00 Bahnzimmer 21.00 20.15 38.00
65741 2022-08-01 19:40:28 Terrasse 25.70 24.35 1.00
65740 2022-08-01 19:12:06 Terrasse 25.50 24.13 1.00
65739 2022-08-01 19:11:59 Bahnzimmer 21.00 20.10 36.00
65738 2022-08-01 18:43:47 Terrasse 25.70 24.35 1.00
65737 2022-08-01 18:41:58 Bahnzimmer 21.00 20.28 43.00
65736 2022-08-01 18:28:00 Bahnzimmer 21.00 20.17 39.00
65735 2022-08-01 18:15:26 Terrasse 26.00 24.68 1.00
65734 2022-08-01 17:58:00 Bahnzimmer 21.00 20.10 36.00
65733 2022-08-01 17:47:07 Terrasse 26.20 24.90 1.00
65732 2022-08-01 17:27:59 Bahnzimmer 21.00 20.12 37.00
65731 2022-08-01 17:18:49 Terrasse 26.50 25.23 1.00
65730 2022-08-01 16:57:58 Bahnzimmer 21.00 20.10 36.00
65729 2022-08-01 16:50:27 Terrasse 26.40 25.12 1.00
65728 2022-08-01 16:27:58 Bahnzimmer 21.00 20.12 37.00
65727 2022-08-01 16:22:09 Terrasse 26.40 25.12 1.00
65726 2022-08-01 15:57:57 Bahnzimmer 21.00 20.12 37.00
65725 2022-08-01 15:53:45 Terrasse 26.20 24.90 1.00
65724 2022-08-01 15:27:56 Bahnzimmer 21.00 20.15 38.00
65723 2022-08-01 15:25:28 Terrasse 26.70 25.45 1.00
65722 2022-08-01 14:57:56 Bahnzimmer 21.00 20.15 38.00
65721 2022-08-01 14:57:14 Terrasse 27.40 25.31 1.00
65720 2022-08-01 14:29:07 Terrasse 29.10 26.58 1.00
65719 2022-08-01 14:27:55 Bahnzimmer 21.00 20.15 38.00
65718 2022-08-01 14:00:34 Terrasse 29.50 26.85 1.00
65717 2022-08-01 13:57:54 Bahnzimmer 21.00 20.15 38.00
65716 2022-08-01 13:32:32 Terrasse 32.40 28.98 1.00
65715 2022-08-01 13:27:54 Bahnzimmer 21.00 20.17 39.00
65714 2022-08-01 13:03:52 Terrasse 30.10 27.30 1.00
65713 2022-08-01 12:57:53 Bahnzimmer 21.00 20.23 41.00
65712 2022-08-01 12:35:27 Terrasse 26.50 30.08 99.90
65711 2022-08-01 12:27:52 Bahnzimmer 21.00 20.20 40.00
65710 2022-08-01 12:07:02 Terrasse 27.00 25.78 1.00
65709 2022-08-01 11:57:52 Bahnzimmer 21.00 20.23 41.00
65708 2022-08-01 11:38:21 Terrasse 23.80 24.84 99.90
65707 2022-08-01 11:27:51 Bahnzimmer 21.00 20.23 41.00
65706 2022-08-01 11:09:49 Terrasse 22.80 21.16 1.00
65705 2022-08-01 10:57:50 Bahnzimmer 21.00 20.25 42.00
65704 2022-08-01 10:41:29 Terrasse 22.50 23.41 99.90
65703 2022-08-01 10:27:49 Bahnzimmer 21.00 20.25 42.00
65702 2022-08-01 10:13:06 Terrasse 22.20 20.50 1.00
65701 2022-08-01 09:57:49 Bahnzimmer 21.00 20.28 43.00
65700 2022-08-01 09:44:46 Terrasse 22.20 20.50 1.00
65699 2022-08-01 09:27:48 Bahnzimmer 21.00 20.33 45.00
65698 2022-08-01 09:16:23 Terrasse 21.90 20.17 1.00
65697 2022-08-01 08:57:47 Bahnzimmer 20.00 19.28 47.00
65696 2022-08-01 08:47:57 Terrasse 21.00 21.76 99.90
65695 2022-08-01 08:27:47 Bahnzimmer 20.00 19.26 46.00
65694 2022-08-01 08:19:38 Terrasse 21.00 21.76 99.90
65693 2022-08-01 07:57:46 Bahnzimmer 20.00 19.26 46.00
65692 2022-08-01 07:51:15 Terrasse 20.60 21.32 99.90
65691 2022-08-01 07:27:45 Bahnzimmer 20.00 19.23 45.00
65690 2022-08-01 07:22:53 Terrasse 20.40 21.10 99.90
65689 2022-08-01 06:57:45 Bahnzimmer 20.00 19.23 45.00
65688 2022-08-01 06:54:33 Terrasse 20.20 19.54 48.50
65687 2022-08-01 06:27:44 Bahnzimmer 20.00 19.20 44.00
65686 2022-08-01 06:26:13 Terrasse 20.20 18.37 3.50
65685 2022-08-01 05:57:55 Terrasse 20.30 18.41 1.00
65684 2022-08-01 05:57:40 Bahnzimmer 20.00 19.07 39.00
65683 2022-08-01 05:29:36 Terrasse 20.30 20.99 99.90
65682 2022-08-01 05:27:39 Bahnzimmer 21.00 19.86 27.00
65681 2022-08-01 05:01:19 Terrasse 20.60 21.32 99.90
65680 2022-08-01 04:57:39 Bahnzimmer 21.00 19.83 26.00
65679 2022-08-01 04:32:59 Terrasse 20.90 20.27 46.80
65678 2022-08-01 04:27:38 Bahnzimmer 21.00 19.83 26.00
65677 2022-08-01 04:04:40 Terrasse 21.20 19.66 10.90
65676 2022-08-01 03:57:37 Bahnzimmer 21.00 19.83 26.00
65675 2022-08-01 03:36:22 Terrasse 21.60 19.84 1.00
65674 2022-08-01 03:27:37 Bahnzimmer 21.00 19.83 26.00
65673 2022-08-01 03:08:05 Terrasse 21.80 20.06 1.00
65672 2022-08-01 02:57:36 Bahnzimmer 21.00 19.78 24.00
65671 2022-08-01 02:39:47 Terrasse 22.10 20.39 1.00
65670 2022-08-01 02:27:35 Bahnzimmer 21.00 19.73 22.00
65669 2022-08-01 02:11:30 Terrasse 22.50 23.41 99.90
65668 2022-08-01 01:57:35 Bahnzimmer 21.00 19.76 23.00
65667 2022-08-01 01:43:11 Terrasse 22.80 21.16 1.00
65666 2022-08-01 01:27:34 Bahnzimmer 21.00 19.68 20.00
65665 2022-08-01 01:14:53 Terrasse 23.20 24.18 99.90
65664 2022-08-01 00:57:33 Bahnzimmer 21.00 19.73 22.00
65663 2022-08-01 00:46:36 Terrasse 23.40 24.40 99.90
65662 2022-08-01 00:27:33 Bahnzimmer 21.00 19.83 26.00
65661 2022-08-01 00:18:19 Terrasse 23.70 24.73 99.90
65660 2022-07-31 23:57:32 Bahnzimmer 21.00 19.68 20.00
65659 2022-07-31 23:50:00 Terrasse 23.90 22.37 1.00
65658 2022-07-31 23:27:31 Bahnzimmer 21.00 19.68 20.00
65657 2022-07-31 23:21:41 Terrasse 24.10 22.59 1.00
65656 2022-07-31 22:57:30 Bahnzimmer 21.00 19.68 20.00
65655 2022-07-31 22:53:22 Terrasse 24.40 22.92 1.00
65654 2022-07-31 22:27:30 Bahnzimmer 21.00 19.73 22.00
65653 2022-07-31 22:25:04 Terrasse 24.60 23.14 1.00
65652 2022-07-31 21:57:29 Bahnzimmer 21.00 19.68 20.00
65651 2022-07-31 21:56:46 Terrasse 24.90 23.47 1.00
65650 2022-07-31 21:28:27 Terrasse 25.20 23.80 1.00
65649 2022-07-31 21:27:28 Bahnzimmer 21.00 19.68 20.00
65648 2022-07-31 21:00:11 Terrasse 25.80 24.46 1.00
65647 2022-07-31 20:57:28 Bahnzimmer 21.00 19.73 22.00
65646 2022-07-31 20:31:52 Terrasse 26.20 24.90 1.00
65645 2022-07-31 20:27:27 Bahnzimmer 21.00 19.91 29.00
65644 2022-07-31 20:03:34 Terrasse 26.40 25.12 1.00
65643 2022-07-31 19:57:26 Bahnzimmer 21.00 19.70 21.00
65642 2022-07-31 19:35:15 Terrasse 26.70 25.45 1.00
65641 2022-07-31 19:27:26 Bahnzimmer 21.00 19.68 20.00
65640 2022-07-31 19:06:57 Terrasse 27.00 25.78 1.00
65639 2022-07-31 18:57:25 Bahnzimmer 21.00 19.68 20.00
65638 2022-07-31 18:38:39 Terrasse 27.30 25.22 1.00
65637 2022-07-31 18:27:24 Bahnzimmer 21.00 19.68 20.00
65636 2022-07-31 18:10:21 Terrasse 27.90 25.67 1.00
65635 2022-07-31 17:57:24 Bahnzimmer 21.00 19.68 20.00
65634 2022-07-31 17:42:01 Terrasse 28.00 25.76 1.00
65633 2022-07-31 17:27:23 Bahnzimmer 21.00 19.68 20.00
65632 2022-07-31 17:13:39 Terrasse 27.90 25.67 1.00
65631 2022-07-31 16:57:22 Bahnzimmer 21.00 19.68 20.00
65630 2022-07-31 16:45:16 Terrasse 27.50 25.41 1.00
65629 2022-07-31 16:27:21 Bahnzimmer 21.00 19.68 20.00
65628 2022-07-31 16:16:56 Terrasse 27.60 25.50 1.00
65627 2022-07-31 15:57:21 Bahnzimmer 21.00 19.68 20.00
65626 2022-07-31 15:48:38 Terrasse 28.00 25.76 1.00
65625 2022-07-31 15:27:20 Bahnzimmer 21.00 19.68 20.00
65624 2022-07-31 15:20:25 Terrasse 28.90 26.40 1.00
65623 2022-07-31 14:57:19 Bahnzimmer 21.00 19.68 20.00
65622 2022-07-31 14:52:07 Terrasse 29.20 26.66 1.00
65621 2022-07-31 14:27:19 Bahnzimmer 21.00 19.68 20.00
65620 2022-07-31 14:23:47 Terrasse 29.80 27.11 1.00
65619 2022-07-31 13:57:18 Bahnzimmer 21.00 19.68 20.00
65618 2022-07-31 13:55:30 Terrasse 30.50 27.64 1.00
65617 2022-07-31 13:27:17 Bahnzimmer 21.00 19.68 20.00
65616 2022-07-31 13:26:51 Terrasse 26.90 25.67 1.00
65615 2022-07-31 12:58:27 Terrasse 25.80 24.46 1.00
65614 2022-07-31 12:57:17 Bahnzimmer 21.00 19.68 20.00
65613 2022-07-31 12:29:54 Terrasse 24.20 22.70 1.00
65612 2022-07-31 12:27:16 Bahnzimmer 21.00 19.68 20.00
65611 2022-07-31 12:01:35 Terrasse 24.00 22.48 1.00
65610 2022-07-31 11:57:15 Bahnzimmer 21.00 19.68 20.00
65609 2022-07-31 11:33:19 Terrasse 24.20 22.70 1.00
65608 2022-07-31 11:27:15 Bahnzimmer 21.00 19.68 20.00
65607 2022-07-31 11:04:57 Terrasse 24.10 22.62 2.00
65606 2022-07-31 10:57:14 Bahnzimmer 21.00 19.68 20.00
65605 2022-07-31 10:36:31 Terrasse 23.10 24.07 99.90
65604 2022-07-31 10:27:13 Bahnzimmer 21.00 19.68 20.00
65603 2022-07-31 10:08:02 Terrasse 21.50 19.73 1.00
65602 2022-07-31 09:57:13 Bahnzimmer 21.00 19.83 26.00
65601 2022-07-31 09:39:40 Terrasse 21.20 21.98 99.90
65600 2022-07-31 09:27:12 Bahnzimmer 20.00 18.60 21.00
65599 2022-07-31 09:11:19 Terrasse 20.90 19.07 1.00
65598 2022-07-31 08:57:11 Bahnzimmer 20.00 18.60 21.00
65597 2022-07-31 08:42:57 Terrasse 20.70 18.85 1.00
65596 2022-07-31 08:27:11 Bahnzimmer 20.00 18.66 23.00
65595 2022-07-31 08:14:35 Terrasse 20.50 18.63 1.00
65594 2022-07-31 07:57:10 Bahnzimmer 20.00 18.60 21.00
65593 2022-07-31 07:46:15 Terrasse 20.50 21.21 99.90
65592 2022-07-31 07:27:09 Bahnzimmer 20.00 18.60 21.00
65591 2022-07-31 07:17:53 Terrasse 20.20 20.88 99.90
65590 2022-07-31 06:57:09 Bahnzimmer 20.00 18.60 21.00
65589 2022-07-31 06:49:33 Terrasse 19.90 19.21 48.30
65588 2022-07-31 06:27:08 Bahnzimmer 20.00 18.60 21.00
65587 2022-07-31 06:21:12 Terrasse 19.80 17.86 1.00
65586 2022-07-31 05:57:07 Bahnzimmer 20.00 18.60 21.00
65585 2022-07-31 05:53:19 Terrasse 19.60 17.64 1.00
65584 2022-07-31 05:27:07 Bahnzimmer 20.00 18.60 21.00
65583 2022-07-31 05:24:55 Terrasse 19.90 17.97 1.00
65582 2022-07-31 04:57:06 Bahnzimmer 20.00 18.60 21.00
65581 2022-07-31 04:56:51 Terrasse 20.10 18.19 1.00
65580 2022-07-31 04:28:44 Terrasse 20.30 18.41 1.00
65579 2022-07-31 04:27:05 Bahnzimmer 20.00 18.60 21.00
65578 2022-07-31 04:00:25 Terrasse 20.70 18.85 1.00
65577 2022-07-31 03:57:05 Bahnzimmer 20.00 18.60 21.00
65576 2022-07-31 03:32:09 Terrasse 21.00 19.18 1.00
65575 2022-07-31 03:27:04 Bahnzimmer 20.00 18.60 21.00
65574 2022-07-31 03:03:50 Terrasse 21.30 19.51 1.00
65573 2022-07-31 02:57:03 Bahnzimmer 20.00 18.60 21.00
65572 2022-07-31 02:35:42 Terrasse 21.60 19.84 1.00
65571 2022-07-31 02:07:28 Terrasse 21.90 20.17 1.00
65570 2022-07-31 01:56:57 Bahnzimmer 20.00 18.60 21.00
65569 2022-07-31 01:39:16 Terrasse 22.10 20.39 1.00
65568 2022-07-31 01:26:56 Bahnzimmer 20.00 18.60 21.00
65567 2022-07-31 01:11:04 Terrasse 22.40 20.72 1.00
65566 2022-07-31 00:56:56 Bahnzimmer 20.00 18.60 21.00
65565 2022-07-31 00:42:50 Terrasse 22.50 20.83 1.00
65564 2022-07-31 00:26:55 Bahnzimmer 20.00 18.60 21.00
65563 2022-07-31 00:14:28 Terrasse 22.50 20.83 1.00
65562 2022-07-30 23:56:54 Bahnzimmer 21.00 19.68 20.00
65561 2022-07-30 23:46:09 Terrasse 22.60 20.94 1.00
65560 2022-07-30 23:26:54 Bahnzimmer 20.00 18.60 21.00
65559 2022-07-30 23:17:50 Terrasse 22.70 21.05 1.00
65558 2022-07-30 22:56:53 Bahnzimmer 21.00 19.68 20.00
65557 2022-07-30 22:49:32 Terrasse 22.80 21.16 1.00
65556 2022-07-30 22:26:52 Bahnzimmer 21.00 19.68 20.00
65555 2022-07-30 22:21:14 Terrasse 23.30 21.71 1.00
65554 2022-07-30 21:56:52 Bahnzimmer 21.00 19.68 20.00
65553 2022-07-30 21:52:55 Terrasse 23.50 21.93 1.00
65552 2022-07-30 21:26:51 Bahnzimmer 20.00 18.76 27.00
65551 2022-07-30 21:24:38 Terrasse 23.80 22.26 1.00
65550 2022-07-30 20:56:50 Bahnzimmer 20.00 18.71 25.00
65549 2022-07-30 20:56:20 Terrasse 24.40 25.50 99.90
65548 2022-07-30 20:28:03 Terrasse 24.90 26.05 99.90
65547 2022-07-30 20:26:50 Bahnzimmer 20.00 18.68 24.00
65546 2022-07-30 19:59:47 Terrasse 25.40 26.53 99.90
65545 2022-07-30 19:56:49 Bahnzimmer 20.00 18.76 27.00
65544 2022-07-30 19:31:29 Terrasse 25.90 28.09 99.90
65543 2022-07-30 19:26:48 Bahnzimmer 20.00 18.76 27.00
65542 2022-07-30 19:03:12 Terrasse 26.40 29.74 99.90
65541 2022-07-30 18:56:47 Bahnzimmer 21.00 19.73 22.00
65540 2022-07-30 18:34:57 Terrasse 27.60 34.93 99.90
65539 2022-07-30 18:26:47 Bahnzimmer 21.00 19.83 26.00
65538 2022-07-30 18:06:38 Terrasse 27.30 25.22 1.00
65537 2022-07-30 17:56:46 Bahnzimmer 21.00 19.86 27.00
65536 2022-07-30 17:38:18 Terrasse 27.30 33.89 99.90
65535 2022-07-30 17:26:45 Bahnzimmer 21.00 19.83 26.00
65534 2022-07-30 17:10:01 Terrasse 27.90 25.67 1.00
65533 2022-07-30 16:56:45 Bahnzimmer 21.00 19.78 24.00
65532 2022-07-30 16:41:45 Terrasse 28.30 26.03 1.00
65531 2022-07-30 16:26:44 Bahnzimmer 21.00 19.86 27.00
65530 2022-07-30 16:13:30 Terrasse 28.50 26.12 1.00
65529 2022-07-30 15:56:43 Bahnzimmer 21.00 19.83 26.00
65528 2022-07-30 15:45:12 Terrasse 28.90 26.40 1.00
65527 2022-07-30 15:26:43 Bahnzimmer 21.00 19.96 31.00
65526 2022-07-30 15:16:53 Terrasse 29.20 26.66 1.00
65525 2022-07-30 14:56:42 Bahnzimmer 21.00 19.91 29.00
65524 2022-07-30 14:48:34 Terrasse 29.40 26.84 1.00
65523 2022-07-30 14:26:41 Bahnzimmer 21.00 19.91 29.00
65522 2022-07-30 14:20:18 Terrasse 29.70 27.03 1.00
65521 2022-07-30 13:56:41 Bahnzimmer 21.00 19.96 31.00
65520 2022-07-30 13:51:59 Terrasse 30.10 27.30 1.00
65519 2022-07-30 13:26:40 Bahnzimmer 20.00 18.89 32.00
65518 2022-07-30 13:23:42 Terrasse 31.00 28.00 1.00
65517 2022-07-30 12:56:39 Bahnzimmer 20.00 18.68 24.00
65516 2022-07-30 12:54:57 Terrasse 28.50 26.12 1.00
65515 2022-07-30 12:26:39 Bahnzimmer 20.00 18.66 23.00
65514 2022-07-30 12:26:36 Terrasse 26.90 25.67 1.00
65513 2022-07-30 11:58:06 Terrasse 25.80 27.77 99.90
65512 2022-07-30 11:56:38 Bahnzimmer 20.00 18.63 22.00
65511 2022-07-30 11:29:39 Terrasse 25.40 26.53 99.90
65510 2022-07-30 11:26:37 Bahnzimmer 20.00 18.68 24.00
65509 2022-07-30 11:01:02 Terrasse 23.80 22.26 1.00
65508 2022-07-30 10:56:37 Bahnzimmer 20.00 18.71 25.00
65507 2022-07-30 10:32:35 Terrasse 22.50 20.83 1.00
65506 2022-07-30 10:26:36 Bahnzimmer 20.00 18.68 24.00
65505 2022-07-30 10:04:08 Terrasse 21.40 22.20 99.90
65504 2022-07-30 09:56:35 Bahnzimmer 20.00 18.60 21.00
65503 2022-07-30 09:35:43 Terrasse 20.60 21.32 99.90
65502 2022-07-30 09:26:34 Bahnzimmer 20.00 18.71 25.00
65501 2022-07-30 09:07:16 Terrasse 19.70 17.75 1.00
65500 2022-07-30 08:56:34 Bahnzimmer 20.00 18.79 28.00
65499 2022-07-30 08:38:50 Terrasse 18.80 17.96 46.90
65498 2022-07-30 08:26:33 Bahnzimmer 20.00 18.89 32.00
65497 2022-07-30 08:10:27 Terrasse 18.40 16.32 1.00
65496 2022-07-30 07:56:32 Bahnzimmer 20.00 18.79 28.00
65495 2022-07-30 07:42:04 Terrasse 17.90 15.77 1.00
65494 2022-07-30 07:26:31 Bahnzimmer 20.00 18.76 27.00
65493 2022-07-30 07:13:44 Terrasse 17.60 18.02 99.90
65492 2022-07-30 06:56:31 Bahnzimmer 20.00 18.79 28.00
65491 2022-07-30 06:45:25 Terrasse 17.80 18.24 99.90
65490 2022-07-30 06:26:30 Bahnzimmer 20.00 18.71 25.00
65489 2022-07-30 06:17:05 Terrasse 17.90 18.35 99.90
65488 2022-07-30 05:56:29 Bahnzimmer 20.00 18.76 27.00
65487 2022-07-30 05:48:47 Terrasse 18.20 16.10 1.00
65486 2022-07-30 05:26:29 Bahnzimmer 20.00 18.76 27.00
65485 2022-07-30 05:21:03 Terrasse 18.40 16.32 1.00
65484 2022-07-30 04:56:28 Bahnzimmer 20.00 18.79 28.00
65483 2022-07-30 04:51:17 Terrasse 18.30 16.21 1.00
65482 2022-07-30 04:26:27 Bahnzimmer 20.00 18.76 27.00
65481 2022-07-30 04:21:16 Terrasse 18.30 18.79 99.90
65480 2022-07-30 03:56:27 Bahnzimmer 20.00 18.86 31.00
65479 2022-07-30 03:53:13 Terrasse 18.70 16.96 12.90
65478 2022-07-30 03:26:26 Bahnzimmer 20.00 18.79 28.00
65477 2022-07-30 02:56:25 Bahnzimmer 20.00 18.86 31.00
65476 2022-07-30 02:53:54 Terrasse 19.30 17.31 1.00
65475 2022-07-30 02:26:24 Bahnzimmer 20.00 18.76 27.00
65474 2022-07-30 02:24:53 Terrasse 19.40 20.00 99.90
65473 2022-07-30 01:56:46 Terrasse 19.50 17.53 1.00
65472 2022-07-30 01:56:24 Bahnzimmer 20.00 18.76 27.00
65471 2022-07-30 01:28:42 Terrasse 19.50 20.11 99.90
65470 2022-07-30 01:26:23 Bahnzimmer 20.00 18.84 30.00
65469 2022-07-30 01:00:39 Terrasse 19.70 20.33 99.90
65468 2022-07-30 00:56:22 Bahnzimmer 20.00 18.84 30.00
65467 2022-07-30 00:31:35 Terrasse 20.20 20.88 99.90
65466 2022-07-30 00:26:22 Bahnzimmer 20.00 18.76 27.00
65465 2022-07-30 00:03:27 Terrasse 20.40 19.92 54.60
65464 2022-07-29 23:56:21 Bahnzimmer 20.00 18.84 30.00
65463 2022-07-29 23:35:03 Terrasse 20.70 18.85 1.00
65462 2022-07-29 23:26:20 Bahnzimmer 20.00 18.84 30.00
65461 2022-07-29 23:06:45 Terrasse 20.80 21.54 99.90
65460 2022-07-29 22:56:20 Bahnzimmer 20.00 18.76 27.00
65459 2022-07-29 22:38:26 Terrasse 20.90 21.65 99.90
65458 2022-07-29 22:26:19 Bahnzimmer 20.00 18.84 30.00
65457 2022-07-29 22:10:09 Terrasse 21.00 21.76 99.90
65456 2022-07-29 21:56:18 Bahnzimmer 20.00 18.79 28.00
65455 2022-07-29 21:41:51 Terrasse 21.10 21.82 97.90
65454 2022-07-29 21:26:17 Bahnzimmer 20.00 18.76 27.00
65453 2022-07-29 21:13:36 Terrasse 21.60 19.84 1.00
65452 2022-07-29 20:56:17 Bahnzimmer 21.00 19.83 26.00
65451 2022-07-29 20:45:19 Terrasse 22.00 22.86 99.90
65450 2022-07-29 20:26:16 Bahnzimmer 20.00 18.76 27.00
65449 2022-07-29 20:17:04 Terrasse 22.80 23.74 99.90
65448 2022-07-29 19:56:15 Bahnzimmer 21.00 19.83 26.00
65447 2022-07-29 19:48:47 Terrasse 23.50 21.93 1.00
65446 2022-07-29 19:26:15 Bahnzimmer 21.00 19.91 29.00
65445 2022-07-29 19:20:30 Terrasse 23.70 24.73 99.90
65444 2022-07-29 18:56:14 Bahnzimmer 21.00 19.96 31.00
65443 2022-07-29 18:52:13 Terrasse 24.20 22.70 1.00
65442 2022-07-29 18:26:13 Bahnzimmer 21.00 19.96 31.00
65441 2022-07-29 18:23:48 Terrasse 23.50 22.58 25.80
65440 2022-07-29 17:56:13 Bahnzimmer 21.00 19.73 22.00
65439 2022-07-29 17:55:33 Terrasse 24.00 22.48 1.00
65438 2022-07-29 17:27:21 Terrasse 24.90 23.47 1.00
65437 2022-07-29 17:26:12 Bahnzimmer 21.00 19.76 23.00
65436 2022-07-29 16:59:06 Terrasse 25.90 24.57 1.00
65435 2022-07-29 16:56:11 Bahnzimmer 21.00 19.73 22.00
65434 2022-07-29 16:30:52 Terrasse 27.00 25.78 1.00
65433 2022-07-29 16:26:11 Bahnzimmer 21.00 19.68 20.00
65432 2022-07-29 16:02:46 Terrasse 27.80 25.58 1.00
65431 2022-07-29 15:56:10 Bahnzimmer 20.00 18.60 21.00
65430 2022-07-29 15:34:34 Terrasse 29.40 26.84 1.00
65429 2022-07-29 15:26:09 Bahnzimmer 20.00 18.60 21.00
65428 2022-07-29 15:06:20 Terrasse 30.30 27.47 1.00
65427 2022-07-29 14:56:09 Bahnzimmer 20.00 18.60 21.00
65426 2022-07-29 14:38:01 Terrasse 30.50 27.64 1.00
65425 2022-07-29 14:26:08 Bahnzimmer 20.00 18.68 24.00
65424 2022-07-29 14:09:47 Terrasse 31.00 28.00 1.00
65423 2022-07-29 13:56:07 Bahnzimmer 20.00 18.60 21.00
65422 2022-07-29 13:41:35 Terrasse 31.00 28.00 1.00
65421 2022-07-29 13:26:07 Bahnzimmer 20.00 18.66 23.00
65420 2022-07-29 13:13:10 Terrasse 32.00 28.71 1.00
65419 2022-07-29 12:56:06 Bahnzimmer 20.00 18.73 26.00
65418 2022-07-29 12:44:29 Terrasse 28.60 26.21 1.00
65417 2022-07-29 12:26:05 Bahnzimmer 20.00 18.76 27.00
65416 2022-07-29 12:16:13 Terrasse 28.00 25.76 1.00
65415 2022-07-29 11:56:05 Bahnzimmer 20.00 18.84 30.00
65414 2022-07-29 11:47:36 Terrasse 26.40 25.12 1.00
65413 2022-07-29 11:26:04 Bahnzimmer 20.00 18.89 32.00
65412 2022-07-29 11:19:11 Terrasse 25.90 24.57 1.00
65411 2022-07-29 10:56:03 Bahnzimmer 20.00 18.89 32.00
65410 2022-07-29 10:50:36 Terrasse 24.20 24.17 57.20
65409 2022-07-29 10:26:02 Bahnzimmer 20.00 18.92 33.00
65408 2022-07-29 10:22:10 Terrasse 23.00 23.96 99.90
65407 2022-07-29 09:56:02 Bahnzimmer 20.00 18.97 35.00
65406 2022-07-29 09:53:44 Terrasse 21.90 22.75 99.90
65405 2022-07-29 09:26:01 Bahnzimmer 19.00 18.03 41.00
65404 2022-07-29 09:25:19 Terrasse 21.20 21.54 83.00
65403 2022-07-29 08:56:55 Terrasse 20.20 18.30 1.00
65402 2022-07-29 08:56:00 Bahnzimmer 19.00 18.05 42.00
65401 2022-07-29 08:28:32 Terrasse 19.60 20.22 99.90
65400 2022-07-29 08:26:00 Bahnzimmer 19.00 18.08 43.00
65399 2022-07-29 08:00:11 Terrasse 19.00 16.98 1.00
65398 2022-07-29 07:55:59 Bahnzimmer 19.00 18.05 42.00
65397 2022-07-29 07:31:51 Terrasse 18.40 16.32 1.00
65396 2022-07-29 07:25:58 Bahnzimmer 20.00 18.60 21.00
65395 2022-07-29 07:03:33 Terrasse 18.40 16.32 1.00
65394 2022-07-29 06:55:58 Bahnzimmer 20.00 18.60 21.00
65393 2022-07-29 06:35:15 Terrasse 18.50 16.43 1.00
65392 2022-07-29 06:25:57 Bahnzimmer 20.00 18.60 21.00
65391 2022-07-29 06:06:59 Terrasse 18.90 16.87 1.00
65390 2022-07-29 05:55:56 Bahnzimmer 20.00 18.60 21.00
65389 2022-07-29 05:38:44 Terrasse 19.40 17.42 1.00
65388 2022-07-29 05:25:56 Bahnzimmer 20.00 18.60 21.00
65387 2022-07-29 05:10:28 Terrasse 19.80 17.86 1.00
65386 2022-07-29 04:55:55 Bahnzimmer 20.00 18.60 21.00
65385 2022-07-29 04:42:14 Terrasse 20.80 18.96 1.00
65384 2022-07-29 04:25:54 Bahnzimmer 20.00 18.60 21.00
65383 2022-07-29 04:13:56 Terrasse 21.10 19.29 1.00
65382 2022-07-29 03:55:53 Bahnzimmer 20.00 18.60 21.00
65381 2022-07-29 03:45:37 Terrasse 21.10 19.29 1.00
65380 2022-07-29 03:25:53 Bahnzimmer 20.00 18.60 21.00
65379 2022-07-29 03:17:20 Terrasse 21.20 19.40 1.00
65378 2022-07-29 02:55:52 Bahnzimmer 20.00 18.60 21.00
65377 2022-07-29 02:49:04 Terrasse 21.20 19.40 1.00
65376 2022-07-29 02:25:51 Bahnzimmer 20.00 18.60 21.00
65375 2022-07-29 02:20:50 Terrasse 22.30 20.61 1.00
65374 2022-07-29 01:55:51 Bahnzimmer 20.00 18.60 21.00
65373 2022-07-29 01:52:33 Terrasse 22.50 23.41 99.90
65372 2022-07-29 01:25:50 Bahnzimmer 20.00 18.60 21.00
65371 2022-07-29 01:24:15 Terrasse 22.70 23.63 99.90
65370 2022-07-29 00:55:57 Terrasse 22.70 23.63 99.90
65369 2022-07-29 00:55:49 Bahnzimmer 20.00 18.60 21.00
65368 2022-07-29 00:27:38 Terrasse 22.80 23.74 99.90
65367 2022-07-29 00:25:49 Bahnzimmer 20.00 18.60 21.00
65366 2022-07-28 23:59:20 Terrasse 23.00 23.96 99.90
65365 2022-07-28 23:55:48 Bahnzimmer 21.00 19.68 20.00
65364 2022-07-28 23:31:02 Terrasse 23.10 24.07 99.90
65363 2022-07-28 23:25:47 Bahnzimmer 20.00 18.60 21.00
65362 2022-07-28 23:02:43 Terrasse 23.30 24.29 99.90
65361 2022-07-28 22:55:47 Bahnzimmer 20.00 18.60 21.00
65360 2022-07-28 22:34:25 Terrasse 23.40 24.40 99.90
65359 2022-07-28 22:25:46 Bahnzimmer 20.00 18.60 21.00
65358 2022-07-28 22:06:05 Terrasse 23.60 24.62 99.90
65357 2022-07-28 21:55:45 Bahnzimmer 21.00 19.68 20.00
65356 2022-07-28 21:37:47 Terrasse 23.90 22.37 1.00
65355 2022-07-28 21:25:45 Bahnzimmer 21.00 19.68 20.00
65354 2022-07-28 21:09:29 Terrasse 24.20 22.70 1.00
65353 2022-07-28 20:55:44 Bahnzimmer 21.00 19.68 20.00
65352 2022-07-28 20:41:15 Terrasse 24.70 23.25 1.00
65351 2022-07-28 20:25:43 Bahnzimmer 21.00 19.68 20.00
65350 2022-07-28 20:12:59 Terrasse 25.20 23.80 1.00
65349 2022-07-28 19:55:43 Bahnzimmer 21.00 19.68 20.00
65348 2022-07-28 19:44:41 Terrasse 25.50 24.13 1.00
65347 2022-07-28 19:25:42 Bahnzimmer 21.00 19.68 20.00
65346 2022-07-28 19:16:22 Terrasse 25.90 24.57 1.00
65345 2022-07-28 18:55:41 Bahnzimmer 21.00 19.68 20.00
65344 2022-07-28 18:48:06 Terrasse 26.00 24.68 1.00
65343 2022-07-28 18:25:41 Bahnzimmer 21.00 19.68 20.00
65342 2022-07-28 18:19:47 Terrasse 26.40 25.12 1.00
65341 2022-07-28 17:55:40 Bahnzimmer 21.00 19.65 19.00
65340 2022-07-28 17:51:29 Terrasse 26.60 30.42 99.90
65339 2022-07-28 17:25:39 Bahnzimmer 21.00 19.68 20.00
65338 2022-07-28 17:23:10 Terrasse 27.10 33.22 99.90
65337 2022-07-28 16:55:39 Bahnzimmer 21.00 19.68 20.00
65336 2022-07-28 16:54:52 Terrasse 27.40 25.31 1.00
65335 2022-07-28 16:26:34 Terrasse 27.80 25.58 1.00
65334 2022-07-28 16:25:38 Bahnzimmer 20.00 18.58 20.00
65333 2022-07-28 15:58:16 Terrasse 28.10 25.85 1.00
65332 2022-07-28 15:55:37 Bahnzimmer 20.00 18.58 20.00
65331 2022-07-28 15:30:00 Terrasse 28.50 26.12 1.00
65330 2022-07-28 15:25:36 Bahnzimmer 21.00 19.65 19.00
65329 2022-07-28 15:01:41 Terrasse 29.10 26.58 1.00
65328 2022-07-28 14:55:36 Bahnzimmer 20.00 18.58 20.00
65327 2022-07-28 14:33:25 Terrasse 29.40 26.84 1.00
65326 2022-07-28 14:25:35 Bahnzimmer 20.00 18.58 20.00
65325 2022-07-28 14:05:18 Terrasse 31.20 28.10 1.00
65324 2022-07-28 13:55:34 Bahnzimmer 20.00 18.58 20.00
65323 2022-07-28 13:36:54 Terrasse 30.60 27.66 1.00
65322 2022-07-28 13:25:34 Bahnzimmer 20.00 18.58 20.00
65321 2022-07-28 13:08:22 Terrasse 30.50 27.64 1.00
65320 2022-07-28 12:55:33 Bahnzimmer 20.00 18.58 20.00
65319 2022-07-28 12:39:43 Terrasse 26.90 25.67 1.00
65318 2022-07-28 12:25:32 Bahnzimmer 20.00 18.58 20.00
65317 2022-07-28 12:11:22 Terrasse 26.20 24.90 1.00
65316 2022-07-28 11:55:32 Bahnzimmer 20.00 18.58 20.00
65315 2022-07-28 11:42:55 Terrasse 25.20 23.80 1.00
65314 2022-07-28 11:25:31 Bahnzimmer 20.00 18.58 20.00
65313 2022-07-28 11:14:28 Terrasse 24.20 22.70 1.00
65312 2022-07-28 10:55:30 Bahnzimmer 20.00 18.55 19.00
65311 2022-07-28 10:45:56 Terrasse 22.60 20.94 1.00
65310 2022-07-28 10:25:30 Bahnzimmer 20.00 18.55 19.00
65309 2022-07-28 10:17:29 Terrasse 21.40 19.62 1.00
65308 2022-07-28 09:55:29 Bahnzimmer 19.00 17.45 19.00
65307 2022-07-28 09:49:04 Terrasse 20.40 18.52 1.00
65306 2022-07-28 09:25:28 Bahnzimmer 19.00 17.45 19.00
65305 2022-07-28 09:20:41 Terrasse 19.60 17.64 1.00
65304 2022-07-28 08:55:28 Bahnzimmer 19.00 17.45 19.00
65303 2022-07-28 08:52:19 Terrasse 19.00 16.98 1.00
65302 2022-07-28 08:25:27 Bahnzimmer 19.00 17.45 19.00
65301 2022-07-28 08:23:57 Terrasse 18.60 16.54 1.00
65300 2022-07-28 07:55:36 Terrasse 18.10 15.99 1.00
65299 2022-07-28 07:55:26 Bahnzimmer 19.00 17.45 19.00
65298 2022-07-28 07:27:16 Terrasse 17.90 15.77 1.00
65297 2022-07-28 07:25:26 Bahnzimmer 20.00 18.55 19.00
65296 2022-07-28 06:58:56 Terrasse 17.70 15.55 1.00
65295 2022-07-28 06:55:25 Bahnzimmer 20.00 18.60 21.00
65294 2022-07-28 06:30:37 Terrasse 17.70 15.55 1.00
65293 2022-07-28 06:25:24 Bahnzimmer 21.00 19.68 20.00
65292 2022-07-28 06:02:18 Terrasse 17.60 15.44 1.00
65291 2022-07-28 05:55:23 Bahnzimmer 21.00 19.68 20.00
65290 2022-07-28 05:33:59 Terrasse 17.50 15.33 1.00
65289 2022-07-28 05:25:23 Bahnzimmer 21.00 19.68 20.00
65288 2022-07-28 05:05:41 Terrasse 17.50 15.33 1.00
65287 2022-07-28 04:55:22 Bahnzimmer 21.00 19.68 20.00
65286 2022-07-28 04:37:22 Terrasse 17.50 15.33 1.00
65285 2022-07-28 04:25:21 Bahnzimmer 21.00 19.68 20.00
65284 2022-07-28 04:09:02 Terrasse 17.50 15.33 1.00
65283 2022-07-28 03:55:21 Bahnzimmer 21.00 19.68 20.00
65282 2022-07-28 03:40:44 Terrasse 17.60 15.44 1.00
65281 2022-07-28 03:25:20 Bahnzimmer 21.00 19.68 20.00
65280 2022-07-28 03:12:26 Terrasse 17.70 15.55 1.00
65279 2022-07-28 02:55:19 Bahnzimmer 21.00 19.68 20.00
65278 2022-07-28 02:44:08 Terrasse 17.80 15.66 1.00
65277 2022-07-28 02:25:18 Bahnzimmer 21.00 19.68 20.00
65276 2022-07-28 02:15:49 Terrasse 18.00 15.88 1.00
65275 2022-07-28 01:55:18 Bahnzimmer 21.00 19.68 20.00
65274 2022-07-28 01:47:30 Terrasse 18.10 15.99 1.00
65273 2022-07-28 01:25:17 Bahnzimmer 21.00 19.65 19.00
65272 2022-07-28 01:19:12 Terrasse 18.30 16.21 1.00
65271 2022-07-28 00:55:16 Bahnzimmer 21.00 19.65 19.00
65270 2022-07-28 00:50:54 Terrasse 18.40 16.32 1.00
65269 2022-07-28 00:25:16 Bahnzimmer 21.00 19.65 19.00
65268 2022-07-28 00:22:36 Terrasse 18.70 16.65 1.00
65267 2022-07-27 23:55:15 Bahnzimmer 21.00 19.65 19.00
65266 2022-07-27 23:54:34 Terrasse 19.00 16.98 1.00
65265 2022-07-27 23:26:43 Terrasse 19.10 17.09 1.00
65264 2022-07-27 23:25:14 Bahnzimmer 21.00 19.65 19.00
65263 2022-07-27 22:58:22 Terrasse 19.40 17.42 1.00
65262 2022-07-27 22:55:14 Bahnzimmer 21.00 19.65 19.00
65261 2022-07-27 22:25:13 Bahnzimmer 21.00 19.63 18.00
65260 2022-07-27 21:59:29 Terrasse 19.50 17.53 1.00
65259 2022-07-27 21:55:12 Bahnzimmer 20.00 18.55 19.00
65258 2022-07-27 21:31:24 Terrasse 20.10 18.19 1.00
65257 2022-07-27 21:25:12 Bahnzimmer 21.00 19.63 18.00
65256 2022-07-27 21:03:17 Terrasse 20.70 18.85 1.00
65255 2022-07-27 20:55:11 Bahnzimmer 21.00 19.63 18.00
65254 2022-07-27 20:35:09 Terrasse 21.30 19.51 1.00
65253 2022-07-27 20:25:10 Bahnzimmer 21.00 19.63 18.00
65252 2022-07-27 20:07:00 Terrasse 21.90 20.17 1.00
65251 2022-07-27 19:55:09 Bahnzimmer 21.00 19.63 18.00
65250 2022-07-27 19:38:42 Terrasse 22.40 20.72 1.00
65249 2022-07-27 19:25:09 Bahnzimmer 21.00 19.68 20.00
65248 2022-07-27 19:10:35 Terrasse 23.00 21.38 1.00
65247 2022-07-27 18:55:08 Bahnzimmer 21.00 19.68 20.00
65246 2022-07-27 18:42:26 Terrasse 23.40 21.82 1.00
65245 2022-07-27 18:25:07 Bahnzimmer 21.00 19.68 20.00
65244 2022-07-27 18:14:06 Terrasse 23.70 22.15 1.00
65243 2022-07-27 17:55:07 Bahnzimmer 21.00 19.68 20.00
65242 2022-07-27 17:45:48 Terrasse 23.90 22.37 1.00
65241 2022-07-27 17:25:06 Bahnzimmer 21.00 19.68 20.00
65240 2022-07-27 17:17:30 Terrasse 24.00 22.48 1.00
65239 2022-07-27 16:49:21 Terrasse 23.60 22.04 1.00
65238 2022-07-27 16:25:00 Bahnzimmer 21.00 19.68 20.00
65237 2022-07-27 16:21:02 Terrasse 23.60 22.04 1.00
65236 2022-07-27 15:54:59 Bahnzimmer 21.00 19.68 20.00
65235 2022-07-27 15:52:46 Terrasse 24.00 22.48 1.00
65234 2022-07-27 15:24:58 Bahnzimmer 21.00 19.68 20.00
65233 2022-07-27 15:24:33 Terrasse 24.60 23.14 1.00
65232 2022-07-27 14:56:13 Terrasse 25.00 23.58 1.00
65231 2022-07-27 14:54:58 Bahnzimmer 21.00 19.68 20.00
65230 2022-07-27 14:27:59 Terrasse 25.40 24.02 1.00
65229 2022-07-27 14:24:57 Bahnzimmer 21.00 19.68 20.00
65228 2022-07-27 13:59:29 Terrasse 23.10 21.49 1.00
65227 2022-07-27 13:54:56 Bahnzimmer 21.00 19.68 20.00
65226 2022-07-27 13:31:21 Terrasse 24.50 23.03 1.00
65225 2022-07-27 13:24:56 Bahnzimmer 21.00 19.65 19.00
65224 2022-07-27 13:03:01 Terrasse 23.10 21.49 1.00
65223 2022-07-27 12:54:55 Bahnzimmer 21.00 19.65 19.00
65222 2022-07-27 12:34:54 Terrasse 24.20 22.70 1.00
65221 2022-07-27 12:24:54 Bahnzimmer 20.00 18.58 20.00
65220 2022-07-27 12:06:25 Terrasse 23.00 21.38 1.00
65219 2022-07-27 11:54:54 Bahnzimmer 21.00 19.68 20.00
65218 2022-07-27 11:37:55 Terrasse 22.20 20.50 1.00
65217 2022-07-27 11:24:53 Bahnzimmer 21.00 19.68 20.00
65216 2022-07-27 11:09:24 Terrasse 21.50 19.73 1.00
65215 2022-07-27 10:54:52 Bahnzimmer 21.00 19.70 21.00
65214 2022-07-27 10:41:02 Terrasse 21.20 19.56 6.90
65213 2022-07-27 10:24:52 Bahnzimmer 20.00 18.60 21.00
65212 2022-07-27 10:12:40 Terrasse 21.20 21.98 99.90
65211 2022-07-27 09:54:51 Bahnzimmer 20.00 18.60 21.00
65210 2022-07-27 09:44:24 Terrasse 20.10 18.19 1.00
65209 2022-07-27 09:24:50 Bahnzimmer 20.00 18.60 21.00
65208 2022-07-27 09:16:09 Terrasse 19.10 19.67 99.90
65207 2022-07-27 08:54:50 Bahnzimmer 19.00 17.50 21.00
65206 2022-07-27 08:47:53 Terrasse 19.10 17.09 1.00
65205 2022-07-27 08:24:49 Bahnzimmer 19.00 17.50 21.00
65204 2022-07-27 08:19:32 Terrasse 19.10 19.67 99.90
65203 2022-07-27 07:54:48 Bahnzimmer 19.00 17.50 21.00
65202 2022-07-27 07:51:10 Terrasse 18.80 16.76 1.00
65201 2022-07-27 07:24:48 Bahnzimmer 19.00 17.50 21.00
65200 2022-07-27 07:22:53 Terrasse 18.50 16.43 1.00
65199 2022-07-27 06:54:47 Bahnzimmer 20.00 18.60 21.00
65198 2022-07-27 06:54:47 Terrasse 18.50 19.01 99.90
65197 2022-07-27 06:26:26 Terrasse 18.60 19.12 99.90
65196 2022-07-27 06:24:46 Bahnzimmer 21.00 19.68 20.00
65195 2022-07-27 05:58:08 Terrasse 18.80 19.34 99.90
65194 2022-07-27 05:54:45 Bahnzimmer 21.00 19.96 31.00
65193 2022-07-27 05:29:50 Terrasse 18.80 16.76 1.00
65192 2022-07-27 05:24:45 Bahnzimmer 21.00 19.96 31.00
65191 2022-07-27 05:01:33 Terrasse 19.10 19.67 99.90
65190 2022-07-27 04:54:44 Bahnzimmer 21.00 19.96 31.00
65189 2022-07-27 04:33:16 Terrasse 19.20 19.78 99.90
65188 2022-07-27 04:24:43 Bahnzimmer 21.00 19.96 31.00
65187 2022-07-27 04:05:00 Terrasse 19.50 20.11 99.90
65186 2022-07-27 03:54:43 Bahnzimmer 21.00 19.96 31.00
65185 2022-07-27 03:36:43 Terrasse 19.60 20.22 99.90
65184 2022-07-27 03:24:42 Bahnzimmer 21.00 19.96 31.00
65183 2022-07-27 03:08:28 Terrasse 19.80 17.86 1.00
65182 2022-07-27 02:54:41 Bahnzimmer 21.00 19.96 31.00
65181 2022-07-27 02:40:12 Terrasse 20.00 18.08 1.00
65180 2022-07-27 02:24:40 Bahnzimmer 21.00 19.94 30.00
65179 2022-07-27 02:11:56 Terrasse 20.30 18.41 1.00
65178 2022-07-27 01:54:40 Bahnzimmer 21.00 19.91 29.00
65177 2022-07-27 01:43:39 Terrasse 20.50 21.21 99.90
65176 2022-07-27 01:24:39 Bahnzimmer 21.00 19.83 26.00
65175 2022-07-27 01:15:21 Terrasse 20.80 18.96 1.00
65174 2022-07-27 00:54:38 Bahnzimmer 21.00 19.91 29.00
65173 2022-07-27 00:47:04 Terrasse 21.10 19.29 1.00
65172 2022-07-27 00:24:38 Bahnzimmer 21.00 19.96 31.00
65171 2022-07-27 00:18:48 Terrasse 21.40 19.62 1.00
65170 2022-07-26 23:54:37 Bahnzimmer 21.00 19.83 26.00
65169 2022-07-26 23:50:31 Terrasse 21.60 19.84 1.00
65168 2022-07-26 23:24:36 Bahnzimmer 21.00 19.83 26.00
65167 2022-07-26 23:22:15 Terrasse 21.90 20.17 1.00
65166 2022-07-26 22:54:36 Bahnzimmer 21.00 19.73 22.00
65165 2022-07-26 22:53:57 Terrasse 22.20 20.50 1.00
65164 2022-07-26 22:25:40 Terrasse 22.40 20.72 1.00
65163 2022-07-26 22:24:35 Bahnzimmer 21.00 19.83 26.00
65162 2022-07-26 21:57:22 Terrasse 22.60 20.94 1.00
65161 2022-07-26 21:54:34 Bahnzimmer 21.00 19.73 22.00
65160 2022-07-26 21:29:07 Terrasse 22.90 21.27 1.00
65159 2022-07-26 21:24:34 Bahnzimmer 21.00 19.83 26.00
65158 2022-07-26 21:00:50 Terrasse 23.30 21.71 1.00
65157 2022-07-26 20:54:33 Bahnzimmer 21.00 19.70 21.00
65156 2022-07-26 20:32:35 Terrasse 23.70 22.15 1.00
65155 2022-07-26 20:24:32 Bahnzimmer 21.00 19.68 20.00
65154 2022-07-26 20:04:18 Terrasse 24.30 22.81 1.00
65153 2022-07-26 19:54:31 Bahnzimmer 21.00 19.68 20.00
65152 2022-07-26 19:36:04 Terrasse 24.80 23.36 1.00
65151 2022-07-26 19:24:31 Bahnzimmer 21.00 19.68 20.00
65150 2022-07-26 19:07:49 Terrasse 25.30 23.91 1.00
65149 2022-07-26 18:54:30 Bahnzimmer 21.00 19.68 20.00
65148 2022-07-26 18:39:34 Terrasse 25.70 24.35 1.00
65147 2022-07-26 18:24:29 Bahnzimmer 22.00 20.78 20.00
65146 2022-07-26 18:11:18 Terrasse 26.20 24.90 1.00
65145 2022-07-26 17:54:29 Bahnzimmer 22.00 20.78 20.00
65144 2022-07-26 17:42:59 Terrasse 26.30 25.01 1.00
65143 2022-07-26 17:24:28 Bahnzimmer 22.00 20.78 20.00
65142 2022-07-26 17:14:41 Terrasse 26.60 25.34 1.00
65141 2022-07-26 16:54:27 Bahnzimmer 22.00 20.78 20.00
65140 2022-07-26 16:46:20 Terrasse 26.40 25.12 1.00
65139 2022-07-26 16:24:27 Bahnzimmer 22.00 21.06 31.00
65138 2022-07-26 16:18:01 Terrasse 26.30 25.01 1.00
65137 2022-07-26 15:54:26 Bahnzimmer 22.00 21.06 31.00
65136 2022-07-26 15:49:47 Terrasse 27.20 26.00 1.00
65135 2022-07-26 15:24:25 Bahnzimmer 21.00 19.96 31.00
65134 2022-07-26 15:21:23 Terrasse 27.00 25.78 1.00
65133 2022-07-26 14:54:25 Bahnzimmer 21.00 19.96 31.00
65132 2022-07-26 14:53:10 Terrasse 27.10 25.89 1.00
65131 2022-07-26 14:25:01 Terrasse 28.90 26.40 1.00
65130 2022-07-26 14:24:24 Bahnzimmer 21.00 19.91 29.00
65129 2022-07-26 13:56:27 Terrasse 27.10 25.89 1.00
65128 2022-07-26 13:54:23 Bahnzimmer 21.00 19.96 31.00
65127 2022-07-26 13:27:57 Terrasse 26.40 25.12 1.00
65126 2022-07-26 13:24:22 Bahnzimmer 21.00 19.96 31.00
65125 2022-07-26 12:59:46 Terrasse 28.70 26.30 1.00
65124 2022-07-26 12:54:22 Bahnzimmer 21.00 19.83 26.00
65123 2022-07-26 12:31:27 Terrasse 26.70 25.45 1.00
65122 2022-07-26 12:24:21 Bahnzimmer 21.00 19.96 31.00
65121 2022-07-26 12:02:45 Terrasse 24.10 22.59 1.00
65120 2022-07-26 11:54:20 Bahnzimmer 21.00 19.68 20.00
65119 2022-07-26 11:34:42 Terrasse 25.30 23.91 1.00
65118 2022-07-26 11:24:20 Bahnzimmer 21.00 19.96 31.00
65117 2022-07-26 11:06:18 Terrasse 24.60 23.14 1.00
65116 2022-07-26 10:54:19 Bahnzimmer 21.00 19.96 31.00
65115 2022-07-26 10:37:53 Terrasse 23.10 22.76 49.70
65114 2022-07-26 10:24:18 Bahnzimmer 21.00 19.96 31.00
65113 2022-07-26 10:09:33 Terrasse 22.80 23.74 99.90
65112 2022-07-26 09:54:17 Bahnzimmer 20.00 18.68 24.00
65111 2022-07-26 09:41:10 Terrasse 21.90 22.75 99.90
65110 2022-07-26 09:24:17 Bahnzimmer 20.00 18.73 26.00
65109 2022-07-26 09:12:46 Terrasse 21.00 19.18 1.00
65108 2022-07-26 08:54:16 Bahnzimmer 20.00 18.68 24.00
65107 2022-07-26 08:44:23 Terrasse 20.30 18.41 1.00
65106 2022-07-26 08:24:15 Bahnzimmer 20.00 18.66 23.00
65105 2022-07-26 08:16:03 Terrasse 20.00 18.08 1.00
65104 2022-07-26 07:54:15 Bahnzimmer 20.00 18.60 21.00
65103 2022-07-26 07:47:46 Terrasse 20.20 18.30 1.00
65102 2022-07-26 07:24:14 Bahnzimmer 20.00 18.60 21.00
65101 2022-07-26 07:19:27 Terrasse 19.90 17.97 1.00
65100 2022-07-26 06:54:13 Bahnzimmer 20.00 18.60 21.00
65099 2022-07-26 06:51:11 Terrasse 20.10 20.77 99.90
65098 2022-07-26 06:24:13 Bahnzimmer 20.00 18.60 21.00
65097 2022-07-26 06:22:54 Terrasse 20.30 20.99 99.90
65096 2022-07-26 05:54:35 Terrasse 19.90 20.55 99.90
65095 2022-07-26 05:54:12 Bahnzimmer 21.00 20.07 35.00
65094 2022-07-26 05:26:20 Terrasse 20.20 20.88 99.90
65093 2022-07-26 05:24:11 Bahnzimmer 21.00 20.07 35.00
65092 2022-07-26 04:58:05 Terrasse 20.60 21.14 93.00
65091 2022-07-26 04:54:11 Bahnzimmer 21.00 20.10 36.00
65090 2022-07-26 04:29:49 Terrasse 21.00 19.18 1.00
65089 2022-07-26 04:24:10 Bahnzimmer 21.00 20.10 36.00
65088 2022-07-26 04:01:33 Terrasse 21.40 19.62 1.00
65087 2022-07-26 03:54:09 Bahnzimmer 21.00 20.10 36.00
65086 2022-07-26 03:33:16 Terrasse 21.40 19.62 1.00
65085 2022-07-26 03:24:08 Bahnzimmer 21.00 20.10 36.00
65084 2022-07-26 03:04:58 Terrasse 21.30 19.51 1.00
65083 2022-07-26 02:54:08 Bahnzimmer 21.00 20.10 36.00
65082 2022-07-26 02:36:44 Terrasse 21.90 20.17 1.00
65081 2022-07-26 02:24:07 Bahnzimmer 21.00 20.10 36.00
65080 2022-07-26 02:08:29 Terrasse 22.20 20.50 1.00
65079 2022-07-26 01:54:06 Bahnzimmer 21.00 20.10 36.00
65078 2022-07-26 01:40:14 Terrasse 22.70 21.05 1.00
65077 2022-07-26 01:24:06 Bahnzimmer 21.00 20.10 36.00
65076 2022-07-26 01:11:58 Terrasse 23.00 21.38 1.00
65075 2022-07-26 00:54:05 Bahnzimmer 21.00 20.10 36.00
65074 2022-07-26 00:43:42 Terrasse 23.50 21.93 1.00
65073 2022-07-26 00:24:04 Bahnzimmer 21.00 20.10 36.00
65072 2022-07-26 00:15:28 Terrasse 23.90 22.37 1.00
65071 2022-07-25 23:54:04 Bahnzimmer 21.00 20.10 36.00
65070 2022-07-25 23:47:10 Terrasse 24.00 22.48 1.00
65069 2022-07-25 23:24:03 Bahnzimmer 21.00 20.12 37.00
65068 2022-07-25 23:18:53 Terrasse 24.40 22.92 1.00
65067 2022-07-25 22:54:02 Bahnzimmer 21.00 20.10 36.00
65066 2022-07-25 22:50:37 Terrasse 24.60 23.14 1.00
65065 2022-07-25 22:24:02 Bahnzimmer 22.00 21.20 36.00
65064 2022-07-25 22:22:21 Terrasse 24.80 23.36 1.00
65063 2022-07-25 21:54:04 Terrasse 25.30 23.91 1.00
65062 2022-07-25 21:54:01 Bahnzimmer 21.00 20.10 36.00
65061 2022-07-25 21:25:49 Terrasse 26.00 24.68 1.00
65060 2022-07-25 21:24:00 Bahnzimmer 21.00 20.12 37.00
65059 2022-07-25 20:57:34 Terrasse 26.70 25.45 1.00
65058 2022-07-25 20:54:00 Bahnzimmer 21.00 20.10 36.00
65057 2022-07-25 20:29:18 Terrasse 27.60 25.50 1.00
65056 2022-07-25 20:23:59 Bahnzimmer 22.00 21.22 37.00
65055 2022-07-25 20:01:03 Terrasse 28.30 26.03 1.00
65054 2022-07-25 19:53:58 Bahnzimmer 22.00 21.22 37.00
65053 2022-07-25 19:32:47 Terrasse 29.00 26.49 1.00
65052 2022-07-25 19:23:58 Bahnzimmer 22.00 21.22 37.00
65051 2022-07-25 19:04:31 Terrasse 29.70 27.03 1.00
65050 2022-07-25 18:53:57 Bahnzimmer 22.00 21.20 36.00
65049 2022-07-25 18:36:16 Terrasse 30.50 27.64 1.00
65048 2022-07-25 18:23:56 Bahnzimmer 22.00 21.22 37.00
65047 2022-07-25 18:07:59 Terrasse 31.00 28.00 1.00
65046 2022-07-25 17:53:56 Bahnzimmer 22.00 21.22 37.00
65045 2022-07-25 17:39:44 Terrasse 31.50 28.35 1.00
65044 2022-07-25 17:23:55 Bahnzimmer 22.00 21.22 37.00
65043 2022-07-25 17:11:28 Terrasse 32.10 28.79 1.00
65042 2022-07-25 16:53:54 Bahnzimmer 22.00 21.22 37.00
65041 2022-07-25 16:43:07 Terrasse 31.90 28.62 1.00
65040 2022-07-25 16:23:53 Bahnzimmer 22.00 21.20 36.00
65039 2022-07-25 16:14:46 Terrasse 31.70 28.46 1.00
65038 2022-07-25 15:53:53 Bahnzimmer 22.00 21.20 36.00
65037 2022-07-25 15:46:20 Terrasse 30.90 27.91 1.00
65036 2022-07-25 15:23:52 Bahnzimmer 22.00 21.20 36.00
65035 2022-07-25 15:18:06 Terrasse 31.00 28.00 1.00
65034 2022-07-25 14:53:51 Bahnzimmer 22.00 21.20 36.00
65033 2022-07-25 14:49:55 Terrasse 32.20 28.87 1.00
65032 2022-07-25 14:23:51 Bahnzimmer 22.00 21.17 35.00
65031 2022-07-25 14:21:39 Terrasse 33.00 29.40 1.00
65030 2022-07-25 13:53:50 Bahnzimmer 21.00 20.07 35.00
65029 2022-07-25 13:53:29 Terrasse 34.70 30.58 1.00
65028 2022-07-25 13:25:11 Terrasse 36.00 31.61 1.00
65027 2022-07-25 13:23:49 Bahnzimmer 22.00 21.17 35.00
65026 2022-07-25 12:56:30 Terrasse 33.80 29.98 1.00
65025 2022-07-25 12:53:49 Bahnzimmer 22.00 21.14 34.00
65024 2022-07-25 12:28:08 Terrasse 31.60 28.44 1.00
65023 2022-07-25 12:23:48 Bahnzimmer 22.00 21.14 34.00
65022 2022-07-25 11:59:43 Terrasse 30.80 27.83 1.00
65021 2022-07-25 11:53:47 Bahnzimmer 22.00 21.14 34.00
65020 2022-07-25 11:31:25 Terrasse 30.00 27.28 1.00
65019 2022-07-25 11:23:46 Bahnzimmer 22.00 21.14 34.00
65018 2022-07-25 11:02:48 Terrasse 28.80 26.39 1.00
65017 2022-07-25 10:53:46 Bahnzimmer 22.00 21.09 32.00
65016 2022-07-25 10:34:20 Terrasse 27.10 25.89 1.00
65015 2022-07-25 10:23:45 Bahnzimmer 22.00 21.09 32.00
65014 2022-07-25 10:05:56 Terrasse 25.90 28.09 99.90
65013 2022-07-25 09:53:44 Bahnzimmer 21.00 19.99 32.00
65012 2022-07-25 09:37:32 Terrasse 24.90 26.05 99.90
65011 2022-07-25 09:23:44 Bahnzimmer 21.00 20.07 35.00
65010 2022-07-25 09:09:14 Terrasse 24.00 25.06 99.90
65009 2022-07-25 08:53:43 Bahnzimmer 21.00 20.07 35.00
65008 2022-07-25 08:40:48 Terrasse 23.00 23.96 99.90
65007 2022-07-25 08:23:42 Bahnzimmer 21.00 20.10 36.00
65006 2022-07-25 08:12:28 Terrasse 22.50 20.83 1.00
65005 2022-07-25 07:53:42 Bahnzimmer 21.00 20.10 36.00
65004 2022-07-25 07:44:08 Terrasse 22.20 20.50 1.00
65003 2022-07-25 07:23:41 Bahnzimmer 21.00 19.99 32.00
65002 2022-07-25 07:15:48 Terrasse 21.90 20.17 1.00
65001 2022-07-25 06:53:40 Bahnzimmer 21.00 19.96 31.00
65000 2022-07-25 06:47:30 Terrasse 22.00 20.28 1.00
64999 2022-07-25 06:23:40 Bahnzimmer 21.00 19.96 31.00
64998 2022-07-25 06:19:12 Terrasse 22.10 20.39 1.00
64997 2022-07-25 05:53:39 Bahnzimmer 21.00 20.07 35.00
64996 2022-07-25 05:50:53 Terrasse 22.20 20.50 1.00
64995 2022-07-25 05:23:38 Bahnzimmer 21.00 20.07 35.00
64994 2022-07-25 05:22:36 Terrasse 22.40 20.72 1.00
64993 2022-07-25 04:54:18 Terrasse 22.40 20.72 1.00
64992 2022-07-25 04:53:37 Bahnzimmer 21.00 20.04 34.00
64991 2022-07-25 04:26:00 Terrasse 22.80 21.16 1.00
64990 2022-07-25 04:23:37 Bahnzimmer 21.00 20.07 35.00
64989 2022-07-25 03:57:41 Terrasse 22.80 21.16 1.00
64988 2022-07-25 03:53:36 Bahnzimmer 21.00 20.07 35.00
64987 2022-07-25 03:29:23 Terrasse 23.00 21.38 1.00
64986 2022-07-25 03:23:35 Bahnzimmer 21.00 20.04 34.00
64985 2022-07-25 03:01:07 Terrasse 23.30 21.71 1.00
64984 2022-07-25 02:53:34 Bahnzimmer 21.00 20.10 36.00
64983 2022-07-25 02:32:49 Terrasse 23.60 22.04 1.00
64982 2022-07-25 02:23:34 Bahnzimmer 21.00 20.07 35.00
64981 2022-07-25 02:04:32 Terrasse 23.90 22.37 1.00
64980 2022-07-25 01:53:33 Bahnzimmer 21.00 20.07 35.00
64979 2022-07-25 01:36:15 Terrasse 24.10 22.59 1.00
64978 2022-07-25 01:23:32 Bahnzimmer 21.00 20.10 36.00
64977 2022-07-25 01:07:56 Terrasse 24.20 22.70 1.00
64976 2022-07-25 00:53:32 Bahnzimmer 21.00 20.07 35.00
64975 2022-07-25 00:39:38 Terrasse 24.40 22.92 1.00
64974 2022-07-25 00:23:31 Bahnzimmer 21.00 20.07 35.00
64973 2022-07-25 00:11:21 Terrasse 24.80 23.36 1.00
64972 2022-07-24 23:53:30 Bahnzimmer 21.00 20.07 35.00
64971 2022-07-24 23:43:05 Terrasse 25.10 25.63 99.90
64970 2022-07-24 23:23:30 Bahnzimmer 21.00 20.10 36.00
64969 2022-07-24 23:14:48 Terrasse 25.50 26.83 99.90
64968 2022-07-24 22:53:29 Bahnzimmer 21.00 20.10 36.00
64967 2022-07-24 22:46:31 Terrasse 25.80 27.77 99.90
64966 2022-07-24 22:23:28 Bahnzimmer 21.00 20.10 36.00
64965 2022-07-24 22:18:14 Terrasse 26.20 29.07 99.90
64964 2022-07-24 21:53:27 Bahnzimmer 21.00 20.07 35.00
64963 2022-07-24 21:49:57 Terrasse 26.60 30.42 99.90
64962 2022-07-24 21:23:27 Bahnzimmer 21.00 20.10 36.00
64961 2022-07-24 21:21:42 Terrasse 27.20 33.55 99.90
64960 2022-07-24 20:53:28 Terrasse 28.10 36.72 99.90
64959 2022-07-24 20:53:26 Bahnzimmer 21.00 20.07 35.00
64958 2022-07-24 20:25:11 Terrasse 28.70 38.99 99.90
64957 2022-07-24 20:23:25 Bahnzimmer 21.00 20.10 36.00
64956 2022-07-24 19:56:53 Terrasse 29.10 40.57 99.90
64955 2022-07-24 19:53:25 Bahnzimmer 21.00 20.04 34.00
64954 2022-07-24 19:28:35 Terrasse 29.30 41.38 99.90
64953 2022-07-24 19:23:24 Bahnzimmer 21.00 20.04 34.00
64952 2022-07-24 19:00:17 Terrasse 29.70 43.04 99.90
64951 2022-07-24 18:53:23 Bahnzimmer 21.00 20.04 34.00
64950 2022-07-24 18:32:00 Terrasse 30.10 44.76 99.90
64949 2022-07-24 18:23:22 Bahnzimmer 21.00 20.04 34.00
64948 2022-07-24 18:03:42 Terrasse 30.30 45.64 99.90
64947 2022-07-24 17:53:22 Bahnzimmer 21.00 20.04 34.00
64946 2022-07-24 17:35:26 Terrasse 30.80 47.97 99.90
64945 2022-07-24 17:23:21 Bahnzimmer 21.00 20.04 34.00
64944 2022-07-24 17:07:10 Terrasse 31.10 49.46 99.90
64943 2022-07-24 16:53:20 Bahnzimmer 21.00 20.04 34.00
64942 2022-07-24 16:38:53 Terrasse 31.50 51.49 99.90
64941 2022-07-24 16:23:20 Bahnzimmer 21.00 20.04 34.00
64940 2022-07-24 16:10:37 Terrasse 31.90 53.57 99.90
64939 2022-07-24 15:53:19 Bahnzimmer 21.00 20.04 34.00
64938 2022-07-24 15:42:20 Terrasse 32.50 56.81 99.90
64937 2022-07-24 15:23:18 Bahnzimmer 21.00 20.04 34.00
64936 2022-07-24 15:14:03 Terrasse 32.90 59.03 99.90
64935 2022-07-24 14:53:18 Bahnzimmer 21.00 20.04 34.00
64934 2022-07-24 14:45:48 Terrasse 33.30 61.31 99.90
64933 2022-07-24 14:23:17 Bahnzimmer 21.00 20.04 34.00
64932 2022-07-24 14:17:38 Terrasse 34.30 67.25 99.90
64931 2022-07-24 13:53:16 Bahnzimmer 21.00 20.04 34.00
64930 2022-07-24 13:49:31 Terrasse 35.20 72.90 99.90
64929 2022-07-24 13:23:15 Bahnzimmer 21.00 20.04 34.00
64928 2022-07-24 13:20:56 Terrasse 35.10 30.88 1.00
64927 2022-07-24 12:53:15 Bahnzimmer 21.00 20.04 34.00
64926 2022-07-24 12:52:07 Terrasse 31.80 28.54 1.00
64925 2022-07-24 12:23:49 Terrasse 30.40 27.56 1.00
64924 2022-07-24 12:23:14 Bahnzimmer 21.00 20.02 33.00
64923 2022-07-24 11:55:29 Terrasse 30.00 27.28 1.00
64922 2022-07-24 11:53:13 Bahnzimmer 21.00 20.02 33.00
64921 2022-07-24 11:27:03 Terrasse 28.70 26.30 1.00
64920 2022-07-24 11:23:13 Bahnzimmer 21.00 19.99 32.00
64919 2022-07-24 10:58:25 Terrasse 27.00 25.78 1.00
64918 2022-07-24 10:53:12 Bahnzimmer 21.00 19.96 31.00
64917 2022-07-24 10:29:58 Terrasse 25.40 24.02 1.00
64916 2022-07-24 10:23:11 Bahnzimmer 21.00 19.96 31.00
64915 2022-07-24 10:01:32 Terrasse 24.20 25.28 99.90
64914 2022-07-24 09:53:11 Bahnzimmer 21.00 19.99 32.00
64913 2022-07-24 09:33:08 Terrasse 23.40 24.40 99.90
64912 2022-07-24 09:23:10 Bahnzimmer 21.00 20.07 35.00
64911 2022-07-24 09:04:44 Terrasse 22.60 20.94 1.00
64910 2022-07-24 08:53:09 Bahnzimmer 21.00 20.12 37.00
64909 2022-07-24 08:36:21 Terrasse 21.90 20.17 1.00
64908 2022-07-24 08:23:08 Bahnzimmer 21.00 20.12 37.00
64907 2022-07-24 08:07:58 Terrasse 21.40 22.20 99.90
64906 2022-07-24 07:53:08 Bahnzimmer 21.00 20.12 37.00
64905 2022-07-24 07:39:36 Terrasse 20.90 20.33 49.10
64904 2022-07-24 07:23:07 Bahnzimmer 21.00 20.15 38.00
64903 2022-07-24 07:11:17 Terrasse 20.50 18.63 1.00
64902 2022-07-24 06:53:06 Bahnzimmer 21.00 20.15 38.00
64901 2022-07-24 06:42:58 Terrasse 20.40 21.10 99.90
64900 2022-07-24 06:23:06 Bahnzimmer 21.00 20.12 37.00
64899 2022-07-24 06:14:41 Terrasse 20.50 21.21 99.90
64898 2022-07-24 05:53:05 Bahnzimmer 21.00 20.15 38.00
64897 2022-07-24 05:46:23 Terrasse 20.70 18.85 1.00
64896 2022-07-24 05:23:04 Bahnzimmer 21.00 20.12 37.00
64895 2022-07-24 05:18:06 Terrasse 20.90 19.07 1.00
64894 2022-07-24 04:53:04 Bahnzimmer 21.00 20.12 37.00
64893 2022-07-24 04:49:52 Terrasse 21.30 19.51 1.00
64892 2022-07-24 04:23:03 Bahnzimmer 21.00 20.15 38.00
64891 2022-07-24 04:21:35 Terrasse 21.50 19.73 1.00
64890 2022-07-24 03:53:18 Terrasse 21.70 19.95 1.00
64889 2022-07-24 03:53:02 Bahnzimmer 21.00 20.15 38.00
64888 2022-07-24 03:25:00 Terrasse 21.90 20.17 1.00
64887 2022-07-24 03:23:02 Bahnzimmer 21.00 20.15 38.00
64886 2022-07-24 02:56:46 Terrasse 22.10 20.39 1.00
64885 2022-07-24 02:53:01 Bahnzimmer 21.00 20.17 39.00
64884 2022-07-24 02:28:29 Terrasse 22.50 20.83 1.00
64883 2022-07-24 02:23:00 Bahnzimmer 21.00 20.17 39.00
64882 2022-07-24 02:00:13 Terrasse 22.80 21.16 1.00
64881 2022-07-24 01:52:59 Bahnzimmer 21.00 20.17 39.00
64880 2022-07-24 01:31:59 Terrasse 22.90 21.27 1.00
64879 2022-07-24 01:22:59 Bahnzimmer 21.00 20.17 39.00
64878 2022-07-24 01:03:41 Terrasse 23.00 21.38 1.00
64877 2022-07-24 00:52:58 Bahnzimmer 21.00 20.15 38.00
64876 2022-07-24 00:35:25 Terrasse 23.30 21.71 1.00
64875 2022-07-24 00:22:57 Bahnzimmer 21.00 20.17 39.00
64874 2022-07-24 00:07:10 Terrasse 23.70 22.15 1.00
64873 2022-07-23 23:52:57 Bahnzimmer 21.00 20.17 39.00
64872 2022-07-23 23:38:52 Terrasse 23.80 22.26 1.00
64871 2022-07-23 23:22:56 Bahnzimmer 21.00 20.17 39.00
64870 2022-07-23 23:10:43 Terrasse 24.00 22.48 1.00
64869 2022-07-23 22:52:55 Bahnzimmer 21.00 20.17 39.00
64868 2022-07-23 22:42:22 Terrasse 24.20 22.70 1.00
64867 2022-07-23 22:22:55 Bahnzimmer 21.00 20.20 40.00
64866 2022-07-23 22:14:05 Terrasse 24.50 23.03 1.00
64865 2022-07-23 21:52:54 Bahnzimmer 21.00 20.20 40.00
64864 2022-07-23 21:45:50 Terrasse 24.90 23.47 1.00
64863 2022-07-23 21:22:53 Bahnzimmer 21.00 20.20 40.00
64862 2022-07-23 21:17:34 Terrasse 25.40 24.02 1.00
64861 2022-07-23 20:52:52 Bahnzimmer 21.00 20.20 40.00
64860 2022-07-23 20:49:18 Terrasse 25.90 24.57 1.00
64859 2022-07-23 20:22:52 Bahnzimmer 21.00 20.20 40.00
64858 2022-07-23 20:21:02 Terrasse 26.40 25.12 1.00
64857 2022-07-23 19:52:51 Bahnzimmer 21.00 20.20 40.00
64856 2022-07-23 19:52:45 Terrasse 26.80 25.56 1.00
64855 2022-07-23 19:24:30 Terrasse 27.30 25.22 1.00
64854 2022-07-23 19:22:50 Bahnzimmer 21.00 20.20 40.00
64853 2022-07-23 18:56:13 Terrasse 27.80 25.58 1.00
64852 2022-07-23 18:52:50 Bahnzimmer 21.00 20.20 40.00
64851 2022-07-23 18:27:56 Terrasse 28.20 25.94 1.00
64850 2022-07-23 18:22:49 Bahnzimmer 21.00 20.17 39.00
64849 2022-07-23 17:59:38 Terrasse 28.70 26.30 1.00
64848 2022-07-23 17:52:48 Bahnzimmer 21.00 20.20 40.00
64847 2022-07-23 17:31:21 Terrasse 29.20 26.66 1.00
64846 2022-07-23 17:22:48 Bahnzimmer 21.00 20.20 40.00
64845 2022-07-23 17:03:06 Terrasse 29.70 27.03 1.00
64844 2022-07-23 16:52:47 Bahnzimmer 21.00 20.20 40.00
64843 2022-07-23 16:34:48 Terrasse 29.70 27.03 1.00
64842 2022-07-23 16:22:46 Bahnzimmer 21.00 20.23 41.00
64841 2022-07-23 16:06:31 Terrasse 29.90 27.20 1.00
64840 2022-07-23 15:52:46 Bahnzimmer 21.00 20.23 41.00
64839 2022-07-23 15:38:12 Terrasse 30.00 27.28 1.00
64838 2022-07-23 15:22:45 Bahnzimmer 21.00 20.23 41.00
64837 2022-07-23 15:09:59 Terrasse 30.40 27.56 1.00
64836 2022-07-23 14:52:44 Bahnzimmer 21.00 20.23 41.00
64835 2022-07-23 14:41:40 Terrasse 30.40 27.56 1.00
64834 2022-07-23 14:22:44 Bahnzimmer 21.00 20.23 41.00
64833 2022-07-23 14:13:29 Terrasse 31.40 28.27 1.00
64832 2022-07-23 13:52:43 Bahnzimmer 21.00 20.23 41.00
64831 2022-07-23 13:45:18 Terrasse 32.50 29.06 1.00
64830 2022-07-23 13:22:42 Bahnzimmer 21.00 20.23 41.00
64829 2022-07-23 13:16:46 Terrasse 32.30 28.89 1.00
64828 2022-07-23 12:52:42 Bahnzimmer 21.00 20.23 41.00
64827 2022-07-23 12:48:00 Terrasse 28.40 26.04 1.00
64826 2022-07-23 12:22:41 Bahnzimmer 21.00 20.23 41.00
64825 2022-07-23 12:19:31 Terrasse 26.60 30.42 99.90
64824 2022-07-23 11:52:40 Bahnzimmer 21.00 20.25 42.00
64823 2022-07-23 11:51:18 Terrasse 27.20 33.55 99.90
64822 2022-07-23 11:22:40 Bahnzimmer 21.00 20.25 42.00
64821 2022-07-23 11:22:36 Terrasse 24.60 25.47 90.00
64820 2022-07-23 10:54:20 Terrasse 24.20 25.28 99.90
64819 2022-07-23 10:52:39 Bahnzimmer 21.00 20.30 44.00
64818 2022-07-23 10:25:56 Terrasse 23.80 22.26 1.00
64817 2022-07-23 10:22:38 Bahnzimmer 21.00 20.33 45.00
64816 2022-07-23 09:57:32 Terrasse 23.00 21.38 1.00
64815 2022-07-23 09:52:38 Bahnzimmer 21.00 20.33 45.00
64814 2022-07-23 09:29:08 Terrasse 22.20 20.50 1.00
64813 2022-07-23 09:22:37 Bahnzimmer 20.00 19.23 45.00
64812 2022-07-23 09:00:44 Terrasse 21.50 22.31 99.90
64811 2022-07-23 08:52:36 Bahnzimmer 20.00 19.23 45.00
64810 2022-07-23 08:32:21 Terrasse 21.10 21.87 99.90
64809 2022-07-23 08:22:35 Bahnzimmer 20.00 19.23 45.00
64808 2022-07-23 08:04:01 Terrasse 20.80 18.96 1.00
64807 2022-07-23 07:52:35 Bahnzimmer 20.00 19.20 44.00
64806 2022-07-23 07:35:41 Terrasse 20.80 18.96 1.00
64805 2022-07-23 07:22:34 Bahnzimmer 21.00 20.23 41.00
64804 2022-07-23 07:07:21 Terrasse 20.80 20.59 63.40
64803 2022-07-23 06:52:33 Bahnzimmer 21.00 20.10 36.00
64802 2022-07-23 06:39:02 Terrasse 20.70 21.43 99.90
64801 2022-07-23 06:22:33 Bahnzimmer 21.00 20.07 35.00
64800 2022-07-23 06:10:45 Terrasse 20.80 18.96 1.00
64799 2022-07-23 05:52:32 Bahnzimmer 21.00 20.10 36.00
64798 2022-07-23 05:42:27 Terrasse 20.80 18.96 1.00
64797 2022-07-23 05:22:31 Bahnzimmer 21.00 20.10 36.00
64796 2022-07-23 05:14:10 Terrasse 21.00 21.76 99.90
64795 2022-07-23 04:52:31 Bahnzimmer 21.00 20.07 35.00
64794 2022-07-23 04:45:54 Terrasse 21.40 22.20 99.90
64793 2022-07-23 04:22:30 Bahnzimmer 21.00 20.07 35.00
64792 2022-07-23 04:17:36 Terrasse 21.50 22.31 99.90
64791 2022-07-23 03:52:29 Bahnzimmer 21.00 20.10 36.00
64790 2022-07-23 03:49:19 Terrasse 21.70 19.95 1.00
64789 2022-07-23 03:22:28 Bahnzimmer 21.00 20.10 36.00
64788 2022-07-23 03:21:02 Terrasse 21.80 20.06 1.00
64787 2022-07-23 02:52:44 Terrasse 22.10 22.97 99.90
64786 2022-07-23 02:52:28 Bahnzimmer 21.00 20.10 36.00
64785 2022-07-23 02:24:28 Terrasse 22.40 20.72 1.00
64784 2022-07-23 02:22:27 Bahnzimmer 21.00 20.10 36.00
64783 2022-07-23 01:56:11 Terrasse 22.70 23.63 99.90
64782 2022-07-23 01:52:26 Bahnzimmer 21.00 20.10 36.00
64781 2022-07-23 01:27:53 Terrasse 22.90 21.27 1.00
64780 2022-07-23 01:22:26 Bahnzimmer 21.00 20.07 35.00
64779 2022-07-23 00:59:36 Terrasse 23.20 24.18 99.90
64778 2022-07-23 00:52:25 Bahnzimmer 21.00 20.10 36.00
64777 2022-07-23 00:31:19 Terrasse 23.40 24.40 99.90
64776 2022-07-23 00:22:24 Bahnzimmer 21.00 20.10 36.00
64775 2022-07-23 00:03:02 Terrasse 23.60 24.45 93.20
64774 2022-07-22 23:52:24 Bahnzimmer 21.00 20.10 36.00
64773 2022-07-22 23:34:45 Terrasse 23.90 22.40 2.10
64772 2022-07-22 23:22:23 Bahnzimmer 21.00 20.10 36.00
64771 2022-07-22 23:06:28 Terrasse 24.20 22.70 1.00
64770 2022-07-22 22:52:22 Bahnzimmer 21.00 20.12 37.00
64769 2022-07-22 22:38:11 Terrasse 24.50 23.03 1.00
64768 2022-07-22 22:22:22 Bahnzimmer 21.00 20.10 36.00
64767 2022-07-22 22:09:56 Terrasse 24.90 23.47 1.00
64766 2022-07-22 21:52:21 Bahnzimmer 21.00 20.12 37.00
64765 2022-07-22 21:41:42 Terrasse 25.70 24.35 1.00
64764 2022-07-22 21:22:20 Bahnzimmer 21.00 20.12 37.00
64763 2022-07-22 21:13:26 Terrasse 26.20 24.90 1.00
64762 2022-07-22 20:52:20 Bahnzimmer 21.00 20.10 36.00
64761 2022-07-22 20:45:09 Terrasse 26.60 25.34 1.00
64760 2022-07-22 20:22:19 Bahnzimmer 21.00 20.07 35.00
64759 2022-07-22 20:16:50 Terrasse 26.90 25.67 1.00
64758 2022-07-22 19:52:18 Bahnzimmer 21.00 20.10 36.00
64757 2022-07-22 19:48:37 Terrasse 27.60 25.50 1.00
64756 2022-07-22 19:22:17 Bahnzimmer 21.00 20.10 36.00
64755 2022-07-22 19:20:19 Terrasse 28.10 25.85 1.00
64754 2022-07-22 18:52:17 Bahnzimmer 21.00 20.10 36.00
64753 2022-07-22 18:52:02 Terrasse 28.20 25.94 1.00
64752 2022-07-22 18:23:48 Terrasse 28.60 26.21 1.00
64751 2022-07-22 18:22:16 Bahnzimmer 21.00 20.10 36.00
64750 2022-07-22 17:55:30 Terrasse 28.90 26.40 1.00
64749 2022-07-22 17:52:15 Bahnzimmer 21.00 20.10 36.00
64748 2022-07-22 17:27:13 Terrasse 29.10 26.58 1.00
64747 2022-07-22 17:22:15 Bahnzimmer 21.00 20.12 37.00
64746 2022-07-22 16:58:56 Terrasse 29.40 26.84 1.00
64745 2022-07-22 16:52:14 Bahnzimmer 21.00 20.10 36.00
64744 2022-07-22 16:30:38 Terrasse 29.60 26.94 1.00
64743 2022-07-22 16:22:13 Bahnzimmer 21.00 20.10 36.00
64742 2022-07-22 16:02:21 Terrasse 29.90 27.20 1.00
64741 2022-07-22 15:52:13 Bahnzimmer 21.00 20.12 37.00
64740 2022-07-22 15:34:04 Terrasse 30.20 27.39 1.00
64739 2022-07-22 15:22:12 Bahnzimmer 21.00 20.12 37.00
64738 2022-07-22 15:05:47 Terrasse 30.50 27.64 1.00
64737 2022-07-22 14:52:11 Bahnzimmer 21.00 20.10 36.00
64736 2022-07-22 14:37:31 Terrasse 30.70 27.75 1.00
64735 2022-07-22 14:22:10 Bahnzimmer 21.00 20.07 35.00
64734 2022-07-22 14:09:21 Terrasse 31.80 28.54 1.00
64733 2022-07-22 13:52:10 Bahnzimmer 21.00 20.12 37.00
64732 2022-07-22 13:41:15 Terrasse 32.60 29.14 1.00
64731 2022-07-22 13:22:09 Bahnzimmer 21.00 20.12 37.00
64730 2022-07-22 13:12:38 Terrasse 31.50 28.35 1.00
64729 2022-07-22 12:52:08 Bahnzimmer 21.00 20.12 37.00
64728 2022-07-22 12:43:56 Terrasse 27.70 35.28 99.90
64727 2022-07-22 12:22:08 Bahnzimmer 21.00 20.15 38.00
64726 2022-07-22 12:15:38 Terrasse 27.00 32.89 99.90
64725 2022-07-22 11:52:07 Bahnzimmer 21.00 20.12 37.00
64724 2022-07-22 11:47:14 Terrasse 26.10 24.79 1.00
64723 2022-07-22 11:22:06 Bahnzimmer 20.00 19.07 39.00
64722 2022-07-22 11:18:42 Terrasse 24.60 25.72 99.90
64721 2022-07-22 10:52:06 Bahnzimmer 20.00 19.15 42.00
64720 2022-07-22 10:50:07 Terrasse 22.60 23.52 99.90
64719 2022-07-22 10:22:05 Bahnzimmer 20.00 19.15 42.00
64718 2022-07-22 10:21:37 Terrasse 21.10 21.87 99.90
64717 2022-07-22 09:53:15 Terrasse 20.40 18.52 1.00
64716 2022-07-22 09:52:04 Bahnzimmer 19.00 18.05 42.00
64715 2022-07-22 09:24:54 Terrasse 20.20 20.88 99.90
64714 2022-07-22 09:22:04 Bahnzimmer 19.00 18.08 43.00
64713 2022-07-22 08:56:29 Terrasse 19.50 20.11 99.90
64712 2022-07-22 08:52:03 Bahnzimmer 19.00 18.08 43.00
64711 2022-07-22 08:28:08 Terrasse 19.30 18.06 29.50
64710 2022-07-22 08:22:02 Bahnzimmer 19.00 18.08 43.00
64709 2022-07-22 07:59:45 Terrasse 18.90 16.87 1.00
64708 2022-07-22 07:52:02 Bahnzimmer 19.00 18.05 42.00
64707 2022-07-22 07:33:35 Bahnzimmer 20.00 19.10 40.00
64706 2022-07-22 07:31:24 Terrasse 18.60 19.12 99.90
64705 2022-07-22 06:07:25 Bahnzimmer 21.00 20.15 38.00
64704 2022-07-22 06:06:05 Terrasse 18.10 15.99 1.00
64703 2022-07-22 05:37:47 Terrasse 18.10 15.99 1.00
64702 2022-07-22 05:37:24 Bahnzimmer 21.00 20.15 38.00
64701 2022-07-22 05:09:30 Terrasse 18.20 16.10 1.00
64700 2022-07-22 05:07:23 Bahnzimmer 21.00 20.15 38.00
64699 2022-07-22 04:41:13 Terrasse 18.30 16.21 1.00
64698 2022-07-22 04:37:22 Bahnzimmer 21.00 20.17 39.00
64697 2022-07-22 04:12:56 Terrasse 18.70 19.23 99.90
64696 2022-07-22 04:07:22 Bahnzimmer 21.00 20.17 39.00
64695 2022-07-22 03:44:39 Terrasse 18.80 19.34 99.90
64694 2022-07-22 03:37:21 Bahnzimmer 21.00 20.15 38.00
64693 2022-07-22 03:16:22 Terrasse 19.00 16.98 1.00
64692 2022-07-22 03:07:20 Bahnzimmer 21.00 20.17 39.00
64691 2022-07-22 02:48:08 Terrasse 19.30 17.31 1.00
64690 2022-07-22 02:37:20 Bahnzimmer 21.00 20.17 39.00
64689 2022-07-22 02:19:49 Terrasse 19.20 19.78 99.90
64688 2022-07-22 02:07:19 Bahnzimmer 21.00 20.20 40.00
64687 2022-07-22 01:51:31 Terrasse 19.40 17.42 1.00
64686 2022-07-22 01:37:18 Bahnzimmer 21.00 20.20 40.00
64685 2022-07-22 01:23:14 Terrasse 19.50 17.53 1.00
64684 2022-07-22 01:07:17 Bahnzimmer 21.00 20.20 40.00
64683 2022-07-22 00:54:59 Terrasse 19.90 20.55 99.90
64682 2022-07-22 00:37:17 Bahnzimmer 21.00 20.23 41.00
64681 2022-07-22 00:26:40 Terrasse 20.10 20.77 99.90
64680 2022-07-22 00:07:16 Bahnzimmer 21.00 20.23 41.00
64679 2022-07-21 23:58:25 Terrasse 20.40 18.52 1.00
64678 2022-07-21 23:37:15 Bahnzimmer 21.00 20.23 41.00
64677 2022-07-21 23:30:07 Terrasse 20.80 18.96 1.00
64676 2022-07-21 23:07:15 Bahnzimmer 21.00 20.23 41.00
64675 2022-07-21 23:01:50 Terrasse 21.10 21.87 99.90
64674 2022-07-21 22:37:14 Bahnzimmer 21.00 20.23 41.00
64673 2022-07-21 22:33:33 Terrasse 21.40 19.62 1.00
64672 2022-07-21 22:07:13 Bahnzimmer 21.00 20.23 41.00
64671 2022-07-21 22:05:18 Terrasse 21.90 20.17 1.00
64670 2022-07-21 21:37:13 Bahnzimmer 21.00 20.23 41.00
64669 2022-07-21 21:37:03 Terrasse 22.30 20.61 1.00
64668 2022-07-21 21:08:46 Terrasse 22.80 21.16 1.00
64667 2022-07-21 21:07:12 Bahnzimmer 21.00 20.23 41.00
64666 2022-07-21 20:40:32 Terrasse 23.60 22.04 1.00
64665 2022-07-21 20:37:11 Bahnzimmer 21.00 20.23 41.00
64664 2022-07-21 20:12:15 Terrasse 24.10 25.17 99.90
64663 2022-07-21 20:07:11 Bahnzimmer 21.00 20.23 41.00
64662 2022-07-21 19:43:58 Terrasse 24.50 25.61 99.90
64661 2022-07-21 19:37:10 Bahnzimmer 21.00 20.25 42.00
64660 2022-07-21 19:15:41 Terrasse 24.90 23.73 10.90
64659 2022-07-21 19:07:09 Bahnzimmer 21.00 20.25 42.00
64658 2022-07-21 18:47:23 Terrasse 25.20 23.80 1.00
64657 2022-07-21 18:37:07 Bahnzimmer 21.00 20.25 42.00
64656 2022-07-21 18:19:04 Terrasse 25.30 23.91 1.00
64655 2022-07-21 18:07:06 Bahnzimmer 21.00 20.25 42.00
64654 2022-07-21 17:50:45 Terrasse 25.40 24.02 1.00
64653 2022-07-21 17:37:06 Bahnzimmer 21.00 20.25 42.00
64652 2022-07-21 17:22:28 Terrasse 25.70 24.35 1.00
64651 2022-07-21 17:07:05 Bahnzimmer 21.00 20.28 43.00
64650 2022-07-21 16:54:12 Terrasse 26.20 24.90 1.00
64649 2022-07-21 16:37:04 Bahnzimmer 21.00 20.28 43.00
64648 2022-07-21 16:25:54 Terrasse 26.50 25.23 1.00
64647 2022-07-21 16:07:04 Bahnzimmer 21.00 20.28 43.00
64646 2022-07-21 15:57:35 Terrasse 26.50 25.23 1.00
64645 2022-07-21 15:37:03 Bahnzimmer 21.00 20.30 44.00
64644 2022-07-21 15:29:23 Terrasse 27.50 25.41 1.00
64643 2022-07-21 15:07:02 Bahnzimmer 21.00 20.30 44.00
64642 2022-07-21 15:01:01 Terrasse 27.60 25.50 1.00
64641 2022-07-21 14:37:02 Bahnzimmer 21.00 20.30 44.00
64640 2022-07-21 14:32:40 Terrasse 26.50 25.23 1.00
64639 2022-07-21 14:07:01 Bahnzimmer 21.00 20.33 45.00
64638 2022-07-21 14:04:14 Terrasse 26.30 29.40 99.90
64637 2022-07-21 13:37:00 Bahnzimmer 21.00 20.33 45.00
64636 2022-07-21 13:36:05 Terrasse 25.90 28.09 99.90
64635 2022-07-21 13:07:24 Terrasse 25.70 27.45 99.90
64634 2022-07-21 13:07:00 Bahnzimmer 21.00 20.33 45.00
64633 2022-07-21 12:38:56 Terrasse 23.70 24.73 99.90
64632 2022-07-21 12:36:59 Bahnzimmer 21.00 20.36 46.00
64631 2022-07-21 12:10:21 Terrasse 22.60 23.27 90.00
64630 2022-07-21 12:06:58 Bahnzimmer 21.00 20.41 48.00
64629 2022-07-21 11:42:15 Terrasse 23.70 24.73 99.90
64628 2022-07-21 11:36:58 Bahnzimmer 20.00 19.41 52.00
64627 2022-07-21 11:13:35 Terrasse 21.30 22.09 99.90
64626 2022-07-21 11:06:57 Bahnzimmer 20.00 19.33 49.00
64625 2022-07-21 10:45:15 Terrasse 21.60 19.84 1.00
64624 2022-07-21 10:36:56 Bahnzimmer 20.00 19.36 50.00
64623 2022-07-21 10:16:55 Terrasse 21.90 22.75 99.90
64622 2022-07-21 10:06:55 Bahnzimmer 21.00 20.41 48.00
64621 2022-07-21 09:48:37 Terrasse 21.60 22.42 99.90
64620 2022-07-21 09:36:55 Bahnzimmer 20.00 19.33 49.00
64619 2022-07-21 09:20:15 Terrasse 21.60 22.42 99.90
64618 2022-07-21 09:06:54 Bahnzimmer 20.00 19.33 49.00
64617 2022-07-21 08:51:52 Terrasse 20.80 19.53 22.80
64616 2022-07-21 08:36:53 Bahnzimmer 20.00 19.33 49.00
64615 2022-07-21 08:23:34 Terrasse 20.90 19.07 1.00
64614 2022-07-21 08:06:53 Bahnzimmer 20.00 19.31 48.00
64613 2022-07-21 07:55:09 Terrasse 20.20 20.88 99.90
64612 2022-07-21 07:36:52 Bahnzimmer 20.00 19.31 48.00
64611 2022-07-21 07:26:51 Terrasse 20.10 20.77 99.90
64610 2022-07-21 07:06:51 Bahnzimmer 21.00 20.04 34.00
64609 2022-07-21 06:58:35 Terrasse 20.40 18.52 1.00
64608 2022-07-21 06:36:49 Bahnzimmer 21.00 20.25 42.00
64607 2022-07-21 06:32:43 Terrasse 21.20 21.98 99.90
64606 2022-07-20 20:12:14 Bahnzimmer 21.00 19.68 20.00
64605 2022-07-20 20:11:50 Terrasse 30.10 44.76 99.90
64604 2022-07-20 19:43:37 Terrasse 30.70 47.48 99.90
64603 2022-07-20 19:42:13 Bahnzimmer 21.00 19.68 20.00
64602 2022-07-20 19:15:25 Terrasse 31.20 49.96 99.90
64601 2022-07-20 19:12:12 Bahnzimmer 21.00 19.68 20.00
64600 2022-07-20 18:47:13 Terrasse 32.00 54.10 99.90
64599 2022-07-20 18:42:11 Bahnzimmer 21.00 19.68 20.00
64598 2022-07-20 18:18:59 Terrasse 32.70 57.91 99.90
64597 2022-07-20 18:12:11 Bahnzimmer 21.00 19.68 20.00
64596 2022-07-20 17:50:48 Terrasse 33.40 61.89 99.90
64595 2022-07-20 17:42:10 Bahnzimmer 21.00 19.68 20.00
64594 2022-07-20 17:22:37 Terrasse 34.40 67.87 99.90
64593 2022-07-20 17:12:09 Bahnzimmer 21.00 19.68 20.00
64592 2022-07-20 16:54:28 Terrasse 35.70 76.15 99.90
64591 2022-07-20 16:42:09 Bahnzimmer 21.00 19.68 20.00
64590 2022-07-20 16:26:15 Terrasse 36.40 80.86 99.90
64589 2022-07-20 16:12:08 Bahnzimmer 21.00 19.68 20.00
64588 2022-07-20 15:58:02 Terrasse 36.70 82.93 99.90
64587 2022-07-20 15:42:07 Bahnzimmer 21.00 19.68 20.00
64586 2022-07-20 15:29:48 Terrasse 37.20 86.44 99.90
64585 2022-07-20 15:12:07 Bahnzimmer 22.00 20.78 20.00
64584 2022-07-20 15:01:35 Terrasse 37.60 89.32 99.90
64583 2022-07-20 14:42:06 Bahnzimmer 21.00 19.68 20.00
64582 2022-07-20 14:33:26 Terrasse 38.40 95.23 99.90
64581 2022-07-20 14:12:05 Bahnzimmer 21.00 19.68 20.00
64580 2022-07-20 14:05:22 Terrasse 39.60 104.52 99.90
64579 2022-07-20 13:42:04 Bahnzimmer 21.00 19.68 20.00
64578 2022-07-20 13:37:06 Terrasse 40.20 109.35 99.90
64577 2022-07-20 13:12:04 Bahnzimmer 21.00 19.68 20.00
64576 2022-07-20 13:08:33 Terrasse 38.50 95.99 99.90
64575 2022-07-20 12:42:03 Bahnzimmer 21.00 19.68 20.00
64574 2022-07-20 12:40:06 Terrasse 35.10 72.26 99.90
64573 2022-07-20 12:12:02 Bahnzimmer 21.00 19.68 20.00
64572 2022-07-20 12:11:51 Terrasse 34.80 70.36 99.90
64571 2022-07-20 11:43:24 Terrasse 33.40 61.89 99.90
64570 2022-07-20 11:42:02 Bahnzimmer 21.00 19.68 20.00
64569 2022-07-20 11:14:59 Terrasse 32.00 54.10 99.90
64568 2022-07-20 11:12:01 Bahnzimmer 21.00 19.68 20.00
64567 2022-07-20 10:46:30 Terrasse 30.30 45.64 99.90
64566 2022-07-20 10:42:00 Bahnzimmer 21.00 19.68 20.00
64565 2022-07-20 10:18:07 Terrasse 29.00 40.17 99.90
64564 2022-07-20 10:12:00 Bahnzimmer 21.00 19.68 20.00
64563 2022-07-20 09:49:44 Terrasse 27.80 35.63 99.90
64562 2022-07-20 09:41:59 Bahnzimmer 21.00 19.68 20.00
64561 2022-07-20 09:21:22 Terrasse 26.80 32.24 99.90
64560 2022-07-20 09:11:58 Bahnzimmer 21.00 19.68 20.00
64559 2022-07-20 08:53:01 Terrasse 25.90 28.09 99.90
64558 2022-07-20 08:41:58 Bahnzimmer 21.00 19.68 20.00
64557 2022-07-20 08:24:42 Terrasse 25.70 27.45 99.90
64556 2022-07-20 08:11:57 Bahnzimmer 21.00 19.68 20.00
64555 2022-07-20 07:56:25 Terrasse 25.40 26.53 99.90
64554 2022-07-20 07:41:56 Bahnzimmer 21.00 19.68 20.00
64553 2022-07-20 07:28:07 Terrasse 25.10 25.63 99.90
64552 2022-07-20 07:11:55 Bahnzimmer 21.00 19.68 20.00
64551 2022-07-20 06:59:51 Terrasse 25.00 25.34 99.90
64550 2022-07-20 06:41:55 Bahnzimmer 21.00 19.68 20.00
64549 2022-07-20 06:31:35 Terrasse 24.90 26.05 99.90
64548 2022-07-20 06:11:54 Bahnzimmer 21.00 19.68 20.00
64547 2022-07-20 06:03:20 Terrasse 25.10 25.63 99.90
64546 2022-07-20 05:41:53 Bahnzimmer 21.00 19.68 20.00
64545 2022-07-20 05:35:05 Terrasse 25.20 25.93 99.90
64544 2022-07-20 05:11:53 Bahnzimmer 21.00 19.68 20.00
64543 2022-07-20 05:06:51 Terrasse 25.20 25.93 99.90
64542 2022-07-20 04:41:52 Bahnzimmer 21.00 19.68 20.00
64541 2022-07-20 04:38:34 Terrasse 25.50 26.83 99.90
64540 2022-07-20 04:11:51 Bahnzimmer 21.00 19.68 20.00
64539 2022-07-20 04:10:20 Terrasse 25.70 27.45 99.90
64538 2022-07-20 03:42:05 Terrasse 25.80 27.77 99.90
64537 2022-07-20 03:41:51 Bahnzimmer 21.00 19.68 20.00
64536 2022-07-20 03:13:52 Terrasse 26.20 29.07 99.90
64535 2022-07-20 03:11:50 Bahnzimmer 21.00 19.68 20.00
64534 2022-07-20 02:45:39 Terrasse 26.40 29.74 99.90
64533 2022-07-20 02:41:49 Bahnzimmer 21.00 19.68 20.00
64532 2022-07-20 02:17:26 Terrasse 26.90 32.56 99.90
64531 2022-07-20 02:11:49 Bahnzimmer 21.00 19.68 20.00
64530 2022-07-20 01:49:12 Terrasse 27.30 33.89 99.90
64529 2022-07-20 01:41:48 Bahnzimmer 21.00 19.68 20.00
64528 2022-07-20 01:20:57 Terrasse 27.50 34.58 99.90
64527 2022-07-20 01:11:47 Bahnzimmer 21.00 19.68 20.00
64526 2022-07-20 00:52:42 Terrasse 27.70 35.28 99.90
64525 2022-07-20 00:41:47 Bahnzimmer 21.00 19.68 20.00
64524 2022-07-20 00:24:29 Terrasse 28.00 36.35 99.90
64523 2022-07-20 00:11:46 Bahnzimmer 21.00 19.68 20.00
64522 2022-07-19 23:56:14 Terrasse 28.40 37.84 99.90
64521 2022-07-19 23:41:45 Bahnzimmer 21.00 19.68 20.00
64520 2022-07-19 23:27:59 Terrasse 28.70 38.99 99.90
64519 2022-07-19 23:11:45 Bahnzimmer 21.00 19.68 20.00
64518 2022-07-19 22:59:43 Terrasse 29.10 40.57 99.90
64517 2022-07-19 22:41:44 Bahnzimmer 21.00 19.68 20.00
64516 2022-07-19 22:31:28 Terrasse 29.50 42.20 99.90
64515 2022-07-19 22:11:43 Bahnzimmer 21.00 19.68 20.00
64514 2022-07-19 22:03:15 Terrasse 30.00 44.32 99.90
64513 2022-07-19 21:41:43 Bahnzimmer 21.00 19.68 20.00
64512 2022-07-19 21:35:04 Terrasse 30.60 47.00 99.90
64511 2022-07-19 21:11:42 Bahnzimmer 21.00 19.68 20.00
64510 2022-07-19 21:06:51 Terrasse 31.20 49.96 99.90
64509 2022-07-19 20:41:41 Bahnzimmer 21.00 19.68 20.00
64508 2022-07-19 20:38:39 Terrasse 31.90 53.57 99.90
64507 2022-07-19 20:11:41 Bahnzimmer 21.00 19.68 20.00
64506 2022-07-19 20:10:29 Terrasse 32.60 57.36 99.90
64505 2022-07-19 19:42:15 Terrasse 33.20 60.74 99.90
64504 2022-07-19 19:41:40 Bahnzimmer 21.00 19.68 20.00
64503 2022-07-19 19:14:01 Terrasse 33.70 63.65 99.90
64502 2022-07-19 19:11:39 Bahnzimmer 21.00 19.68 20.00
64501 2022-07-19 18:45:46 Terrasse 34.10 66.04 99.90
64500 2022-07-19 18:41:39 Bahnzimmer 21.00 19.68 20.00
64499 2022-07-19 18:17:31 Terrasse 34.40 67.87 99.90
64498 2022-07-19 18:11:38 Bahnzimmer 21.00 19.68 20.00
64497 2022-07-19 17:49:17 Terrasse 34.80 70.36 99.90
64496 2022-07-19 17:41:37 Bahnzimmer 21.00 19.68 20.00
64495 2022-07-19 17:21:01 Terrasse 35.00 71.62 99.90
64494 2022-07-19 17:11:37 Bahnzimmer 21.00 19.68 20.00
64493 2022-07-19 16:52:46 Terrasse 35.00 71.62 99.90
64492 2022-07-19 16:41:36 Bahnzimmer 21.00 19.68 20.00
64491 2022-07-19 16:24:31 Terrasse 35.40 74.19 99.90
64490 2022-07-19 16:11:35 Bahnzimmer 21.00 19.68 20.00
64489 2022-07-19 15:56:19 Terrasse 36.10 78.82 99.90
64488 2022-07-19 15:41:34 Bahnzimmer 21.00 19.68 20.00
64487 2022-07-19 15:28:07 Terrasse 36.60 82.23 99.90
64486 2022-07-19 15:11:31 Bahnzimmer 21.00 19.68 20.00
64485 2022-07-19 14:59:54 Terrasse 37.00 85.03 99.90
64484 2022-07-19 14:41:30 Bahnzimmer 21.00 19.68 20.00
64483 2022-07-19 14:31:45 Terrasse 37.70 90.04 99.90
64482 2022-07-19 14:11:30 Bahnzimmer 21.00 19.68 20.00
64481 2022-07-19 14:03:40 Terrasse 39.20 101.37 99.90
64480 2022-07-19 13:41:29 Bahnzimmer 21.00 19.68 20.00
64479 2022-07-19 13:35:19 Terrasse 39.80 106.12 99.90
64478 2022-07-19 13:11:27 Bahnzimmer 21.00 19.68 20.00
64477 2022-07-19 13:06:40 Terrasse 37.10 85.73 99.90
64476 2022-07-19 12:41:27 Bahnzimmer 21.00 19.68 20.00
64475 2022-07-19 12:38:12 Terrasse 33.60 63.06 99.90
64474 2022-07-19 12:11:26 Bahnzimmer 21.00 19.68 20.00
64473 2022-07-19 12:09:58 Terrasse 33.50 62.47 99.90
64472 2022-07-19 11:41:37 Terrasse 32.50 56.81 99.90
64471 2022-07-19 11:41:25 Bahnzimmer 21.00 19.65 19.00
64470 2022-07-19 11:13:05 Terrasse 30.60 47.00 99.90
64469 2022-07-19 11:11:25 Bahnzimmer 21.00 19.65 19.00
64468 2022-07-19 10:44:36 Terrasse 28.60 38.60 99.90
64467 2022-07-19 10:41:24 Bahnzimmer 21.00 19.65 19.00
64466 2022-07-19 10:16:11 Terrasse 27.10 33.22 99.90
64465 2022-07-19 10:11:23 Bahnzimmer 21.00 19.65 19.00
64464 2022-07-19 09:47:48 Terrasse 25.90 28.09 99.90
64463 2022-07-19 09:41:22 Bahnzimmer 21.00 19.65 19.00
64462 2022-07-19 09:19:23 Terrasse 24.60 25.72 99.90
64461 2022-07-19 09:11:22 Bahnzimmer 20.00 18.60 21.00
64460 2022-07-19 08:50:58 Terrasse 23.20 24.18 99.90
64459 2022-07-19 08:41:21 Bahnzimmer 20.00 18.60 21.00
64458 2022-07-19 08:22:37 Terrasse 22.10 22.97 99.90
64457 2022-07-19 08:11:20 Bahnzimmer 20.00 18.60 21.00
64456 2022-07-19 07:54:16 Terrasse 21.60 19.84 1.00
64455 2022-07-19 07:41:20 Bahnzimmer 20.00 18.58 20.00
64454 2022-07-19 07:25:58 Terrasse 21.20 21.98 99.90
64453 2022-07-19 07:11:19 Bahnzimmer 20.00 18.60 21.00
64452 2022-07-19 06:57:42 Terrasse 21.10 21.87 99.90
64451 2022-07-19 06:41:18 Bahnzimmer 20.00 18.60 21.00
64450 2022-07-19 06:29:29 Terrasse 21.30 22.09 99.90
64449 2022-07-19 06:11:18 Bahnzimmer 20.00 18.60 21.00
64448 2022-07-19 06:01:15 Terrasse 21.60 22.42 99.90
64447 2022-07-19 05:41:17 Bahnzimmer 20.00 18.60 21.00
64446 2022-07-19 05:33:00 Terrasse 22.00 22.86 99.90
64445 2022-07-19 05:11:16 Bahnzimmer 20.00 18.60 21.00
64444 2022-07-19 05:04:45 Terrasse 22.10 22.97 99.90
64443 2022-07-19 04:41:16 Bahnzimmer 20.00 18.60 21.00
64442 2022-07-19 04:36:29 Terrasse 22.30 23.19 99.90
64441 2022-07-19 04:11:15 Bahnzimmer 20.00 18.60 21.00
64440 2022-07-19 04:08:15 Terrasse 22.60 23.52 99.90
64439 2022-07-19 03:41:14 Bahnzimmer 20.00 18.60 21.00
64438 2022-07-19 03:40:00 Terrasse 22.80 23.74 99.90
64437 2022-07-19 03:11:44 Terrasse 22.90 23.85 99.90
64436 2022-07-19 03:11:13 Bahnzimmer 20.00 18.60 21.00
64435 2022-07-19 02:43:30 Terrasse 23.10 24.07 99.90
64434 2022-07-19 02:41:13 Bahnzimmer 20.00 18.60 21.00
64433 2022-07-19 02:15:16 Terrasse 23.40 24.40 99.90
64432 2022-07-19 02:11:12 Bahnzimmer 20.00 18.60 21.00
64431 2022-07-19 01:47:01 Terrasse 23.80 24.84 99.90
64430 2022-07-19 01:41:11 Bahnzimmer 20.00 18.60 21.00
64429 2022-07-19 01:18:47 Terrasse 24.00 25.06 99.90
64428 2022-07-19 01:11:11 Bahnzimmer 20.00 18.60 21.00
64427 2022-07-19 00:50:32 Terrasse 24.50 25.61 99.90
64426 2022-07-19 00:41:10 Bahnzimmer 20.00 18.60 21.00
64425 2022-07-19 00:22:19 Terrasse 24.90 26.05 99.90
64424 2022-07-19 00:11:09 Bahnzimmer 20.00 18.60 21.00
64423 2022-07-18 23:54:05 Terrasse 25.20 25.93 99.90
64422 2022-07-18 23:41:09 Bahnzimmer 20.00 18.60 21.00
64421 2022-07-18 23:25:52 Terrasse 25.60 27.14 99.90
64420 2022-07-18 23:11:08 Bahnzimmer 20.00 18.60 21.00
64419 2022-07-18 22:57:39 Terrasse 25.90 28.09 99.90
64418 2022-07-18 22:41:07 Bahnzimmer 20.00 18.60 21.00
64417 2022-07-18 22:29:26 Terrasse 26.30 29.40 99.90
64416 2022-07-18 22:11:06 Bahnzimmer 20.00 18.60 21.00
64415 2022-07-18 22:01:11 Terrasse 26.70 31.92 99.90
64414 2022-07-18 21:41:06 Bahnzimmer 20.00 18.60 21.00
64413 2022-07-18 21:32:58 Terrasse 27.30 33.89 99.90
64412 2022-07-18 21:11:05 Bahnzimmer 20.00 18.60 21.00
64411 2022-07-18 21:04:47 Terrasse 28.20 37.09 99.90
64410 2022-07-18 20:41:04 Bahnzimmer 21.00 19.68 20.00
64409 2022-07-18 20:36:39 Terrasse 29.30 41.38 99.90
64408 2022-07-18 20:11:04 Bahnzimmer 21.00 19.68 20.00
64407 2022-07-18 20:08:24 Terrasse 29.90 43.89 99.90
64406 2022-07-18 19:41:03 Bahnzimmer 21.00 19.68 20.00
64405 2022-07-18 19:40:09 Terrasse 30.20 45.20 99.90
64404 2022-07-18 19:11:54 Terrasse 30.50 46.53 99.90
64403 2022-07-18 19:11:02 Bahnzimmer 21.00 19.68 20.00
64402 2022-07-18 18:43:42 Terrasse 30.90 48.46 99.90
64401 2022-07-18 18:41:02 Bahnzimmer 20.00 18.58 20.00
64400 2022-07-18 18:15:25 Terrasse 30.90 48.46 99.90
64399 2022-07-18 18:11:01 Bahnzimmer 20.00 18.58 20.00
64398 2022-07-18 17:47:11 Terrasse 31.50 51.49 99.90
64397 2022-07-18 17:41:00 Bahnzimmer 21.00 19.65 19.00
64396 2022-07-18 17:18:57 Terrasse 31.80 53.05 99.90
64395 2022-07-18 17:10:59 Bahnzimmer 20.00 18.58 20.00
64394 2022-07-18 16:50:42 Terrasse 32.10 54.64 99.90
64393 2022-07-18 16:40:59 Bahnzimmer 20.00 18.58 20.00
64392 2022-07-18 16:22:29 Terrasse 32.70 57.91 99.90
64391 2022-07-18 16:10:58 Bahnzimmer 21.00 19.65 19.00
64390 2022-07-18 15:54:14 Terrasse 32.80 58.47 99.90
64389 2022-07-18 15:40:57 Bahnzimmer 21.00 19.65 19.00
64388 2022-07-18 15:25:58 Terrasse 33.00 59.60 99.90
64387 2022-07-18 15:10:57 Bahnzimmer 21.00 19.65 19.00
64386 2022-07-18 14:57:46 Terrasse 33.50 62.47 99.90
64385 2022-07-18 14:40:56 Bahnzimmer 20.00 18.58 20.00
64384 2022-07-18 14:29:36 Terrasse 34.00 65.44 99.90
64383 2022-07-18 14:10:55 Bahnzimmer 20.00 18.58 20.00
64382 2022-07-18 14:01:30 Terrasse 35.20 72.90 99.90
64381 2022-07-18 13:40:54 Bahnzimmer 20.00 18.58 20.00
64380 2022-07-18 13:33:07 Terrasse 35.70 76.15 99.90
64379 2022-07-18 13:10:54 Bahnzimmer 20.00 18.58 20.00
64378 2022-07-18 13:04:29 Terrasse 33.10 60.17 99.90
64377 2022-07-18 12:40:53 Bahnzimmer 20.00 18.55 19.00
64376 2022-07-18 12:36:05 Terrasse 30.20 45.20 99.90
64375 2022-07-18 12:10:52 Bahnzimmer 20.00 18.55 19.00
64374 2022-07-18 12:07:48 Terrasse 29.80 43.46 99.90
64373 2022-07-18 11:40:52 Bahnzimmer 20.00 18.55 19.00
64372 2022-07-18 11:39:31 Terrasse 29.10 40.57 99.90
64371 2022-07-18 11:11:00 Terrasse 27.30 33.89 99.90
64370 2022-07-18 11:10:51 Bahnzimmer 20.00 18.55 19.00
64369 2022-07-18 10:42:31 Terrasse 25.50 26.83 99.90
64368 2022-07-18 10:40:50 Bahnzimmer 20.00 18.55 19.00
64367 2022-07-18 10:14:08 Terrasse 24.20 25.28 99.90
64366 2022-07-18 10:10:50 Bahnzimmer 20.00 18.55 19.00
64365 2022-07-18 09:45:45 Terrasse 23.00 23.96 99.90
64364 2022-07-18 09:40:49 Bahnzimmer 20.00 18.55 19.00
64363 2022-07-18 09:17:21 Terrasse 21.70 22.53 99.90
64362 2022-07-18 09:10:48 Bahnzimmer 19.00 17.48 20.00
64361 2022-07-18 08:48:59 Terrasse 20.60 21.32 99.90
64360 2022-07-18 08:40:47 Bahnzimmer 19.00 17.45 19.00
64359 2022-07-18 08:20:40 Terrasse 19.90 20.55 99.90
64358 2022-07-18 08:10:47 Bahnzimmer 19.00 17.45 19.00
64357 2022-07-18 07:52:21 Terrasse 19.40 17.42 1.00
64356 2022-07-18 07:40:46 Bahnzimmer 19.00 17.45 19.00
64355 2022-07-18 07:24:04 Terrasse 19.10 17.09 1.00
64354 2022-07-18 07:10:45 Bahnzimmer 19.00 17.45 19.00
64353 2022-07-18 06:55:48 Terrasse 18.80 19.34 99.90
64352 2022-07-18 06:40:45 Bahnzimmer 19.00 17.45 19.00
64351 2022-07-18 06:27:33 Terrasse 18.90 19.45 99.90
64350 2022-07-18 06:10:44 Bahnzimmer 19.00 17.45 19.00
64349 2022-07-18 05:59:20 Terrasse 19.10 19.67 99.90
64348 2022-07-18 05:40:43 Bahnzimmer 20.00 18.58 20.00
64347 2022-07-18 05:31:06 Terrasse 19.40 20.00 99.90
64346 2022-07-18 05:10:43 Bahnzimmer 20.00 18.60 21.00
64345 2022-07-18 05:02:53 Terrasse 19.60 20.22 99.90
64344 2022-07-18 04:40:42 Bahnzimmer 20.00 18.60 21.00
64343 2022-07-18 04:34:39 Terrasse 20.00 20.66 99.90
64342 2022-07-18 04:10:41 Bahnzimmer 20.00 18.60 21.00
64341 2022-07-18 04:06:23 Terrasse 20.10 20.77 99.90
64340 2022-07-18 03:40:41 Bahnzimmer 20.00 18.60 21.00
64339 2022-07-18 03:38:09 Terrasse 20.20 20.88 99.90
64338 2022-07-18 03:10:40 Bahnzimmer 20.00 18.60 21.00
64337 2022-07-18 03:09:54 Terrasse 20.30 20.99 99.90
64336 2022-07-18 02:41:38 Terrasse 20.40 21.10 99.90
64335 2022-07-18 02:40:39 Bahnzimmer 20.00 18.60 21.00
64334 2022-07-18 02:13:23 Terrasse 20.40 21.10 99.90
64333 2022-07-18 02:10:38 Bahnzimmer 20.00 18.60 21.00
64332 2022-07-18 01:45:08 Terrasse 20.60 21.32 99.90
64331 2022-07-18 01:40:38 Bahnzimmer 20.00 18.60 21.00
64330 2022-07-18 01:16:54 Terrasse 21.10 21.87 99.90
64329 2022-07-18 01:10:37 Bahnzimmer 20.00 18.60 21.00
64328 2022-07-18 00:48:40 Terrasse 21.20 21.98 99.90
64327 2022-07-18 00:40:36 Bahnzimmer 20.00 18.60 21.00
64326 2022-07-18 00:20:26 Terrasse 21.60 22.42 99.90
64325 2022-07-18 00:10:36 Bahnzimmer 20.00 18.60 21.00
64324 2022-07-17 23:52:14 Terrasse 22.10 22.97 99.90
64323 2022-07-17 23:40:35 Bahnzimmer 20.00 18.60 21.00
64322 2022-07-17 23:23:58 Terrasse 22.40 23.30 99.90
64321 2022-07-17 23:10:34 Bahnzimmer 20.00 18.60 21.00
64320 2022-07-17 22:55:43 Terrasse 22.60 23.52 99.90
64319 2022-07-17 22:40:34 Bahnzimmer 20.00 18.60 21.00
64318 2022-07-17 22:27:28 Terrasse 22.90 23.85 99.90
64317 2022-07-17 22:10:33 Bahnzimmer 20.00 18.60 21.00
64316 2022-07-17 21:59:16 Terrasse 23.50 24.51 99.90
64315 2022-07-17 21:40:32 Bahnzimmer 20.00 18.60 21.00
64314 2022-07-17 21:31:03 Terrasse 24.20 25.28 99.90
64313 2022-07-17 21:10:31 Bahnzimmer 20.00 18.60 21.00
64312 2022-07-17 21:02:50 Terrasse 25.00 25.34 99.90
64311 2022-07-17 20:40:31 Bahnzimmer 20.00 18.58 20.00
64310 2022-07-17 20:34:39 Terrasse 25.70 27.45 99.90
64309 2022-07-17 20:10:30 Bahnzimmer 20.00 18.58 20.00
64308 2022-07-17 20:06:25 Terrasse 26.30 29.40 99.90
64307 2022-07-17 19:40:29 Bahnzimmer 20.00 18.60 21.00
64306 2022-07-17 19:38:12 Terrasse 26.80 32.24 99.90
64305 2022-07-17 19:10:29 Bahnzimmer 20.00 18.58 20.00
64304 2022-07-17 19:09:56 Terrasse 27.20 33.55 99.90
64303 2022-07-17 18:41:43 Terrasse 27.50 34.58 99.90
64302 2022-07-17 18:40:28 Bahnzimmer 20.00 18.58 20.00
64301 2022-07-17 18:13:29 Terrasse 27.80 35.63 99.90
64300 2022-07-17 18:10:27 Bahnzimmer 20.00 18.60 21.00
64299 2022-07-17 17:45:13 Terrasse 28.10 36.72 99.90
64298 2022-07-17 17:40:27 Bahnzimmer 20.00 18.58 20.00
64297 2022-07-17 17:17:00 Terrasse 28.50 38.22 99.90
64296 2022-07-17 17:10:26 Bahnzimmer 20.00 18.58 20.00
64295 2022-07-17 16:48:47 Terrasse 28.80 39.38 99.90
64294 2022-07-17 16:40:25 Bahnzimmer 20.00 18.58 20.00
64293 2022-07-17 16:20:30 Terrasse 29.10 40.57 99.90
64292 2022-07-17 16:10:25 Bahnzimmer 20.00 18.58 20.00
64291 2022-07-17 15:52:18 Terrasse 29.60 42.62 99.90
64290 2022-07-17 15:40:24 Bahnzimmer 20.00 18.58 20.00
64289 2022-07-17 15:24:04 Terrasse 29.90 43.89 99.90
64288 2022-07-17 15:10:23 Bahnzimmer 20.00 18.58 20.00
64287 2022-07-17 14:55:48 Terrasse 30.00 44.32 99.90
64286 2022-07-17 14:40:23 Bahnzimmer 20.00 18.58 20.00
64285 2022-07-17 14:27:42 Terrasse 30.90 48.46 99.90
64284 2022-07-17 14:10:22 Bahnzimmer 20.00 18.58 20.00
64283 2022-07-17 13:59:37 Terrasse 32.10 54.64 99.90
64282 2022-07-17 13:40:21 Bahnzimmer 20.00 18.58 20.00
64281 2022-07-17 13:31:08 Terrasse 32.20 28.87 1.00
64280 2022-07-17 13:10:20 Bahnzimmer 20.00 18.58 20.00
64279 2022-07-17 13:02:27 Terrasse 29.60 26.94 1.00
64278 2022-07-17 12:40:20 Bahnzimmer 20.00 18.55 19.00
64277 2022-07-17 12:34:07 Terrasse 26.80 25.56 1.00
64276 2022-07-17 12:10:19 Bahnzimmer 20.00 18.55 19.00
64275 2022-07-17 12:05:51 Terrasse 26.60 25.34 1.00
64274 2022-07-17 11:40:18 Bahnzimmer 20.00 18.55 19.00
64273 2022-07-17 11:37:28 Terrasse 25.50 24.13 1.00
64272 2022-07-17 11:10:18 Bahnzimmer 20.00 18.55 19.00
64271 2022-07-17 11:08:56 Terrasse 24.10 22.59 1.00
64270 2022-07-17 10:40:29 Terrasse 22.40 20.72 1.00
64269 2022-07-17 10:40:17 Bahnzimmer 20.00 18.55 19.00
64268 2022-07-17 10:12:06 Terrasse 21.10 19.29 1.00
64267 2022-07-17 10:10:16 Bahnzimmer 19.00 17.45 19.00
64266 2022-07-17 09:43:44 Terrasse 20.10 18.19 1.00
64265 2022-07-17 09:40:16 Bahnzimmer 19.00 17.45 19.00
64264 2022-07-17 09:15:23 Terrasse 19.10 17.09 1.00
64263 2022-07-17 09:10:15 Bahnzimmer 19.00 17.45 19.00
64262 2022-07-17 08:47:02 Terrasse 18.00 15.88 1.00
64261 2022-07-17 08:40:14 Bahnzimmer 19.00 17.45 19.00
64260 2022-07-17 08:18:43 Terrasse 17.40 15.22 1.00
64259 2022-07-17 08:10:14 Bahnzimmer 20.00 18.60 21.00
64258 2022-07-17 07:50:25 Terrasse 16.90 14.67 1.00
64257 2022-07-17 07:40:13 Bahnzimmer 20.00 18.60 21.00
64256 2022-07-17 07:22:06 Terrasse 16.40 14.12 1.00
64255 2022-07-17 07:10:12 Bahnzimmer 20.00 18.60 21.00
64254 2022-07-17 06:53:51 Terrasse 16.00 13.68 1.00
64253 2022-07-17 06:40:12 Bahnzimmer 20.00 18.60 21.00
64252 2022-07-17 06:25:36 Terrasse 16.10 13.79 1.00
64251 2022-07-17 06:10:11 Bahnzimmer 20.00 18.60 21.00
64250 2022-07-17 05:57:25 Terrasse 16.40 14.12 1.00
64249 2022-07-17 05:40:10 Bahnzimmer 20.00 18.60 21.00
64248 2022-07-17 05:29:13 Terrasse 16.50 14.23 1.00
64247 2022-07-17 05:10:09 Bahnzimmer 20.00 18.60 21.00
64246 2022-07-17 05:01:02 Terrasse 16.80 14.56 1.00
64245 2022-07-17 04:40:09 Bahnzimmer 20.00 18.60 21.00
64244 2022-07-17 04:32:50 Terrasse 17.10 14.89 1.00
64243 2022-07-17 04:10:08 Bahnzimmer 20.00 18.60 21.00
64242 2022-07-17 04:04:36 Terrasse 17.50 15.33 1.00
64241 2022-07-17 03:40:07 Bahnzimmer 20.00 18.60 21.00
64240 2022-07-17 03:36:24 Terrasse 17.90 15.77 1.00
64239 2022-07-17 03:10:07 Bahnzimmer 20.00 18.60 21.00
64238 2022-07-17 03:08:10 Terrasse 18.20 16.10 1.00
64237 2022-07-17 02:40:06 Bahnzimmer 20.00 18.60 21.00
64236 2022-07-17 02:39:57 Terrasse 18.50 16.43 1.00
64235 2022-07-17 02:11:42 Terrasse 18.60 16.54 1.00
64234 2022-07-17 02:10:05 Bahnzimmer 20.00 18.60 21.00
64233 2022-07-17 01:43:29 Terrasse 18.90 16.87 1.00
64232 2022-07-17 01:40:05 Bahnzimmer 20.00 18.60 21.00
64231 2022-07-17 01:15:14 Terrasse 19.10 17.09 1.00
64230 2022-07-17 01:10:04 Bahnzimmer 20.00 18.60 21.00
64229 2022-07-17 00:47:02 Terrasse 19.40 17.42 1.00
64228 2022-07-17 00:40:03 Bahnzimmer 20.00 18.60 21.00
64227 2022-07-17 00:18:47 Terrasse 19.60 17.64 1.00
64226 2022-07-17 00:10:03 Bahnzimmer 20.00 18.58 20.00
64225 2022-07-16 23:50:32 Terrasse 19.80 17.86 1.00
64224 2022-07-16 23:40:02 Bahnzimmer 20.00 18.58 20.00
64223 2022-07-16 23:22:18 Terrasse 20.00 18.08 1.00
64222 2022-07-16 23:10:01 Bahnzimmer 19.00 17.48 20.00
64221 2022-07-16 22:54:03 Terrasse 20.10 18.19 1.00
64220 2022-07-16 22:40:00 Bahnzimmer 20.00 18.60 21.00
64219 2022-07-16 22:25:52 Terrasse 20.50 18.63 1.00
64218 2022-07-16 22:10:00 Bahnzimmer 20.00 18.60 21.00
64217 2022-07-16 21:57:41 Terrasse 21.40 19.62 1.00
64216 2022-07-16 21:39:59 Bahnzimmer 20.00 18.60 21.00
64215 2022-07-16 21:29:29 Terrasse 22.00 20.28 1.00
64214 2022-07-16 21:09:58 Bahnzimmer 20.00 18.60 21.00
64213 2022-07-16 21:01:15 Terrasse 22.50 20.83 1.00
64212 2022-07-16 20:39:58 Bahnzimmer 20.00 18.60 21.00
64211 2022-07-16 20:33:02 Terrasse 23.10 21.49 1.00
64210 2022-07-16 20:09:57 Bahnzimmer 20.00 18.60 21.00
64209 2022-07-16 20:04:48 Terrasse 23.60 22.04 1.00
64208 2022-07-16 19:39:56 Bahnzimmer 20.00 18.60 21.00
64207 2022-07-16 19:36:35 Terrasse 24.10 22.59 1.00
64206 2022-07-16 19:09:56 Bahnzimmer 20.00 18.60 21.00
64205 2022-07-16 19:08:21 Terrasse 24.50 23.03 1.00
64204 2022-07-16 18:40:07 Terrasse 24.90 23.47 1.00
64203 2022-07-16 18:39:55 Bahnzimmer 20.00 18.60 21.00
64202 2022-07-16 18:11:53 Terrasse 25.30 23.91 1.00
64201 2022-07-16 18:09:54 Bahnzimmer 20.00 18.60 21.00
64200 2022-07-16 17:43:39 Terrasse 25.80 24.46 1.00
64199 2022-07-16 17:39:54 Bahnzimmer 20.00 18.60 21.00
64198 2022-07-16 17:15:24 Terrasse 26.30 25.01 1.00
64197 2022-07-16 17:09:53 Bahnzimmer 20.00 18.60 21.00
64196 2022-07-16 16:47:08 Terrasse 26.30 25.01 1.00
64195 2022-07-16 16:39:52 Bahnzimmer 20.00 18.58 20.00
64194 2022-07-16 16:18:52 Terrasse 26.40 25.12 1.00
64193 2022-07-16 16:09:52 Bahnzimmer 20.00 18.58 20.00
64192 2022-07-16 15:50:43 Terrasse 27.20 26.00 1.00
64191 2022-07-16 15:39:51 Bahnzimmer 20.00 18.58 20.00
64190 2022-07-16 15:22:29 Terrasse 27.30 25.22 1.00
64189 2022-07-16 15:09:50 Bahnzimmer 20.00 18.58 20.00
64188 2022-07-16 14:54:15 Terrasse 27.60 25.50 1.00
64187 2022-07-16 14:39:50 Bahnzimmer 20.00 18.58 20.00
64186 2022-07-16 14:26:02 Terrasse 27.70 25.59 1.00
64185 2022-07-16 14:09:49 Bahnzimmer 20.00 18.58 20.00
64184 2022-07-16 13:57:47 Terrasse 28.10 25.85 1.00
64183 2022-07-16 13:39:48 Bahnzimmer 20.00 18.58 20.00
64182 2022-07-16 13:29:13 Terrasse 26.00 24.68 1.00
64181 2022-07-16 13:09:47 Bahnzimmer 20.00 18.58 20.00
64180 2022-07-16 13:00:56 Terrasse 25.70 24.35 1.00
64179 2022-07-16 12:39:47 Bahnzimmer 20.00 18.58 20.00
64178 2022-07-16 12:32:36 Terrasse 24.60 23.14 1.00
64177 2022-07-16 12:09:46 Bahnzimmer 20.00 18.58 20.00
64176 2022-07-16 12:04:28 Terrasse 25.40 24.02 1.00
64175 2022-07-16 11:39:41 Bahnzimmer 20.00 18.58 20.00
64174 2022-07-16 11:36:05 Terrasse 24.50 23.03 1.00
64173 2022-07-16 11:09:40 Bahnzimmer 20.00 18.55 19.00
64172 2022-07-16 11:07:31 Terrasse 22.90 21.27 1.00
64171 2022-07-16 10:39:40 Bahnzimmer 19.00 17.45 19.00
64170 2022-07-16 10:39:06 Terrasse 21.20 19.40 1.00
64169 2022-07-16 10:10:40 Terrasse 19.70 17.75 1.00
64168 2022-07-16 10:09:39 Bahnzimmer 19.00 17.48 20.00
64167 2022-07-16 09:42:19 Terrasse 18.70 16.65 1.00
64166 2022-07-16 09:39:38 Bahnzimmer 19.00 17.48 20.00
64165 2022-07-16 09:14:02 Terrasse 18.30 16.21 1.00
64164 2022-07-16 09:09:38 Bahnzimmer 19.00 17.48 20.00
64163 2022-07-16 08:45:51 Terrasse 17.80 15.89 9.80
64162 2022-07-16 08:39:37 Bahnzimmer 19.00 17.48 20.00
64161 2022-07-16 08:17:29 Terrasse 17.20 15.00 1.00
64160 2022-07-16 08:09:35 Bahnzimmer 19.00 17.45 19.00
64159 2022-07-16 07:49:14 Terrasse 16.70 14.45 1.00
64158 2022-07-16 07:39:35 Bahnzimmer 19.00 17.45 19.00
64157 2022-07-16 07:21:06 Terrasse 16.20 13.90 1.00
64156 2022-07-16 07:09:34 Bahnzimmer 20.00 18.60 21.00
64155 2022-07-16 06:52:45 Terrasse 15.90 14.47 35.60
64154 2022-07-16 06:39:33 Bahnzimmer 20.00 18.60 21.00
64153 2022-07-16 06:24:30 Terrasse 15.60 13.57 13.70
64152 2022-07-16 06:09:33 Bahnzimmer 20.00 18.60 21.00
64151 2022-07-16 05:56:17 Terrasse 15.60 13.24 1.00
64150 2022-07-16 05:39:32 Bahnzimmer 20.00 18.60 21.00
64149 2022-07-16 05:28:03 Terrasse 15.80 13.46 1.00
64148 2022-07-16 05:09:31 Bahnzimmer 20.00 18.60 21.00
64147 2022-07-16 04:59:47 Terrasse 15.80 13.46 1.00
64146 2022-07-16 04:39:31 Bahnzimmer 20.00 18.60 21.00
64145 2022-07-16 04:31:34 Terrasse 16.00 13.68 1.00
64144 2022-07-16 04:09:30 Bahnzimmer 20.00 18.60 21.00
64143 2022-07-16 04:03:20 Terrasse 16.10 13.79 1.00
64142 2022-07-16 03:39:29 Bahnzimmer 20.00 18.60 21.00
64141 2022-07-16 03:35:07 Terrasse 16.30 14.01 1.00
64140 2022-07-16 03:09:29 Bahnzimmer 20.00 18.60 21.00
64139 2022-07-16 03:06:54 Terrasse 16.60 14.34 1.00
64138 2022-07-16 02:39:28 Bahnzimmer 20.00 18.60 21.00
64137 2022-07-16 02:38:40 Terrasse 16.90 14.67 1.00
64136 2022-07-16 02:10:26 Terrasse 17.10 14.89 1.00
64135 2022-07-16 02:09:27 Bahnzimmer 20.00 18.60 21.00
64134 2022-07-16 01:42:13 Terrasse 17.40 15.22 1.00
64133 2022-07-16 01:39:27 Bahnzimmer 20.00 18.60 21.00
64132 2022-07-16 01:13:59 Terrasse 17.40 15.22 1.00
64131 2022-07-16 01:09:26 Bahnzimmer 20.00 18.60 21.00
64130 2022-07-16 00:45:46 Terrasse 17.60 15.44 1.00
64129 2022-07-16 00:39:25 Bahnzimmer 20.00 18.60 21.00
64128 2022-07-16 00:17:32 Terrasse 17.90 15.77 1.00
64127 2022-07-16 00:09:24 Bahnzimmer 20.00 18.60 21.00
64126 2022-07-15 23:49:20 Terrasse 18.20 16.10 1.00
64125 2022-07-15 23:39:24 Bahnzimmer 20.00 18.60 21.00
64124 2022-07-15 23:21:07 Terrasse 18.80 16.76 1.00
64123 2022-07-15 23:09:23 Bahnzimmer 20.00 18.58 20.00
64122 2022-07-15 22:52:53 Terrasse 19.30 17.31 1.00
64121 2022-07-15 22:39:22 Bahnzimmer 20.00 18.55 19.00
64120 2022-07-15 22:24:40 Terrasse 19.80 17.86 1.00
64119 2022-07-15 22:09:22 Bahnzimmer 20.00 18.55 19.00
64118 2022-07-15 21:56:27 Terrasse 20.30 18.41 1.00
64117 2022-07-15 21:39:21 Bahnzimmer 21.00 19.68 20.00
64116 2022-07-15 21:28:15 Terrasse 21.10 19.29 1.00
64115 2022-07-15 21:09:20 Bahnzimmer 21.00 19.68 20.00
64114 2022-07-15 21:00:01 Terrasse 21.60 19.84 1.00
64113 2022-07-15 20:39:20 Bahnzimmer 21.00 19.68 20.00
64112 2022-07-15 20:31:48 Terrasse 22.00 20.28 1.00
64111 2022-07-15 20:09:19 Bahnzimmer 21.00 19.68 20.00
64110 2022-07-15 20:03:34 Terrasse 22.50 20.83 1.00
64109 2022-07-15 19:39:18 Bahnzimmer 21.00 19.68 20.00
64108 2022-07-15 19:35:22 Terrasse 23.00 21.38 1.00
64107 2022-07-15 19:09:18 Bahnzimmer 21.00 19.68 20.00
64106 2022-07-15 19:07:09 Terrasse 23.50 21.93 1.00
64105 2022-07-15 18:39:17 Bahnzimmer 21.00 19.68 20.00
64104 2022-07-15 18:38:57 Terrasse 24.00 22.48 1.00
64103 2022-07-15 18:10:45 Terrasse 24.40 22.92 1.00
64102 2022-07-15 18:09:16 Bahnzimmer 21.00 19.68 20.00
64101 2022-07-15 17:42:31 Terrasse 24.70 23.25 1.00
64100 2022-07-15 17:39:16 Bahnzimmer 21.00 19.68 20.00
64099 2022-07-15 17:14:16 Terrasse 24.90 23.47 1.00
64098 2022-07-15 17:09:15 Bahnzimmer 21.00 19.68 20.00
64097 2022-07-15 16:46:02 Terrasse 25.30 23.91 1.00
64096 2022-07-15 16:39:14 Bahnzimmer 21.00 19.68 20.00
64095 2022-07-15 16:17:47 Terrasse 25.50 24.13 1.00
64094 2022-07-15 15:49:34 Terrasse 26.20 24.90 1.00
64093 2022-07-15 15:39:08 Bahnzimmer 21.00 19.68 20.00
64092 2022-07-15 15:21:19 Terrasse 26.20 24.90 1.00
64091 2022-07-15 15:09:07 Bahnzimmer 21.00 19.68 20.00
64090 2022-07-15 14:53:00 Terrasse 26.00 24.68 1.00
64089 2022-07-15 14:39:07 Bahnzimmer 21.00 19.68 20.00
64088 2022-07-15 14:25:01 Terrasse 27.40 25.31 1.00
64087 2022-07-15 14:09:06 Bahnzimmer 21.00 19.65 19.00
64086 2022-07-15 13:56:57 Terrasse 28.70 26.30 1.00
64085 2022-07-15 13:39:05 Bahnzimmer 20.00 18.58 20.00
64084 2022-07-15 13:28:20 Terrasse 27.30 25.22 1.00
64083 2022-07-15 13:09:05 Bahnzimmer 20.00 18.55 19.00
64082 2022-07-15 12:59:34 Terrasse 24.10 22.59 1.00
64081 2022-07-15 12:39:04 Bahnzimmer 20.00 18.55 19.00
64080 2022-07-15 12:31:09 Terrasse 22.60 20.94 1.00
64079 2022-07-15 12:09:03 Bahnzimmer 20.00 18.58 20.00
64078 2022-07-15 12:02:51 Terrasse 23.30 21.71 1.00
64077 2022-07-15 11:39:03 Bahnzimmer 20.00 18.58 20.00
64076 2022-07-15 11:34:21 Terrasse 21.80 20.06 1.00
64075 2022-07-15 11:09:02 Bahnzimmer 20.00 18.58 20.00
64074 2022-07-15 11:06:05 Terrasse 21.10 19.29 1.00
64073 2022-07-15 10:39:01 Bahnzimmer 20.00 18.60 21.00
64072 2022-07-15 10:37:46 Terrasse 20.70 18.85 1.00
64071 2022-07-15 10:09:25 Terrasse 19.70 17.75 1.00
64070 2022-07-15 10:09:01 Bahnzimmer 20.00 18.60 21.00
64069 2022-07-15 09:41:04 Terrasse 19.50 19.71 84.60
64068 2022-07-15 09:39:00 Bahnzimmer 20.00 18.60 21.00
64067 2022-07-15 09:12:45 Terrasse 18.90 19.45 99.90
64066 2022-07-15 09:08:59 Bahnzimmer 19.00 17.50 21.00
64065 2022-07-15 08:44:27 Terrasse 18.50 19.01 99.90
64064 2022-07-15 08:38:58 Bahnzimmer 19.00 17.50 21.00
64063 2022-07-15 08:16:10 Terrasse 17.90 18.35 99.90
64062 2022-07-15 08:08:58 Bahnzimmer 19.00 17.50 21.00
64061 2022-07-15 07:47:53 Terrasse 17.60 18.02 99.90
64060 2022-07-15 07:38:57 Bahnzimmer 19.00 17.50 21.00
64059 2022-07-15 07:19:37 Terrasse 17.30 17.69 99.90
64058 2022-07-15 07:08:56 Bahnzimmer 19.00 17.50 21.00
64057 2022-07-15 06:51:20 Terrasse 17.30 16.64 59.40
64056 2022-07-15 06:38:56 Bahnzimmer 20.00 18.60 21.00
64055 2022-07-15 06:23:03 Terrasse 17.20 15.00 1.00
64054 2022-07-15 06:08:55 Bahnzimmer 21.00 19.99 32.00
64053 2022-07-15 05:54:47 Terrasse 17.00 14.78 1.00
64052 2022-07-15 05:38:54 Bahnzimmer 21.00 19.99 32.00
64051 2022-07-15 05:26:33 Terrasse 17.10 14.89 1.00
64050 2022-07-15 05:08:54 Bahnzimmer 21.00 20.02 33.00
64049 2022-07-15 04:58:19 Terrasse 17.10 14.89 1.00
64048 2022-07-15 04:38:53 Bahnzimmer 21.00 19.99 32.00
64047 2022-07-15 04:30:03 Terrasse 17.10 14.89 1.00
64046 2022-07-15 04:08:52 Bahnzimmer 21.00 20.02 33.00
64045 2022-07-15 04:01:49 Terrasse 17.00 14.78 1.00
64044 2022-07-15 03:38:52 Bahnzimmer 21.00 20.02 33.00
64043 2022-07-15 03:33:38 Terrasse 17.40 15.22 1.00
64042 2022-07-15 03:08:51 Bahnzimmer 21.00 20.02 33.00
64041 2022-07-15 03:05:25 Terrasse 18.00 15.88 1.00
64040 2022-07-15 02:38:49 Bahnzimmer 21.00 19.99 32.00
64039 2022-07-15 02:37:14 Terrasse 18.40 16.32 1.00
64038 2022-07-15 02:09:00 Terrasse 19.00 16.98 1.00
64037 2022-07-15 02:08:49 Bahnzimmer 21.00 20.02 33.00
64036 2022-07-15 01:40:47 Terrasse 19.30 17.31 1.00
64035 2022-07-15 01:38:48 Bahnzimmer 21.00 20.04 34.00
64034 2022-07-15 01:12:34 Terrasse 19.60 17.64 1.00
64033 2022-07-15 01:08:47 Bahnzimmer 21.00 20.04 34.00
64032 2022-07-15 00:44:20 Terrasse 19.90 17.97 1.00
64031 2022-07-15 00:38:46 Bahnzimmer 21.00 19.99 32.00
64030 2022-07-15 00:16:07 Terrasse 20.10 18.19 1.00
64029 2022-07-15 00:08:46 Bahnzimmer 21.00 20.04 34.00
64028 2022-07-14 23:48:04 Terrasse 20.40 18.52 1.00
64027 2022-07-14 23:38:45 Bahnzimmer 21.00 20.02 33.00
64026 2022-07-14 23:19:47 Terrasse 21.00 19.18 1.00
64025 2022-07-14 23:08:44 Bahnzimmer 21.00 20.02 33.00
64024 2022-07-14 22:51:34 Terrasse 21.40 19.62 1.00
64023 2022-07-14 22:38:44 Bahnzimmer 21.00 20.02 33.00
64022 2022-07-14 22:23:21 Terrasse 21.80 20.06 1.00
64021 2022-07-14 22:08:43 Bahnzimmer 21.00 20.04 34.00
64020 2022-07-14 21:55:08 Terrasse 22.30 20.61 1.00
64019 2022-07-14 21:38:42 Bahnzimmer 21.00 20.04 34.00
64018 2022-07-14 21:26:55 Terrasse 22.80 21.16 1.00
64017 2022-07-14 21:08:42 Bahnzimmer 21.00 20.04 34.00
64016 2022-07-14 20:58:43 Terrasse 23.40 21.82 1.00
64015 2022-07-14 20:38:41 Bahnzimmer 21.00 20.04 34.00
64014 2022-07-14 20:30:29 Terrasse 23.80 22.26 1.00
64013 2022-07-14 20:08:40 Bahnzimmer 21.00 20.04 34.00
64012 2022-07-14 20:02:24 Terrasse 24.40 22.92 1.00
64011 2022-07-14 19:38:40 Bahnzimmer 21.00 20.04 34.00
64010 2022-07-14 19:34:07 Terrasse 24.90 23.47 1.00
64009 2022-07-14 19:08:39 Bahnzimmer 21.00 20.07 35.00
64008 2022-07-14 19:05:55 Terrasse 25.30 23.91 1.00
64007 2022-07-14 18:38:38 Bahnzimmer 21.00 20.07 35.00
64006 2022-07-14 18:37:43 Terrasse 26.10 24.79 1.00
64005 2022-07-14 18:09:27 Terrasse 26.40 25.12 1.00
64004 2022-07-14 18:08:38 Bahnzimmer 21.00 20.10 36.00
64003 2022-07-14 17:41:11 Terrasse 26.40 25.12 1.00
64002 2022-07-14 17:38:37 Bahnzimmer 21.00 20.10 36.00
64001 2022-07-14 17:12:57 Terrasse 26.50 25.23 1.00
64000 2022-07-14 17:08:36 Bahnzimmer 21.00 20.10 36.00
63999 2022-07-14 16:44:43 Terrasse 26.60 25.34 1.00
63998 2022-07-14 16:38:36 Bahnzimmer 21.00 20.10 36.00
63997 2022-07-14 16:16:29 Terrasse 27.20 26.00 1.00
63996 2022-07-14 16:08:34 Bahnzimmer 21.00 20.07 35.00
63995 2022-07-14 15:48:17 Terrasse 26.90 25.67 1.00
63994 2022-07-14 15:38:33 Bahnzimmer 21.00 20.07 35.00
63993 2022-07-14 15:20:05 Terrasse 27.80 25.58 1.00
63992 2022-07-14 15:08:32 Bahnzimmer 21.00 20.04 34.00
63991 2022-07-14 14:51:55 Terrasse 29.00 26.49 1.00
63990 2022-07-14 14:38:32 Bahnzimmer 21.00 20.04 34.00
63989 2022-07-14 14:23:48 Terrasse 29.70 27.03 1.00
63988 2022-07-14 14:08:31 Bahnzimmer 21.00 20.04 34.00
63987 2022-07-14 13:55:19 Terrasse 29.40 26.84 1.00
63986 2022-07-14 13:38:30 Bahnzimmer 21.00 20.10 36.00
63985 2022-07-14 13:27:04 Terrasse 29.10 26.58 1.00
63984 2022-07-14 13:08:30 Bahnzimmer 21.00 20.12 37.00
63983 2022-07-14 12:58:36 Terrasse 26.90 25.87 8.70
63982 2022-07-14 12:38:29 Bahnzimmer 21.00 20.10 36.00
63981 2022-07-14 12:30:19 Terrasse 26.40 25.56 17.70
63980 2022-07-14 12:08:28 Bahnzimmer 21.00 20.12 37.00
63979 2022-07-14 12:01:58 Terrasse 25.80 27.77 99.90
63978 2022-07-14 11:38:28 Bahnzimmer 21.00 20.10 36.00
63977 2022-07-14 11:33:43 Terrasse 25.80 27.77 99.90
63976 2022-07-14 11:08:27 Bahnzimmer 21.00 20.12 37.00
63975 2022-07-14 11:05:24 Terrasse 25.40 26.53 99.90
63974 2022-07-14 10:38:24 Bahnzimmer 21.00 20.10 36.00
63973 2022-07-14 10:37:00 Terrasse 24.30 25.39 99.90
63972 2022-07-14 10:08:42 Terrasse 23.60 24.62 99.90
63971 2022-07-14 10:08:24 Bahnzimmer 21.00 20.04 34.00
63970 2022-07-14 09:40:23 Terrasse 23.20 24.18 99.90
63969 2022-07-14 09:38:23 Bahnzimmer 21.00 20.04 34.00
63968 2022-07-14 09:12:06 Terrasse 23.10 24.07 99.90
63967 2022-07-14 09:08:22 Bahnzimmer 21.00 20.04 34.00
63966 2022-07-14 08:43:49 Terrasse 22.80 23.74 99.90
63965 2022-07-14 08:38:22 Bahnzimmer 21.00 20.04 34.00
63964 2022-07-14 08:15:32 Terrasse 22.50 23.41 99.90
63963 2022-07-14 08:08:21 Bahnzimmer 21.00 20.12 37.00
63962 2022-07-14 07:47:14 Terrasse 22.20 23.08 99.90
63961 2022-07-14 07:18:59 Terrasse 22.00 22.86 99.90
63960 2022-07-14 07:08:15 Bahnzimmer 20.00 18.97 35.00
63959 2022-07-14 06:50:43 Terrasse 22.10 22.97 99.90
63958 2022-07-14 06:38:14 Bahnzimmer 20.00 18.94 34.00
63957 2022-07-14 06:22:28 Terrasse 22.20 20.50 1.00
63956 2022-07-14 06:08:13 Bahnzimmer 21.00 19.99 32.00
63955 2022-07-14 05:54:12 Terrasse 22.20 20.50 1.00
63954 2022-07-14 05:38:12 Bahnzimmer 21.00 19.99 32.00
63953 2022-07-14 05:25:57 Terrasse 22.40 20.72 1.00
63952 2022-07-14 05:08:12 Bahnzimmer 21.00 19.99 32.00
63951 2022-07-14 04:57:42 Terrasse 22.40 20.72 1.00
63950 2022-07-14 04:38:11 Bahnzimmer 21.00 20.02 33.00
63949 2022-07-14 04:29:26 Terrasse 22.60 20.94 1.00
63948 2022-07-14 04:08:10 Bahnzimmer 21.00 20.02 33.00
63947 2022-07-14 04:01:12 Terrasse 22.90 21.27 1.00
63946 2022-07-14 03:38:10 Bahnzimmer 21.00 20.02 33.00
63945 2022-07-14 03:32:58 Terrasse 23.30 21.71 1.00
63944 2022-07-14 03:08:09 Bahnzimmer 21.00 20.02 33.00
63943 2022-07-14 03:04:44 Terrasse 23.70 22.15 1.00
63942 2022-07-14 02:38:08 Bahnzimmer 21.00 20.02 33.00
63941 2022-07-14 02:36:28 Terrasse 23.90 22.37 1.00
63940 2022-07-14 02:08:14 Terrasse 24.20 22.70 1.00
63939 2022-07-14 02:08:08 Bahnzimmer 21.00 19.99 32.00
63938 2022-07-14 01:40:01 Terrasse 24.40 22.92 1.00
63937 2022-07-14 01:38:07 Bahnzimmer 21.00 20.02 33.00
63936 2022-07-14 01:11:48 Terrasse 24.80 23.36 1.00
63935 2022-07-14 01:08:06 Bahnzimmer 21.00 20.02 33.00
63934 2022-07-14 00:43:34 Terrasse 25.20 23.80 1.00
63933 2022-07-14 00:38:06 Bahnzimmer 21.00 20.02 33.00
63932 2022-07-14 00:15:20 Terrasse 25.40 24.02 1.00
63931 2022-07-14 00:08:05 Bahnzimmer 21.00 20.02 33.00
63930 2022-07-13 23:47:05 Terrasse 25.80 24.46 1.00
63929 2022-07-13 23:38:04 Bahnzimmer 21.00 19.99 32.00
63928 2022-07-13 23:18:51 Terrasse 26.10 24.79 1.00
63927 2022-07-13 23:08:04 Bahnzimmer 21.00 19.99 32.00
63926 2022-07-13 22:50:37 Terrasse 26.50 25.23 1.00
63925 2022-07-13 22:38:03 Bahnzimmer 21.00 19.99 32.00
63924 2022-07-13 22:22:23 Terrasse 26.70 25.45 1.00
63923 2022-07-13 22:08:02 Bahnzimmer 21.00 19.96 31.00
63922 2022-07-13 21:54:08 Terrasse 27.10 25.89 1.00
63921 2022-07-13 21:38:02 Bahnzimmer 21.00 20.02 33.00
63920 2022-07-13 21:25:54 Terrasse 27.50 25.41 1.00
63919 2022-07-13 21:08:01 Bahnzimmer 21.00 20.02 33.00
63918 2022-07-13 20:57:41 Terrasse 28.00 25.76 1.00
63917 2022-07-13 20:38:00 Bahnzimmer 21.00 20.02 33.00
63916 2022-07-13 20:29:28 Terrasse 28.60 26.21 1.00
63915 2022-07-13 20:07:59 Bahnzimmer 21.00 19.99 32.00
63914 2022-07-13 20:01:17 Terrasse 29.30 41.38 99.90
63913 2022-07-13 19:37:59 Bahnzimmer 21.00 19.99 32.00
63912 2022-07-13 19:33:04 Terrasse 29.90 43.89 99.90
63911 2022-07-13 19:07:58 Bahnzimmer 21.00 19.99 32.00
63910 2022-07-13 19:04:49 Terrasse 30.20 45.20 99.90
63909 2022-07-13 18:37:58 Bahnzimmer 21.00 19.99 32.00
63908 2022-07-13 18:36:34 Terrasse 30.50 46.53 99.90
63907 2022-07-13 18:08:18 Terrasse 30.60 47.00 99.90
63906 2022-07-13 18:07:57 Bahnzimmer 21.00 19.99 32.00
63905 2022-07-13 17:40:04 Terrasse 30.70 47.48 99.90
63904 2022-07-13 17:37:56 Bahnzimmer 21.00 19.99 32.00
63903 2022-07-13 17:11:49 Terrasse 30.70 47.48 99.90
63902 2022-07-13 17:07:55 Bahnzimmer 21.00 19.99 32.00
63901 2022-07-13 16:43:33 Terrasse 30.70 47.48 99.90
63900 2022-07-13 16:37:55 Bahnzimmer 21.00 19.99 32.00
63899 2022-07-13 16:15:18 Terrasse 31.10 28.08 1.00
63898 2022-07-13 16:07:54 Bahnzimmer 21.00 19.96 31.00
63897 2022-07-13 15:47:04 Terrasse 31.50 28.35 1.00
63896 2022-07-13 15:37:53 Bahnzimmer 21.00 19.96 31.00
63895 2022-07-13 15:18:52 Terrasse 32.20 28.87 1.00
63894 2022-07-13 15:07:53 Bahnzimmer 21.00 19.94 30.00
63893 2022-07-13 14:50:37 Terrasse 31.80 28.54 1.00
63892 2022-07-13 14:37:52 Bahnzimmer 21.00 19.83 26.00
63891 2022-07-13 14:22:34 Terrasse 33.30 29.64 1.00
63890 2022-07-13 14:07:51 Bahnzimmer 21.00 19.73 22.00
63889 2022-07-13 13:54:21 Terrasse 34.00 30.09 1.00
63888 2022-07-13 13:37:51 Bahnzimmer 21.00 19.68 20.00
63887 2022-07-13 13:25:45 Terrasse 32.10 28.79 1.00
63886 2022-07-13 13:07:50 Bahnzimmer 21.00 19.68 20.00
63885 2022-07-13 12:57:07 Terrasse 26.40 25.12 1.00
63884 2022-07-13 12:37:49 Bahnzimmer 21.00 19.76 23.00
63883 2022-07-13 12:28:53 Terrasse 26.60 25.34 1.00
63882 2022-07-13 12:07:49 Bahnzimmer 21.00 19.68 20.00
63881 2022-07-13 12:00:26 Terrasse 24.90 25.89 93.50
63880 2022-07-13 11:37:48 Bahnzimmer 21.00 19.68 20.00
63879 2022-07-13 11:32:09 Terrasse 24.60 24.55 55.00
63878 2022-07-13 11:07:47 Bahnzimmer 21.00 19.68 20.00
63877 2022-07-13 11:03:52 Terrasse 24.10 25.17 99.90
63876 2022-07-13 10:37:47 Bahnzimmer 20.00 18.76 27.00
63875 2022-07-13 10:35:39 Terrasse 23.60 24.62 99.90
63874 2022-07-13 10:07:46 Bahnzimmer 20.00 18.89 32.00
63873 2022-07-13 10:07:17 Terrasse 22.90 23.85 99.90
63872 2022-07-13 09:38:59 Terrasse 22.50 23.41 99.90
63871 2022-07-13 09:37:45 Bahnzimmer 20.00 18.97 35.00
63870 2022-07-13 09:10:40 Terrasse 22.10 20.39 1.00
63869 2022-07-13 09:07:44 Bahnzimmer 20.00 19.02 37.00
63868 2022-07-13 08:42:22 Terrasse 21.70 22.41 95.10
63867 2022-07-13 08:37:43 Bahnzimmer 20.00 19.15 42.00
63866 2022-07-13 08:14:04 Terrasse 21.30 19.51 1.00
63865 2022-07-13 08:07:42 Bahnzimmer 20.00 19.15 42.00
63864 2022-07-13 07:45:47 Terrasse 21.00 19.18 1.00
63863 2022-07-13 07:37:39 Bahnzimmer 20.00 19.15 42.00
63862 2022-07-13 07:17:32 Terrasse 20.80 18.96 1.00
63861 2022-07-13 07:07:39 Bahnzimmer 19.00 17.95 38.00
63860 2022-07-13 06:49:16 Terrasse 20.60 21.32 99.90
63859 2022-07-13 06:37:38 Bahnzimmer 20.00 19.00 36.00
63858 2022-07-13 06:21:01 Terrasse 20.50 18.65 1.60
63857 2022-07-13 06:07:37 Bahnzimmer 20.00 19.00 36.00
63856 2022-07-13 05:52:46 Terrasse 20.60 18.74 1.00
63855 2022-07-13 05:37:37 Bahnzimmer 20.00 19.00 36.00
63854 2022-07-13 05:24:31 Terrasse 20.60 18.74 1.00
63853 2022-07-13 05:07:36 Bahnzimmer 20.00 19.00 36.00
63852 2022-07-13 04:56:16 Terrasse 20.60 18.74 1.00
63851 2022-07-13 04:37:35 Bahnzimmer 20.00 18.97 35.00
63850 2022-07-13 04:28:00 Terrasse 20.70 18.85 1.00
63849 2022-07-13 04:07:35 Bahnzimmer 20.00 19.00 36.00
63848 2022-07-13 03:59:45 Terrasse 21.00 21.76 99.90
63847 2022-07-13 03:37:34 Bahnzimmer 20.00 18.97 35.00
63846 2022-07-13 03:31:31 Terrasse 21.20 21.98 99.90
63845 2022-07-13 03:07:33 Bahnzimmer 20.00 19.00 36.00
63844 2022-07-13 03:03:15 Terrasse 21.40 20.14 20.70
63843 2022-07-13 02:37:33 Bahnzimmer 20.00 19.00 36.00
63842 2022-07-13 02:34:58 Terrasse 21.50 19.73 1.00
63841 2022-07-13 02:07:32 Bahnzimmer 20.00 19.02 37.00
63840 2022-07-13 02:06:43 Terrasse 21.50 19.73 1.00
63839 2022-07-13 01:38:29 Terrasse 21.60 19.84 1.00
63838 2022-07-13 01:37:31 Bahnzimmer 20.00 19.00 36.00
63837 2022-07-13 01:10:15 Terrasse 21.60 19.84 1.00
63836 2022-07-13 01:07:31 Bahnzimmer 20.00 19.00 36.00
63835 2022-07-13 00:42:00 Terrasse 21.80 20.06 1.00
63834 2022-07-13 00:37:30 Bahnzimmer 20.00 19.00 36.00
63833 2022-07-13 00:13:47 Terrasse 22.20 20.50 1.00
63832 2022-07-13 00:07:29 Bahnzimmer 20.00 19.02 37.00
63831 2022-07-12 23:45:32 Terrasse 22.50 20.83 1.00
63830 2022-07-12 23:37:29 Bahnzimmer 20.00 19.05 38.00
63829 2022-07-12 23:17:21 Terrasse 22.80 21.16 1.00
63828 2022-07-12 23:07:28 Bahnzimmer 20.00 19.05 38.00
63827 2022-07-12 22:49:07 Terrasse 23.20 21.60 1.00
63826 2022-07-12 22:37:27 Bahnzimmer 20.00 19.05 38.00
63825 2022-07-12 22:20:52 Terrasse 23.60 22.04 1.00
63824 2022-07-12 22:07:27 Bahnzimmer 20.00 19.05 38.00
63823 2022-07-12 21:52:40 Terrasse 24.10 22.59 1.00
63822 2022-07-12 21:37:26 Bahnzimmer 20.00 19.05 38.00
63821 2022-07-12 21:24:28 Terrasse 24.70 23.25 1.00
63820 2022-07-12 21:07:25 Bahnzimmer 20.00 19.05 38.00
63819 2022-07-12 20:56:15 Terrasse 25.20 23.80 1.00
63818 2022-07-12 20:37:25 Bahnzimmer 20.00 19.05 38.00
63817 2022-07-12 20:28:01 Terrasse 25.70 24.35 1.00
63816 2022-07-12 20:07:24 Bahnzimmer 20.00 19.05 38.00
63815 2022-07-12 19:59:50 Terrasse 26.30 25.01 1.00
63814 2022-07-12 19:37:23 Bahnzimmer 20.00 19.05 38.00
63813 2022-07-12 19:31:38 Terrasse 27.00 25.78 1.00
63812 2022-07-12 19:07:23 Bahnzimmer 20.00 19.07 39.00
63811 2022-07-12 19:03:25 Terrasse 27.50 25.41 1.00
63810 2022-07-12 18:37:22 Bahnzimmer 20.00 19.05 38.00
63809 2022-07-12 18:35:11 Terrasse 27.90 25.67 1.00
63808 2022-07-12 18:07:21 Bahnzimmer 20.00 19.07 39.00
63807 2022-07-12 18:06:58 Terrasse 28.30 26.03 1.00
63806 2022-07-12 17:38:41 Terrasse 28.20 25.94 1.00
63805 2022-07-12 17:37:21 Bahnzimmer 20.00 19.10 40.00
63804 2022-07-12 17:10:27 Terrasse 28.30 26.03 1.00
63803 2022-07-12 17:07:20 Bahnzimmer 20.00 19.10 40.00
63802 2022-07-12 16:42:14 Terrasse 28.70 26.30 1.00
63801 2022-07-12 16:37:19 Bahnzimmer 20.00 19.10 40.00
63800 2022-07-12 16:14:02 Terrasse 29.40 26.84 1.00
63799 2022-07-12 16:07:19 Bahnzimmer 20.00 19.10 40.00
63798 2022-07-12 15:45:48 Terrasse 29.90 27.20 1.00
63797 2022-07-12 15:37:18 Bahnzimmer 20.00 19.10 40.00
63796 2022-07-12 15:17:33 Terrasse 29.80 27.11 1.00
63795 2022-07-12 14:49:20 Terrasse 30.00 27.28 1.00
63794 2022-07-12 14:37:12 Bahnzimmer 20.00 19.10 40.00
63793 2022-07-12 14:21:14 Terrasse 30.80 27.83 1.00
63792 2022-07-12 14:07:11 Bahnzimmer 20.00 19.10 40.00
63791 2022-07-12 13:52:58 Terrasse 31.50 28.35 1.00
63790 2022-07-12 13:37:10 Bahnzimmer 20.00 19.15 42.00
63789 2022-07-12 13:24:42 Terrasse 31.60 28.44 1.00
63788 2022-07-12 13:07:10 Bahnzimmer 20.00 19.15 42.00
63787 2022-07-12 12:55:51 Terrasse 27.50 34.58 99.90
63786 2022-07-12 12:37:09 Bahnzimmer 20.00 19.18 43.00
63785 2022-07-12 12:27:37 Terrasse 26.10 28.74 99.90
63784 2022-07-12 12:07:08 Bahnzimmer 19.00 18.10 44.00
63783 2022-07-12 11:59:15 Terrasse 25.40 24.02 1.00
63782 2022-07-12 11:37:08 Bahnzimmer 19.00 18.13 45.00
63781 2022-07-12 11:31:10 Terrasse 22.60 23.52 99.90
63780 2022-07-12 11:07:07 Bahnzimmer 19.00 18.16 46.00
63779 2022-07-12 10:37:06 Bahnzimmer 19.00 18.16 46.00
63778 2022-07-12 10:31:48 Terrasse 20.90 21.65 99.90
63777 2022-07-12 10:07:06 Bahnzimmer 19.00 18.16 46.00
63776 2022-07-12 10:03:40 Terrasse 19.60 17.64 1.00
63775 2022-07-12 09:37:05 Bahnzimmer 18.00 17.08 47.00
63774 2022-07-12 09:07:04 Bahnzimmer 18.00 17.08 47.00
63773 2022-07-12 08:06:58 Bahnzimmer 18.00 17.03 45.00
63772 2022-07-12 08:02:20 Terrasse 16.70 17.03 99.90
63771 2022-07-12 07:36:57 Bahnzimmer 18.00 16.98 43.00
63770 2022-07-12 07:34:13 Terrasse 16.20 16.48 99.90
63769 2022-07-12 07:07:15 Terrasse 15.60 15.82 99.90
63768 2022-07-12 07:06:57 Bahnzimmer 18.00 16.80 36.00
63767 2022-07-12 06:36:57 Terrasse 15.10 15.27 99.90
63766 2022-07-12 06:36:54 Bahnzimmer 19.00 17.79 32.00
63765 2022-07-12 06:08:23 Terrasse 15.30 13.06 6.50
63764 2022-07-12 06:06:51 Bahnzimmer 19.00 17.79 32.00
63763 2022-07-12 05:41:12 Terrasse 15.50 13.13 1.00
63762 2022-07-12 05:36:51 Bahnzimmer 19.00 17.79 32.00
63761 2022-07-12 05:11:19 Terrasse 15.50 13.13 1.00
63760 2022-07-12 05:06:50 Bahnzimmer 19.00 17.76 31.00
63759 2022-07-12 04:43:39 Terrasse 15.70 13.35 1.00
63758 2022-07-12 04:36:49 Bahnzimmer 19.00 17.79 32.00
63757 2022-07-12 04:15:19 Terrasse 15.90 13.57 1.00
63756 2022-07-12 04:06:49 Bahnzimmer 19.00 17.79 32.00
63755 2022-07-12 03:47:21 Terrasse 16.00 13.68 1.00
63754 2022-07-12 03:36:48 Bahnzimmer 19.00 17.79 32.00
63753 2022-07-12 03:19:22 Terrasse 16.30 14.01 1.00
63752 2022-07-12 03:06:47 Bahnzimmer 19.00 17.79 32.00
63751 2022-07-12 02:52:28 Terrasse 16.40 14.12 1.00
63750 2022-07-12 02:36:47 Bahnzimmer 19.00 17.79 32.00
63749 2022-07-12 02:22:41 Terrasse 16.80 17.14 99.90
63748 2022-07-12 02:06:46 Bahnzimmer 19.00 17.79 32.00
63747 2022-07-12 01:54:48 Terrasse 16.80 17.14 99.90
63746 2022-07-12 01:36:45 Bahnzimmer 19.00 17.79 32.00
63745 2022-07-12 01:26:43 Terrasse 17.40 17.80 99.90
63744 2022-07-12 01:06:45 Bahnzimmer 19.00 17.79 32.00
63743 2022-07-12 00:58:22 Terrasse 17.60 15.44 1.00
63742 2022-07-12 00:36:44 Bahnzimmer 19.00 17.79 32.00
63741 2022-07-12 00:30:37 Terrasse 18.00 15.88 1.00
63740 2022-07-12 00:06:43 Bahnzimmer 19.00 17.79 32.00
63739 2022-07-12 00:00:13 Terrasse 18.50 16.43 1.00
63738 2022-07-11 23:36:43 Bahnzimmer 19.00 17.79 32.00
63737 2022-07-11 23:31:59 Terrasse 18.60 19.12 99.90
63736 2022-07-11 23:06:42 Bahnzimmer 19.00 17.79 32.00
63735 2022-07-11 23:03:46 Terrasse 19.00 16.98 1.00
63734 2022-07-11 22:36:41 Bahnzimmer 20.00 18.89 32.00
63733 2022-07-11 22:35:35 Terrasse 19.60 20.22 99.90
63732 2022-07-11 22:07:23 Terrasse 20.20 20.88 99.90
63731 2022-07-11 22:06:41 Bahnzimmer 20.00 18.89 32.00
63730 2022-07-11 21:39:10 Terrasse 20.40 21.10 99.90
63729 2022-07-11 21:36:40 Bahnzimmer 20.00 18.89 32.00
63728 2022-07-11 21:10:58 Terrasse 21.00 19.18 1.00
63727 2022-07-11 21:06:39 Bahnzimmer 20.00 18.89 32.00
63726 2022-07-11 20:42:44 Terrasse 21.50 19.73 1.00
63725 2022-07-11 20:36:39 Bahnzimmer 20.00 18.89 32.00
63724 2022-07-11 20:14:32 Terrasse 21.90 20.17 1.00
63723 2022-07-11 20:06:38 Bahnzimmer 20.00 18.89 32.00
63722 2022-07-11 19:46:28 Terrasse 22.30 20.61 1.00
63721 2022-07-11 19:36:37 Bahnzimmer 20.00 18.89 32.00
63720 2022-07-11 19:18:15 Terrasse 22.90 21.27 1.00
63719 2022-07-11 19:06:37 Bahnzimmer 20.00 18.89 32.00
63718 2022-07-11 18:50:00 Terrasse 23.30 24.29 99.90
63717 2022-07-11 18:36:36 Bahnzimmer 20.00 18.89 32.00
63716 2022-07-11 18:21:45 Terrasse 23.20 24.18 99.90
63715 2022-07-11 18:06:35 Bahnzimmer 20.00 18.89 32.00
63714 2022-07-11 17:53:33 Terrasse 23.80 24.84 99.90
63713 2022-07-11 17:36:35 Bahnzimmer 20.00 18.89 32.00
63712 2022-07-11 17:25:18 Terrasse 24.10 25.17 99.90
63711 2022-07-11 17:06:32 Bahnzimmer 20.00 18.89 32.00
63710 2022-07-11 16:57:04 Terrasse 24.10 25.17 99.90
63709 2022-07-11 16:36:31 Bahnzimmer 20.00 18.89 32.00
63708 2022-07-11 16:28:49 Terrasse 24.10 25.17 99.90
63707 2022-07-11 16:06:30 Bahnzimmer 20.00 18.89 32.00
63706 2022-07-11 16:00:36 Terrasse 24.40 25.50 99.90
63705 2022-07-11 15:36:30 Bahnzimmer 19.00 17.79 32.00
63704 2022-07-11 15:32:18 Terrasse 24.40 25.50 99.90
63703 2022-07-11 15:06:29 Bahnzimmer 19.00 17.79 32.00
63702 2022-07-11 15:04:05 Terrasse 24.20 25.28 99.90
63701 2022-07-11 14:36:27 Bahnzimmer 19.00 17.79 32.00
63700 2022-07-11 14:35:42 Terrasse 23.60 22.04 1.00
63699 2022-07-11 14:07:24 Terrasse 23.10 21.49 1.00
63698 2022-07-11 14:06:27 Bahnzimmer 19.00 17.79 32.00
63697 2022-07-11 13:39:09 Terrasse 23.30 21.71 1.00
63696 2022-07-11 13:36:26 Bahnzimmer 19.00 17.79 32.00
63695 2022-07-11 13:10:54 Terrasse 24.30 22.89 3.90
63694 2022-07-11 13:06:25 Bahnzimmer 19.00 17.82 33.00
63693 2022-07-11 12:42:32 Terrasse 22.00 22.86 99.90
63692 2022-07-11 12:36:25 Bahnzimmer 19.00 17.82 33.00
63691 2022-07-11 12:14:30 Terrasse 23.10 21.49 1.00
63690 2022-07-11 12:06:24 Bahnzimmer 19.00 17.84 34.00
63689 2022-07-11 11:46:05 Terrasse 22.30 20.61 1.00
63688 2022-07-11 11:36:23 Bahnzimmer 19.00 17.84 34.00
63687 2022-07-11 11:17:43 Terrasse 21.10 21.87 99.90
63686 2022-07-11 11:06:23 Bahnzimmer 19.00 17.92 37.00
63685 2022-07-11 10:49:23 Terrasse 20.40 21.10 99.90
63684 2022-07-11 10:36:22 Bahnzimmer 19.00 17.90 36.00
63683 2022-07-11 10:20:59 Terrasse 19.10 19.67 99.90
63682 2022-07-11 10:06:21 Bahnzimmer 19.00 17.95 38.00
63681 2022-07-11 09:52:44 Terrasse 18.90 19.45 99.90
63680 2022-07-11 09:36:21 Bahnzimmer 19.00 17.90 36.00
63679 2022-07-11 09:24:31 Terrasse 19.00 16.98 1.00
63678 2022-07-11 09:06:20 Bahnzimmer 18.00 16.87 39.00
63677 2022-07-11 08:56:13 Terrasse 18.80 19.34 99.90
63676 2022-07-11 08:36:19 Bahnzimmer 18.00 16.90 40.00
63675 2022-07-11 08:27:55 Terrasse 18.10 16.61 24.50
63674 2022-07-11 08:06:19 Bahnzimmer 18.00 16.90 40.00
63673 2022-07-11 07:59:38 Terrasse 17.60 18.02 99.90
63672 2022-07-11 07:36:18 Bahnzimmer 19.00 17.90 36.00
63671 2022-07-11 07:31:21 Terrasse 17.10 14.89 1.00
63670 2022-07-11 07:06:17 Bahnzimmer 19.00 17.50 21.00
63669 2022-07-11 07:03:04 Terrasse 16.90 14.67 1.00
63668 2022-07-11 06:36:17 Bahnzimmer 19.00 17.50 21.00
63667 2022-07-11 06:34:49 Terrasse 16.90 14.67 1.00
63666 2022-07-11 06:06:36 Terrasse 16.90 14.67 1.00
63665 2022-07-11 06:06:16 Bahnzimmer 19.00 17.50 21.00
63664 2022-07-11 05:38:21 Terrasse 16.80 14.56 1.00
63663 2022-07-11 05:36:15 Bahnzimmer 19.00 17.50 21.00
63662 2022-07-11 05:10:07 Terrasse 16.80 14.56 1.00
63661 2022-07-11 05:06:14 Bahnzimmer 19.00 17.50 21.00
63660 2022-07-11 04:41:53 Terrasse 16.80 14.56 1.00
63659 2022-07-11 04:36:14 Bahnzimmer 19.00 17.50 21.00
63658 2022-07-11 04:13:39 Terrasse 16.80 14.56 1.00
63657 2022-07-11 04:06:13 Bahnzimmer 19.00 17.50 21.00
63656 2022-07-11 03:45:24 Terrasse 16.90 14.67 1.00
63655 2022-07-11 03:36:12 Bahnzimmer 19.00 17.50 21.00
63654 2022-07-11 03:17:09 Terrasse 16.90 14.67 1.00
63653 2022-07-11 03:06:12 Bahnzimmer 19.00 17.50 21.00
63652 2022-07-11 02:48:55 Terrasse 16.90 17.25 99.90
63651 2022-07-11 02:36:11 Bahnzimmer 19.00 17.50 21.00
63650 2022-07-11 02:20:40 Terrasse 17.00 14.78 1.00
63649 2022-07-11 02:06:10 Bahnzimmer 19.00 17.50 21.00
63648 2022-07-11 01:52:25 Terrasse 17.00 17.36 99.90
63647 2022-07-11 01:36:09 Bahnzimmer 19.00 17.50 21.00
63646 2022-07-11 01:24:10 Terrasse 16.90 17.14 95.60
63645 2022-07-11 01:06:09 Bahnzimmer 19.00 17.50 21.00
63644 2022-07-11 00:55:56 Terrasse 16.90 14.67 1.00
63643 2022-07-11 00:36:08 Bahnzimmer 19.00 17.50 21.00
63642 2022-07-11 00:27:41 Terrasse 16.90 14.67 1.00
63641 2022-07-11 00:06:07 Bahnzimmer 19.00 17.50 21.00
63640 2022-07-10 23:59:59 Terrasse 17.00 14.78 1.00
63639 2022-07-10 23:36:07 Bahnzimmer 19.00 17.50 21.00
63638 2022-07-10 23:31:59 Terrasse 17.20 17.58 99.90
63637 2022-07-10 23:06:06 Bahnzimmer 19.00 17.50 21.00
63636 2022-07-10 23:03:58 Terrasse 17.20 17.46 95.00
63635 2022-07-10 22:36:05 Bahnzimmer 19.00 17.50 21.00
63634 2022-07-10 22:36:03 Terrasse 17.40 15.22 1.00
63633 2022-07-10 22:08:22 Terrasse 17.60 17.92 96.10
63632 2022-07-10 22:06:05 Bahnzimmer 20.00 18.60 21.00
63631 2022-07-10 21:40:02 Terrasse 18.00 15.88 1.00
63630 2022-07-10 21:36:04 Bahnzimmer 20.00 18.60 21.00
63629 2022-07-10 21:12:07 Terrasse 18.40 18.90 99.90
63628 2022-07-10 21:06:03 Bahnzimmer 20.00 18.60 21.00
63627 2022-07-10 20:43:45 Terrasse 18.70 16.65 1.00
63626 2022-07-10 20:36:03 Bahnzimmer 20.00 18.60 21.00
63625 2022-07-10 20:15:51 Terrasse 19.10 19.67 99.90
63624 2022-07-10 20:06:02 Bahnzimmer 20.00 18.60 21.00
63623 2022-07-10 19:47:35 Terrasse 19.50 17.53 1.00
63622 2022-07-10 19:36:01 Bahnzimmer 20.00 18.60 21.00
63621 2022-07-10 19:19:26 Terrasse 20.40 21.10 99.90
63620 2022-07-10 19:06:00 Bahnzimmer 20.00 18.60 21.00
63619 2022-07-10 18:51:23 Terrasse 20.80 20.36 54.60
63618 2022-07-10 18:36:00 Bahnzimmer 20.00 18.60 21.00
63617 2022-07-10 18:23:17 Terrasse 21.30 19.51 1.00
63616 2022-07-10 18:05:59 Bahnzimmer 20.00 18.60 21.00
63615 2022-07-10 17:54:59 Terrasse 21.50 19.73 1.00
63614 2022-07-10 17:35:58 Bahnzimmer 20.00 18.60 21.00
63613 2022-07-10 17:26:47 Terrasse 21.70 19.95 1.00
63612 2022-07-10 17:05:58 Bahnzimmer 20.00 18.60 21.00
63611 2022-07-10 16:58:33 Terrasse 22.10 20.39 1.00
63610 2022-07-10 16:35:57 Bahnzimmer 20.00 18.60 21.00
63609 2022-07-10 16:30:23 Terrasse 22.70 21.05 1.00
63608 2022-07-10 16:05:56 Bahnzimmer 19.00 17.50 21.00
63607 2022-07-10 16:02:10 Terrasse 23.20 21.60 1.00
63606 2022-07-10 15:35:56 Bahnzimmer 19.00 17.50 21.00
63605 2022-07-10 15:33:57 Terrasse 23.40 21.82 1.00
63604 2022-07-10 15:05:55 Bahnzimmer 19.00 17.50 21.00
63603 2022-07-10 15:05:43 Terrasse 23.50 21.93 1.00
63602 2022-07-10 14:37:24 Terrasse 22.70 21.05 1.00
63601 2022-07-10 14:35:54 Bahnzimmer 19.00 17.50 21.00
63600 2022-07-10 14:09:20 Terrasse 24.10 22.59 1.00
63599 2022-07-10 14:05:54 Bahnzimmer 19.00 17.50 21.00
63598 2022-07-10 13:40:56 Terrasse 22.30 20.61 1.00
63597 2022-07-10 13:35:53 Bahnzimmer 19.00 17.50 21.00
63596 2022-07-10 13:12:45 Terrasse 23.40 21.82 1.00
63595 2022-07-10 13:05:52 Bahnzimmer 19.00 17.50 21.00
63594 2022-07-10 12:44:17 Terrasse 20.60 19.15 16.80
63593 2022-07-10 12:35:52 Bahnzimmer 19.00 17.50 21.00
63592 2022-07-10 12:16:02 Terrasse 19.50 20.11 99.90
63591 2022-07-10 12:05:51 Bahnzimmer 19.00 17.50 21.00
63590 2022-07-10 11:48:03 Terrasse 21.30 22.09 99.90
63589 2022-07-10 11:35:50 Bahnzimmer 19.00 17.50 21.00
63588 2022-07-10 11:19:26 Terrasse 19.00 16.98 1.00
63587 2022-07-10 11:05:49 Bahnzimmer 19.00 17.50 21.00
63586 2022-07-10 10:51:04 Terrasse 17.60 18.02 99.90
63585 2022-07-10 10:35:49 Bahnzimmer 18.00 16.40 21.00
63584 2022-07-10 10:22:46 Terrasse 17.00 17.36 99.90
63583 2022-07-10 10:05:48 Bahnzimmer 18.00 16.40 21.00
63582 2022-07-10 09:54:26 Terrasse 16.60 16.92 99.90
63581 2022-07-10 09:26:11 Terrasse 16.40 16.70 99.90
63580 2022-07-10 08:57:53 Terrasse 16.00 13.68 1.00
63579 2022-07-10 08:29:53 Bahnzimmer 18.00 16.43 22.00
63578 2022-07-10 08:29:35 Terrasse 15.50 13.38 10.70
63577 2022-07-10 08:01:17 Terrasse 15.10 12.69 1.00
63576 2022-07-10 07:59:52 Bahnzimmer 18.00 16.43 22.00
63575 2022-07-10 07:33:00 Terrasse 14.70 14.83 99.90
63574 2022-07-10 07:29:51 Bahnzimmer 20.00 18.89 32.00
63573 2022-07-10 07:05:19 Terrasse 14.40 11.92 1.00
63572 2022-07-10 06:59:51 Bahnzimmer 20.00 18.89 32.00
63571 2022-07-10 06:36:52 Terrasse 14.20 11.70 1.00
63570 2022-07-10 06:29:50 Bahnzimmer 20.00 18.89 32.00
63569 2022-07-10 06:08:44 Terrasse 14.50 12.03 1.00
63568 2022-07-10 05:59:49 Bahnzimmer 20.00 18.89 32.00
63567 2022-07-10 05:40:30 Terrasse 14.60 12.49 14.40
63566 2022-07-10 05:29:48 Bahnzimmer 20.00 18.89 32.00
63565 2022-07-10 05:12:17 Terrasse 14.90 13.63 45.40
63564 2022-07-10 04:59:48 Bahnzimmer 20.00 18.89 32.00
63563 2022-07-10 04:44:05 Terrasse 15.30 15.49 99.90
63562 2022-07-10 04:29:47 Bahnzimmer 20.00 18.89 32.00
63561 2022-07-10 04:15:52 Terrasse 15.60 13.24 1.00
63560 2022-07-10 03:59:46 Bahnzimmer 20.00 18.89 32.00
63559 2022-07-10 03:47:40 Terrasse 15.80 13.46 1.00
63558 2022-07-10 03:29:46 Bahnzimmer 20.00 18.89 32.00
63557 2022-07-10 03:19:25 Terrasse 16.00 13.68 1.00
63556 2022-07-10 02:59:45 Bahnzimmer 20.00 18.89 32.00
63555 2022-07-10 02:51:11 Terrasse 16.10 16.37 99.90
63554 2022-07-10 02:29:44 Bahnzimmer 20.00 18.89 32.00
63553 2022-07-10 02:22:59 Terrasse 16.50 16.81 99.90
63552 2022-07-10 01:59:44 Bahnzimmer 20.00 18.89 32.00
63551 2022-07-10 01:54:47 Terrasse 16.90 14.67 1.00
63550 2022-07-10 01:29:43 Bahnzimmer 20.00 18.89 32.00
63549 2022-07-10 01:26:35 Terrasse 17.40 17.23 77.80
63548 2022-07-10 00:59:42 Bahnzimmer 20.00 18.89 32.00
63547 2022-07-10 00:58:21 Terrasse 17.70 17.02 57.10
63546 2022-07-10 00:30:08 Terrasse 18.00 15.88 1.00
63545 2022-07-10 00:29:42 Bahnzimmer 20.00 18.89 32.00
63544 2022-07-10 00:02:15 Terrasse 18.30 16.21 1.00
63543 2022-07-09 23:59:41 Bahnzimmer 20.00 18.89 32.00
63542 2022-07-09 23:34:12 Terrasse 18.20 16.10 1.00
63541 2022-07-09 23:29:40 Bahnzimmer 20.00 18.89 32.00
63540 2022-07-09 23:05:50 Terrasse 18.40 18.90 99.90
63539 2022-07-09 22:59:40 Bahnzimmer 20.00 18.89 32.00
63538 2022-07-09 22:37:52 Terrasse 18.70 19.23 99.90
63537 2022-07-09 22:29:39 Bahnzimmer 20.00 18.89 32.00
63536 2022-07-09 22:09:48 Terrasse 19.20 17.20 1.00
63535 2022-07-09 21:59:38 Bahnzimmer 20.00 18.89 32.00
63534 2022-07-09 21:41:35 Terrasse 19.80 19.29 55.60
63533 2022-07-09 21:29:38 Bahnzimmer 20.00 18.89 32.00
63532 2022-07-09 21:13:31 Terrasse 20.40 21.10 99.90
63531 2022-07-09 20:59:37 Bahnzimmer 20.00 18.89 32.00
63530 2022-07-09 20:45:14 Terrasse 21.00 21.76 99.90
63529 2022-07-09 20:29:36 Bahnzimmer 20.00 18.89 32.00
63528 2022-07-09 20:17:01 Terrasse 21.30 19.51 1.00
63527 2022-07-09 19:59:36 Bahnzimmer 20.00 18.89 32.00
63526 2022-07-09 19:48:47 Terrasse 21.40 22.20 99.90
63525 2022-07-09 19:29:35 Bahnzimmer 20.00 18.79 28.00
63524 2022-07-09 19:20:31 Terrasse 21.40 22.20 99.90
63523 2022-07-09 18:59:34 Bahnzimmer 21.00 19.91 29.00
63522 2022-07-09 18:52:21 Terrasse 22.40 20.72 1.00
63521 2022-07-09 18:29:34 Bahnzimmer 21.00 19.86 27.00
63520 2022-07-09 18:24:14 Terrasse 24.00 22.48 1.00
63519 2022-07-09 17:59:33 Bahnzimmer 21.00 19.86 27.00
63518 2022-07-09 17:56:02 Terrasse 24.60 23.14 1.00
63517 2022-07-09 17:29:32 Bahnzimmer 21.00 19.86 27.00
63516 2022-07-09 17:27:51 Terrasse 25.40 24.02 1.00
63515 2022-07-09 16:59:40 Terrasse 26.30 25.01 1.00
63514 2022-07-09 16:59:32 Bahnzimmer 21.00 19.91 29.00
63513 2022-07-09 16:31:26 Terrasse 26.70 25.45 1.00
63512 2022-07-09 16:29:31 Bahnzimmer 21.00 19.96 31.00
63511 2022-07-09 16:03:12 Terrasse 26.80 25.56 1.00
63510 2022-07-09 15:59:30 Bahnzimmer 21.00 19.96 31.00
63509 2022-07-09 15:34:56 Terrasse 27.10 25.89 1.00
63508 2022-07-09 15:29:30 Bahnzimmer 20.00 18.89 32.00
63507 2022-07-09 15:06:38 Terrasse 26.30 25.01 1.00
63506 2022-07-09 14:59:29 Bahnzimmer 20.00 18.89 32.00
63505 2022-07-09 14:38:28 Terrasse 27.10 25.89 1.00
63504 2022-07-09 14:29:28 Bahnzimmer 20.00 18.89 32.00
63503 2022-07-09 14:10:10 Terrasse 27.10 25.89 1.00
63502 2022-07-09 13:59:28 Bahnzimmer 20.00 18.92 33.00
63501 2022-07-09 13:42:20 Terrasse 30.20 27.39 1.00
63500 2022-07-09 13:29:27 Bahnzimmer 20.00 18.92 33.00
63499 2022-07-09 13:13:42 Terrasse 28.30 26.03 1.00
63498 2022-07-09 12:59:26 Bahnzimmer 20.00 18.92 33.00
63497 2022-07-09 12:45:18 Terrasse 26.60 30.42 99.90
63496 2022-07-09 12:29:25 Bahnzimmer 20.00 18.92 33.00
63495 2022-07-09 12:16:58 Terrasse 25.30 26.22 99.90
63494 2022-07-09 11:59:24 Bahnzimmer 20.00 18.94 34.00
63493 2022-07-09 11:48:30 Terrasse 23.70 24.73 99.90
63492 2022-07-09 11:29:24 Bahnzimmer 20.00 18.94 34.00
63491 2022-07-09 11:20:24 Terrasse 23.90 22.37 1.00
63490 2022-07-09 10:59:23 Bahnzimmer 20.00 18.97 35.00
63489 2022-07-09 10:51:57 Terrasse 22.30 23.19 99.90
63488 2022-07-09 10:29:22 Bahnzimmer 19.00 17.97 39.00
63487 2022-07-09 10:23:42 Terrasse 21.80 20.06 1.00
63486 2022-07-09 09:59:22 Bahnzimmer 19.00 18.00 40.00
63485 2022-07-09 09:55:18 Terrasse 20.40 21.10 99.90
63484 2022-07-09 09:29:21 Bahnzimmer 19.00 18.00 40.00
63483 2022-07-09 09:26:58 Terrasse 19.60 20.22 99.90
63482 2022-07-09 08:59:20 Bahnzimmer 19.00 18.00 40.00
63481 2022-07-09 08:58:40 Terrasse 18.80 19.34 99.90
63480 2022-07-09 08:30:19 Terrasse 18.00 17.42 59.80
63479 2022-07-09 08:29:20 Bahnzimmer 19.00 18.00 40.00
63478 2022-07-09 08:02:02 Terrasse 17.60 17.91 95.40
63477 2022-07-09 07:59:19 Bahnzimmer 20.00 18.68 24.00
63476 2022-07-09 07:33:44 Terrasse 17.10 14.89 1.00
63475 2022-07-09 07:29:18 Bahnzimmer 20.00 18.60 21.00
63474 2022-07-09 07:05:30 Terrasse 17.00 14.78 1.00
63473 2022-07-09 06:59:18 Bahnzimmer 20.00 18.60 21.00
63472 2022-07-09 06:29:17 Bahnzimmer 20.00 18.60 21.00
63471 2022-07-09 06:06:52 Terrasse 16.20 13.90 1.00
63470 2022-07-09 05:59:16 Bahnzimmer 20.00 18.60 21.00
63469 2022-07-09 05:38:41 Terrasse 16.40 16.70 99.90
63468 2022-07-09 05:29:16 Bahnzimmer 20.00 18.60 21.00
63467 2022-07-09 05:10:26 Terrasse 16.50 14.23 1.00
63466 2022-07-09 04:59:15 Bahnzimmer 20.00 18.60 21.00
63465 2022-07-09 04:42:12 Terrasse 16.70 14.45 1.00
63464 2022-07-09 04:29:14 Bahnzimmer 20.00 18.60 21.00
63463 2022-07-09 04:13:57 Terrasse 16.90 14.67 1.00
63462 2022-07-09 03:59:13 Bahnzimmer 20.00 18.60 21.00
63461 2022-07-09 03:45:43 Terrasse 17.30 15.11 1.00
63460 2022-07-09 03:29:13 Bahnzimmer 20.00 18.60 21.00
63459 2022-07-09 03:17:28 Terrasse 17.60 18.02 99.90
63458 2022-07-09 02:59:12 Bahnzimmer 20.00 18.60 21.00
63457 2022-07-09 02:49:13 Terrasse 17.70 15.55 1.00
63456 2022-07-09 02:29:11 Bahnzimmer 20.00 18.60 21.00
63455 2022-07-09 02:21:01 Terrasse 18.20 16.10 1.00
63454 2022-07-09 01:59:11 Bahnzimmer 20.00 18.60 21.00
63453 2022-07-09 01:52:47 Terrasse 18.60 19.12 99.90
63452 2022-07-09 01:29:10 Bahnzimmer 20.00 18.60 21.00
63451 2022-07-09 01:24:33 Terrasse 18.80 16.76 1.00
63450 2022-07-09 00:59:09 Bahnzimmer 20.00 18.60 21.00
63449 2022-07-09 00:56:18 Terrasse 18.90 19.45 99.90
63448 2022-07-09 00:29:09 Bahnzimmer 20.00 18.60 21.00
63447 2022-07-09 00:28:09 Terrasse 19.10 17.09 1.00
63446 2022-07-08 23:59:54 Terrasse 19.50 20.11 99.90
63445 2022-07-08 23:59:08 Bahnzimmer 20.00 18.60 21.00
63444 2022-07-08 23:31:41 Terrasse 19.70 17.75 1.00
63443 2022-07-08 23:29:07 Bahnzimmer 20.00 18.60 21.00
63442 2022-07-08 23:03:28 Terrasse 20.10 18.19 1.00
63441 2022-07-08 22:59:07 Bahnzimmer 20.00 18.60 21.00
63440 2022-07-08 22:35:16 Terrasse 20.40 21.10 99.90
63439 2022-07-08 22:29:06 Bahnzimmer 20.00 18.60 21.00
63438 2022-07-08 22:07:03 Terrasse 20.80 21.54 99.90
63437 2022-07-08 21:59:05 Bahnzimmer 20.00 18.60 21.00
63436 2022-07-08 21:38:51 Terrasse 21.30 20.42 35.90
63435 2022-07-08 21:29:05 Bahnzimmer 20.00 18.60 21.00
63434 2022-07-08 21:10:39 Terrasse 21.80 20.06 1.00
63433 2022-07-08 20:59:04 Bahnzimmer 20.00 18.60 21.00
63432 2022-07-08 20:42:25 Terrasse 22.10 20.39 1.00
63431 2022-07-08 20:29:03 Bahnzimmer 20.00 18.60 21.00
63430 2022-07-08 20:14:14 Terrasse 22.70 21.05 1.00
63429 2022-07-08 19:59:03 Bahnzimmer 20.00 18.60 21.00
63428 2022-07-08 19:46:01 Terrasse 23.20 21.60 1.00
63427 2022-07-08 19:29:02 Bahnzimmer 20.00 18.60 21.00
63426 2022-07-08 19:17:46 Terrasse 23.40 21.82 1.00
63425 2022-07-08 18:59:01 Bahnzimmer 20.00 18.60 21.00
63424 2022-07-08 18:49:34 Terrasse 24.00 22.48 1.00
63423 2022-07-08 18:29:01 Bahnzimmer 20.00 18.60 21.00
63422 2022-07-08 18:21:20 Terrasse 24.20 22.70 1.00
63421 2022-07-08 17:59:00 Bahnzimmer 20.00 18.60 21.00
63420 2022-07-08 17:53:06 Terrasse 24.20 22.70 1.00
63419 2022-07-08 17:28:59 Bahnzimmer 20.00 18.60 21.00
63418 2022-07-08 17:24:54 Terrasse 24.90 23.47 1.00
63417 2022-07-08 16:58:59 Bahnzimmer 21.00 19.68 20.00
63416 2022-07-08 16:56:42 Terrasse 24.90 23.47 1.00
63415 2022-07-08 16:28:58 Bahnzimmer 21.00 19.68 20.00
63414 2022-07-08 16:28:32 Terrasse 25.50 24.13 1.00
63413 2022-07-08 16:00:22 Terrasse 26.30 25.01 1.00
63412 2022-07-08 15:58:57 Bahnzimmer 20.00 18.60 21.00
63411 2022-07-08 15:32:05 Terrasse 26.60 25.34 1.00
63410 2022-07-08 15:28:57 Bahnzimmer 20.00 18.60 21.00
63409 2022-07-08 15:03:52 Terrasse 26.70 25.45 1.00
63408 2022-07-08 14:58:56 Bahnzimmer 20.00 18.60 21.00
63407 2022-07-08 14:35:45 Terrasse 27.40 25.31 1.00
63406 2022-07-08 14:28:55 Bahnzimmer 20.00 18.60 21.00
63405 2022-07-08 14:07:42 Terrasse 29.10 26.58 1.00
63404 2022-07-08 13:58:55 Bahnzimmer 20.00 18.60 21.00
63403 2022-07-08 13:39:24 Terrasse 29.70 27.03 1.00
63402 2022-07-08 13:28:54 Bahnzimmer 20.00 18.60 21.00
63401 2022-07-08 13:10:54 Terrasse 27.20 26.00 1.00
63400 2022-07-08 12:58:53 Bahnzimmer 20.00 18.60 21.00
63399 2022-07-08 12:42:19 Terrasse 23.10 21.49 1.00
63398 2022-07-08 12:28:53 Bahnzimmer 20.00 18.60 21.00
63397 2022-07-08 12:14:02 Terrasse 22.40 20.72 1.00
63396 2022-07-08 11:58:52 Bahnzimmer 20.00 18.60 21.00
63395 2022-07-08 11:45:43 Terrasse 21.80 22.64 99.90
63394 2022-07-08 11:28:51 Bahnzimmer 20.00 18.60 21.00
63393 2022-07-08 11:17:12 Terrasse 20.10 20.77 99.90
63392 2022-07-08 10:58:50 Bahnzimmer 19.00 17.50 21.00
63391 2022-07-08 10:48:44 Terrasse 18.00 15.88 1.00
63390 2022-07-08 10:28:50 Bahnzimmer 19.00